ECMWFNIL_700_spd_000.txt.gz
Wind_Speed
6 5 4 3 2 2 2 3 2 2 2 2 3 4 5 6 7 7 7 6 5 3 3 3 3 3 4 4 4 4 4 5 6 7 8 10 11 12 13 13 13 14
9 8 6 5 4 4 4 4 3 3 1 1 0 2 3 5 6 7 7 7 6 5 4 4 4 4 5 6 6 6 6 6 6 6 7 8 9 10 11 12 12 13
14 12 10 8 8 8 8 7 5 5 4 3 2 3 4 5 6 6 6 7 7 6 5 5 5 5 6 7 7 7 7 7 7 7 7 7 8 8 9 10 10 11
18 16 12 11 12 12 12 11 9 8 7 6 5 4 5 6 7 7 7 7 6 6 6 6 6 6 6 6 6 7 7 7 8 8 9 9 9 10 10 10 11 11
18 16 13 13 15 15 15 14 13 12 11 10 9 8 7 7 8 8 8 8 7 6 5 6 6 6 6 7 7 7 7 8 8 9 9 9 10 10 11 11 11 12
19 17 16 16 17 18 18 16 16 15 15 15 14 13 12 10 9 10 10 9 8 7 6 6 6 6 6 6 7 8 8 8 9 9 9 10 10 10 11 12 12 12
22 20 20 18 18 19 20 20 19 19 18 18 19 19 17 15 14 13 13 12 10 9 9 8 8 8 7 7 7 8 9 10 10 10 10 11 11 12 12 13 14 14
26 25 24 22 20 20 21 20 21 21 21 21 22 22 22 21 20 18 17 16 14 12 12 12 12 12 11 10 10 10 12 13 13 13 12 12 12 13 14 15 15 16
29 28 28 27 27 26 24 22 21 21 22 23 24 24 25 25 25 23 22 21 18 16 15 15 16 16 16 15 15 15 15 16 17 16 16 15 15 16 16 16 17 17
28 28 27 27 28 29 28 27 24 22 21 23 25 26 27 28 29 28 27 26 24 21 20 20 20 19 19 19 19 19 19 19 19 19 19 19 19 19 19 19 19 19
26 25 24 24 25 26 27 28 28 26 24 24 26 28 28 30 32 33 32 31 28 27 25 24 23 23 22 22 22 23 24 24 23 23 22 22 22 22 22 23 23 23
23 22 23 23 23 22 22 23 25 26 27 27 28 30 30 32 34 36 36 35 33 31 30 27 26 26 26 25 25 27 28 28 28 27 27 27 27 27 27 27 27 27
20 20 20 21 20 20 20 20 21 24 26 28 32 34 34 33 34 36 38 37 36 35 32 30 29 29 29 29 29 30 30 31 32 32 32 32 32 33 33 34 33 32
19 19 20 20 21 22 22 23 23 24 26 28 31 36 37 35 36 38 38 39 40 38 36 34 34 34 33 33 33 33 34 35 35 35 36 37 37 37 37 37 37 36
23 24 24 24 24 25 25 26 26 26 27 27 28 33 38 39 40 41 41 41 42 41 39 38 39 38 37 36 36 36 35 36 36 36 38 38 39 39 39 39 39 38
24 25 26 27 27 28 28 29 30 30 31 30 29 31 34 39 43 45 45 45 43 40 40 41 42 42 40 38 37 36 35 35 36 37 37 39 40 40 40 41 41 41
28 29 30 30 30 31 32 33 34 35 35 35 34 33 34 37 40 44 49 48 43 40 43 45 44 44 44 40 36 34 34 35 36 37 38 40 41 41 41 43 43 42
32 33 35 36 37 37 37 36 36 37 38 39 38 36 35 35 37 40 47 49 45 44 47 48 47 47 45 41 36 34 35 37 37 38 39 40 40 40 43 45 43 41
30 31 32 34 35 37 38 37 37 37 38 39 40 39 37 37 37 38 41 45 44 44 47 48 48 48 43 38 36 36 39 40 38 37 37 38 39 41 44 44 42 40
29 30 31 32 32 34 36 37 38 38 38 39 40 40 38 37 38 37 37 38 36 35 39 43 45 44 41 39 39 40 40 40 37 35 36 38 40 41 43 42 40 38
30 31 32 32 32 33 34 35 36 36 37 39 40 40 39 37 37 37 36 34 31 30 33 38 40 41 41 42 42 41 39 37 35 35 36 39 41 41 40 39 38 37
32 32 33 33 33 34 34 34 35 35 36 37 39 40 39 37 37 37 35 33 30 29 32 35 38 39 41 42 42 41 38 35 35 36 38 39 41 40 38 37 37 38
32 32 33 34 34 34 35 35 35 35 35 36 38 39 39 38 37 36 35 32 30 30 33 37 39 40 41 43 43 41 38 36 37 38 38 38 39 38 37 37 38 38
30 31 32 32 32 33 35 35 35 36 36 37 38 38 38 37 36 35 34 32 31 32 35 38 39 40 43 44 43 40 38 38 38 37 36 36 36 36 37 38 39 39
30 31 31 32 33 33 35 35 36 36 37 38 38 38 36 36 35 34 32 32 34 35 36 38 40 43 45 44 40 38 38 37 35 35 35 35 36 37 38 39 40 40
32 33 34 35 35 35 35 35 36 36 36 37 38 36 33 34 34 32 31 32 36 37 38 39 41 42 42 40 36 34 34 34 33 34 34 35 37 38 40 40 41 41

ECMWFNIL_700_spd_003.txt.gz
Wind_Speed
10 7 5 4 2 2 2 2 1 1 2 3 5 6 6 7 8 8 7 6 5 4 3 2 2 2 2 2 2 3 4 5 5 6 6 7 8 8 9 10 11 12
13 11 8 6 4 3 4 4 4 2 1 1 1 2 4 5 6 7 7 7 6 6 5 4 4 3 3 3 3 3 4 5 6 6 6 6 6 7 7 8 9 10
16 13 11 9 8 7 6 7 7 6 5 4 3 2 1 2 3 4 5 5 5 5 5 4 4 3 3 4 4 5 5 6 7 7 7 7 7 6 6 6 7 7
19 17 16 15 13 11 11 11 10 10 9 8 7 6 5 4 3 2 2 3 3 3 4 4 3 3 4 5 5 6 6 7 7 8 8 9 8 8 8 8 8 7
23 22 21 20 17 15 15 14 12 12 12 12 11 10 8 7 6 5 3 1 1 1 2 2 2 2 3 4 6 6 7 7 8 8 9 10 10 11 11 10 11 11
25 24 23 23 21 18 18 16 15 15 16 15 15 14 13 11 10 10 8 6 4 3 3 3 3 3 3 4 6 6 7 8 8 8 9 9 10 11 12 13 13 13
28 25 24 25 25 22 20 19 18 18 18 17 17 18 17 15 15 14 13 12 10 8 7 7 7 6 6 6 8 9 10 10 11 11 10 10 10 11 12 13 14 14
32 29 27 27 27 24 23 23 21 19 18 18 18 19 19 18 18 18 17 16 16 14 12 11 10 10 10 10 11 12 13 14 15 16 15 14 14 13 13 13 15 15
34 31 30 30 29 28 28 27 24 20 19 18 19 19 18 19 20 21 21 20 20 19 18 16 15 15 14 14 15 15 17 17 19 19 20 19 19 18 17 17 17 17
34 32 32 33 33 32 31 30 28 24 22 21 21 21 20 21 21 22 24 23 23 23 22 21 20 20 19 19 19 19 20 21 21 22 22 23 23 23 23 23 22 22
35 32 31 33 35 35 35 34 32 28 27 27 26 26 25 24 23 24 25 25 25 25 24 24 23 23 23 23 23 23 24 24 24 24 25 25 25 25 26 26 27 27
36 34 32 32 33 34 34 32 28 25 27 28 28 30 30 29 29 29 29 28 27 27 28 27 26 25 26 26 26 26 26 27 27 27 27 27 26 27 26 27 28 30
40 39 33 27 27 28 27 26 24 23 24 24 24 28 29 28 31 32 31 31 29 30 32 32 30 30 29 28 27 28 29 30 30 30 30 29 29 28 28 28 29 30
37 34 27 20 22 25 24 24 24 22 21 22 23 26 26 27 29 31 33 34 31 31 34 36 36 35 33 31 30 30 31 32 33 33 32 32 31 30 30 29 30 30
27 27 25 22 24 27 26 25 23 21 22 23 23 24 25 25 27 30 33 34 32 32 36 38 40 39 37 35 35 34 33 35 36 34 34 34 33 32 32 31 32 33
24 25 25 25 27 29 29 28 28 27 27 26 25 25 24 24 26 28 30 31 31 32 35 39 40 40 40 40 39 37 37 38 37 36 37 37 36 34 34 34 35 37
21 21 20 21 23 25 26 26 26 26 26 27 28 28 29 30 30 30 30 31 31 30 32 36 37 39 41 43 42 40 40 40 39 40 41 40 36 35 36 37 38 39
25 24 23 24 24 24 25 26 27 28 29 32 32 34 37 38 35 33 32 32 32 30 31 34 36 37 39 40 41 42 44 44 43 44 45 42 37 35 36 38 40 39
29 28 28 28 28 28 29 30 31 32 33 34 35 37 39 39 36 34 34 34 34 32 32 35 37 37 37 37 39 42 45 46 46 48 47 42 37 35 35 37 39 37
27 28 29 29 29 30 31 31 31 31 31 32 33 34 35 36 36 36 36 36 36 35 35 37 36 35 35 35 36 39 42 45 47 48 44 39 37 36 36 37 37 35
26 27 28 29 30 30 30 30 30 30 29 29 29 31 33 34 34 34 35 36 36 37 39 38 34 33 34 34 35 37 39 43 46 47 43 39 39 37 37 37 36 36
29 30 30 30 31 31 30 31 30 30 29 28 28 28 29 31 32 33 34 35 36 37 38 37 34 34 35 35 36 37 37 41 44 44 41 39 39 38 37 38 38 38
31 31 31 30 30 30 30 30 29 29 28 27 27 27 27 28 30 30 32 34 36 38 37 35 34 34 35 35 36 36 36 39 42 41 39 40 40 38 37 37 38 39
32 31 29 28 28 27 27 27 27 27 27 26 27 27 27 28 29 28 29 33 37 38 37 34 33 34 35 35 36 36 36 37 39 39 39 39 39 38 37 37 37 39
33 32 31 29 28 27 27 26 27 28 27 27 28 28 28 29 29 27 30 33 34 34 33 32 32 34 36 36 36 35 34 34 36 37 37 37 36 36 36 36 37 39
35 35 34 33 33 32 30 29 29 29 29 28 28 28 29 29 28 28 31 32 30 30 31 31 32 34 35 36 35 34 34 34 35 36 36 36 36 35 35 36 38 39

ECMWFNIL_700_spd_006.txt.gz
Wind_Speed
11 8 7 5 4 3 2 3 3 3 3 4 5 6 7 8 8 8 8 8 8 8 7 7 7 6 6 6 6 6 6 6 5 5 5 4 4 3 3 4 4 5
13 10 8 7 6 5 3 2 3 2 1 2 3 4 5 6 7 7 7 8 8 8 8 8 8 8 8 8 8 8 8 8 8 7 7 6 5 5 4 4 3 3
14 12 10 9 8 7 6 5 4 2 2 3 2 2 2 3 4 5 5 6 6 7 7 7 8 8 8 8 9 10 10 11 11 11 10 9 9 8 7 6 6 5
16 14 13 11 11 11 10 9 8 7 6 6 6 5 3 2 1 1 3 4 4 4 4 5 5 6 7 8 9 10 11 12 12 12 12 12 12 12 11 10 10 9
17 16 15 15 15 16 16 14 13 12 11 10 10 10 7 5 4 3 2 2 3 3 3 3 3 3 4 6 7 8 10 11 11 12 13 13 13 13 13 13 13 12
19 18 18 20 21 21 20 19 16 15 15 14 14 13 10 8 7 7 5 5 4 3 4 5 4 4 4 4 5 6 7 8 9 11 11 12 13 13 13 12 12 12
21 21 23 24 25 25 24 23 20 17 18 18 17 16 14 12 11 10 9 9 8 6 5 6 6 7 7 7 7 7 8 8 9 10 10 11 12 12 13 12 12 11
25 26 27 27 27 28 26 24 22 20 19 20 20 19 18 16 14 13 13 12 11 11 9 9 8 8 9 10 10 11 11 12 12 12 12 13 13 13 14 14 14 14
28 29 28 28 29 29 27 25 25 24 23 23 23 21 20 20 18 16 15 14 14 14 14 13 12 12 12 12 13 14 15 16 17 17 16 16 17 17 16 15 16 17
30 30 28 28 29 29 29 28 28 27 26 25 24 23 22 22 20 18 17 17 17 17 17 16 16 16 15 14 15 17 18 19 20 21 21 20 20 20 20 19 18 19
31 30 28 27 28 30 32 32 32 32 31 28 26 25 24 24 22 20 20 20 20 20 20 21 20 19 18 17 17 18 19 20 21 23 24 24 23 23 23 22 22 22
32 29 26 25 27 28 31 31 31 31 30 29 30 31 30 27 24 24 25 26 25 24 24 24 23 22 21 19 18 19 20 21 22 24 25 26 25 24 24 23 23 24
35 31 27 29 31 31 32 31 30 31 33 32 31 32 33 28 23 24 27 27 25 25 25 25 25 25 25 23 22 20 21 23 24 26 27 28 28 28 27 25 24 24
39 37 33 34 36 36 36 34 33 38 41 36 28 24 24 22 20 20 22 21 20 22 24 26 28 28 27 28 27 24 24 25 26 27 29 30 31 31 31 30 27 26
35 38 37 37 37 37 38 37 37 38 39 36 29 22 18 17 16 16 15 15 17 19 22 25 27 28 26 27 29 28 29 29 28 28 29 31 32 33 34 33 31 31
29 32 34 34 35 35 35 34 35 33 32 30 27 23 22 22 23 23 20 19 19 20 23 25 28 28 26 25 26 29 31 32 30 29 29 30 32 34 36 35 33 35
24 26 28 26 25 25 25 24 24 24 23 23 22 22 24 25 26 27 26 25 24 24 28 31 31 30 27 26 27 30 32 33 33 31 31 30 31 33 36 36 36 38
23 24 24 22 19 19 21 21 20 19 19 20 21 22 23 23 24 26 26 28 29 30 33 36 35 31 29 29 29 31 33 34 33 32 32 32 33 34 36 37 38 39
25 24 23 23 23 24 25 24 22 22 22 23 24 25 25 26 27 27 27 28 30 32 34 36 34 32 30 31 31 32 33 33 32 32 33 35 36 35 35 37 39 41
23 24 25 27 30 31 31 29 28 28 28 28 28 29 29 30 30 29 28 28 30 32 34 33 33 32 31 31 31 31 32 32 32 34 35 35 34 34 35 36 39 41
21 22 23 25 26 27 28 28 29 30 30 30 29 29 30 30 30 30 29 30 32 35 35 33 32 32 31 30 30 30 30 30 32 35 37 35 33 33 35 36 38 41
21 21 22 22 23 23 24 24 25 26 27 28 28 29 29 29 29 29 29 30 32 34 33 32 31 31 31 30 29 28 28 30 34 37 38 36 33 33 35 36 39 40
22 22 23 24 25 26 26 27 27 28 28 29 28 28 28 28 28 29 29 30 31 30 29 27 27 28 30 29 29 28 29 32 35 35 35 34 33 33 34 35 38 39
25 25 26 27 28 29 29 29 29 29 28 27 26 24 24 25 27 28 29 30 31 29 26 25 25 26 28 30 30 30 30 31 32 31 32 32 32 33 34 35 36 37
28 28 28 28 29 29 29 29 29 28 27 27 26 24 24 24 26 28 30 31 31 29 27 26 25 26 28 29 29 29 29 28 28 28 29 30 31 32 34 35 36 37
30 31 31 31 31 30 29 28 28 28 28 29 29 28 26 26 26 29 31 32 31 30 30 28 26 26 27 29 30 30 28 26 26 27 28 29 31 33 35 35 36 37

ECMWFNIL_700_spd_009.txt.gz
Wind_Speed
11 9 8 7 5 3 1 2 5 7 9 10 10 11 12 13 13 13 12 12 13 13 13 13 14 14 13 13 12 12 11 11 10 9 9 8 7 6 4 3 2 2
11 10 9 7 4 2 2 3 5 7 8 8 9 10 10 11 12 12 12 12 13 14 14 15 15 15 15 15 14 14 14 14 14 13 13 12 11 10 8 7 6 5
11 10 9 7 5 5 5 4 4 6 8 8 7 7 8 8 9 10 10 11 11 12 12 13 14 14 14 13 13 14 14 14 14 13 13 13 12 12 11 10 9 8
12 11 11 9 8 8 7 6 5 5 7 7 6 4 4 5 5 6 7 8 9 9 9 10 10 10 10 10 10 11 11 11 12 12 12 12 12 12 12 11 11 10
13 13 13 13 12 11 9 8 8 7 6 5 4 3 1 1 1 2 3 4 5 5 5 6 6 6 6 6 7 7 7 8 8 9 9 10 10 11 11 11 11 11
16 15 15 16 16 15 12 11 11 10 9 7 5 4 4 4 4 3 2 1 1 1 1 1 1 2 2 2 2 3 4 4 5 5 6 7 7 8 9 10 10 10
18 17 17 18 18 17 15 14 13 13 13 12 11 10 8 6 6 6 6 6 5 5 4 4 4 3 2 2 2 3 3 3 4 4 4 5 6 7 8 9 10 11
21 20 19 19 19 17 17 17 17 17 18 18 17 15 13 11 10 9 9 9 9 9 9 8 8 7 7 6 6 7 7 7 8 8 7 7 8 9 9 10 10 11
25 23 22 20 20 19 19 19 20 20 20 21 20 19 18 18 16 14 13 12 11 12 12 11 10 10 10 11 11 11 11 11 12 13 13 12 12 12 12 13 13 14
27 26 25 23 23 22 22 21 21 20 20 21 20 20 22 23 21 19 18 16 15 15 15 14 12 12 12 12 13 14 15 15 15 15 16 15 15 15 15 15 16 17
25 25 24 25 25 25 23 22 20 20 20 20 19 19 22 23 23 23 23 21 20 19 18 16 15 14 13 13 13 14 15 16 16 17 17 17 16 17 17 17 18 19
24 26 27 26 27 26 25 24 23 22 21 20 18 18 18 20 22 24 26 26 26 25 24 21 19 19 17 14 12 12 13 15 16 17 17 17 16 17 18 20 21 21
26 28 27 24 24 26 28 29 28 27 24 20 18 18 19 21 22 23 24 27 30 30 29 27 24 20 16 13 11 12 13 14 16 17 18 18 17 18 19 21 22 22
24 23 21 19 21 24 28 30 31 31 31 27 23 22 21 20 20 20 22 25 30 30 28 27 24 18 14 12 13 14 15 16 17 17 18 19 19 20 21 21 22 23
20 20 20 21 23 25 27 29 30 30 30 29 26 24 21 18 19 21 23 24 24 23 22 22 22 19 15 15 16 18 20 22 22 20 20 21 21 21 22 22 22 23
14 15 17 19 21 23 24 26 26 25 24 23 23 23 22 21 21 22 23 22 20 18 18 18 19 19 18 19 20 22 25 26 27 26 25 25 24 24 23 23 24 24
12 12 12 13 15 18 20 22 23 24 24 24 23 22 20 18 17 16 16 16 16 16 16 17 17 18 20 21 23 25 28 29 30 29 28 28 28 27 25 25 26 27
12 13 14 15 16 17 18 20 20 20 19 19 18 17 15 13 14 15 15 16 17 18 19 19 19 20 22 23 25 27 28 29 30 30 30 31 31 29 28 28 28 29
16 17 18 19 20 20 20 20 19 17 16 16 16 16 16 17 18 19 19 20 22 23 23 23 23 23 24 24 25 26 28 30 31 32 32 33 32 31 30 29 29 31
19 19 18 18 19 20 20 20 19 18 18 19 19 20 21 22 23 23 23 25 26 27 26 26 26 26 27 27 26 27 29 31 31 31 32 33 32 31 31 31 31 33
20 19 17 16 18 20 20 20 19 19 19 20 20 21 22 24 25 26 27 28 30 30 28 27 27 28 29 29 30 30 30 29 29 30 31 32 31 31 31 32 33 35
21 19 17 17 17 18 18 18 18 18 19 19 19 19 20 21 23 24 25 27 29 29 29 28 28 28 29 29 29 29 28 27 28 29 29 30 31 32 33 35 36 36
22 20 19 18 18 17 17 18 18 19 20 21 21 22 22 22 24 25 26 27 28 28 28 28 28 28 27 27 27 26 25 25 26 26 27 29 31 34 35 37 37 37
23 21 20 20 19 20 20 20 19 20 22 23 24 24 25 25 25 26 27 27 27 27 27 26 25 25 24 24 25 25 25 24 25 26 26 28 31 33 35 36 37 38
25 24 23 22 22 22 22 21 20 20 21 24 25 25 26 26 27 27 28 27 27 26 26 25 24 23 23 24 25 25 26 25 26 26 27 29 30 31 33 35 37 37
26 26 25 26 25 25 24 22 20 20 21 23 25 25 26 27 28 29 30 30 29 28 27 26 25 24 24 25 25 26 27 27 27 28 29 30 31 32 34 35 34 34

ECMWFNIL_700_spd_012.txt.gz
Wind_Speed
19 12 7 5 5 4 4 2 2 3 4 5 7 9 10 11 12 12 12 12 12 12 12 11 12 12 12 12 12 12 12 11 11 10 9 8 7 6 5 4 3 3
22 14 11 9 7 6 5 5 5 5 5 6 8 10 12 13 14 15 15 15 15 15 15 16 16 16 16 16 16 15 15 14 14 13 12 12 11 10 9 8 7 7
23 17 13 11 9 7 6 6 7 6 6 6 7 9 10 12 14 15 16 16 16 16 16 16 16 16 16 16 15 15 14 14 13 13 13 13 12 11 11 10 9 9
24 19 15 14 12 10 9 8 7 7 7 6 6 7 8 10 11 12 13 13 14 14 14 14 14 14 13 13 13 12 12 12 12 12 11 11 11 11 10 9 9 8
24 20 17 18 17 14 13 12 10 9 8 7 6 6 7 8 8 9 9 9 10 10 11 11 11 11 10 9 9 8 8 8 8 8 8 8 8 8 9 8 8 8
25 23 20 21 21 19 17 16 14 13 12 10 8 7 6 6 6 7 7 8 8 7 7 7 7 6 6 5 5 4 4 4 4 4 4 4 4 5 5 6 7 7
28 25 23 24 23 22 20 19 19 17 16 14 12 9 8 6 6 6 7 7 7 6 6 5 5 4 3 3 3 2 2 1 1 1 1 2 2 3 4 5 6 7
28 26 25 25 24 24 23 23 23 20 18 17 14 12 9 8 8 8 9 9 9 8 8 7 7 7 6 6 6 6 7 7 7 6 6 6 6 6 7 7 8 8
30 29 29 26 24 24 25 25 25 22 20 19 17 15 13 11 10 9 10 11 11 12 11 11 12 11 11 10 10 10 10 11 11 11 11 11 10 11 11 11 11 11
33 33 30 28 28 28 27 27 25 22 21 21 19 18 16 15 14 13 12 11 12 13 13 13 14 14 14 14 14 13 12 12 12 13 13 13 12 13 13 13 13 13
35 34 32 30 32 32 29 27 25 22 21 20 19 18 18 18 18 17 16 14 13 14 15 15 14 14 15 16 15 15 15 14 14 14 15 14 14 15 15 14 15 15
32 31 32 30 30 31 29 27 25 24 21 20 18 18 18 18 17 17 17 16 15 16 20 21 18 17 18 19 20 20 19 18 17 17 17 17 17 17 16 15 15 16
27 29 32 32 31 30 28 26 26 25 24 22 20 18 17 17 17 18 19 19 17 16 19 22 22 21 22 24 27 27 23 19 19 18 18 18 18 19 18 17 17 18
24 27 29 28 29 29 27 26 26 25 24 24 22 20 17 16 18 21 23 23 23 22 21 21 21 21 21 24 28 29 24 20 19 18 17 17 17 18 19 19 20 20
19 22 22 22 22 24 24 23 20 19 20 21 21 18 16 16 19 22 22 22 22 23 23 21 19 18 17 17 21 26 26 24 22 19 17 17 17 17 18 19 20 21
11 13 15 15 15 17 19 17 14 14 16 17 17 16 15 16 18 20 21 21 21 20 19 17 16 15 14 13 15 19 23 25 25 24 23 22 21 22 21 20 20 22
8 8 9 10 11 13 13 12 11 12 13 14 14 15 16 17 18 19 20 19 18 16 14 13 12 11 12 13 14 16 18 21 22 24 25 25 25 25 25 23 23 24
9 8 8 9 9 9 9 9 10 11 12 14 15 16 16 15 14 13 13 13 12 12 12 11 12 13 14 16 17 18 20 21 22 23 25 26 26 27 26 26 27 28
9 9 9 8 8 10 11 12 13 14 14 15 15 14 14 13 12 12 13 13 13 14 14 15 16 17 18 19 21 22 23 24 24 25 26 27 28 28 28 28 29 29
12 12 12 12 13 14 15 15 15 15 15 14 14 14 14 14 15 16 17 18 19 20 20 20 20 20 21 23 24 25 26 26 25 26 27 28 29 29 29 30 30 30
17 16 17 17 17 16 16 16 16 17 16 15 15 15 16 17 17 18 19 21 22 22 22 22 22 23 24 25 26 26 26 27 27 27 28 28 29 29 28 29 31 31
20 19 19 18 17 17 16 16 16 16 16 15 15 16 16 17 18 18 19 20 20 20 20 20 21 22 23 24 24 25 26 26 27 27 27 27 28 28 27 28 29 30
21 20 19 18 17 17 16 16 16 15 15 15 15 16 17 18 19 20 20 21 22 22 21 21 22 23 24 24 24 25 26 27 27 27 27 27 26 26 26 27 28 29
22 21 20 20 19 18 18 18 17 17 17 17 18 19 19 20 21 22 22 23 24 24 24 23 23 24 24 24 24 24 25 26 26 26 27 27 27 26 26 26 27 29
24 23 23 22 22 22 22 22 20 20 19 20 20 21 22 23 23 24 24 25 26 25 25 24 24 24 25 26 25 25 25 26 27 27 27 28 28 28 28 28 29 30
23 23 23 23 23 23 24 25 24 23 22 22 22 22 23 24 25 25 24 25 26 26 26 25 25 26 27 27 28 28 28 29 29 29 29 30 30 30 30 31 31 32

ECMWFNIL_700_spd_015.txt.gz
Wind_Speed
24 23 22 20 14 8 6 4 3 3 2 2 2 2 2 2 3 4 5 5 7 8 8 9 9 8 7 7 7 6 6 6 5 5 4 3 3 3 3 2 2 2
25 25 25 23 16 9 6 4 2 1 1 3 4 5 5 5 5 5 6 6 7 8 9 10 10 10 10 10 10 10 10 10 10 9 9 9 9 8 8 8 7 7
25 25 26 26 18 10 7 6 5 4 4 6 7 8 8 8 8 8 8 10 10 11 12 12 13 13 12 12 12 12 12 12 12 12 12 12 12 11 11 10 10 9
24 24 26 27 22 13 9 8 7 6 6 7 8 9 10 10 10 10 10 11 12 12 13 12 12 12 11 11 11 10 11 10 10 10 10 10 10 10 10 9 9 8
24 25 26 28 24 15 12 10 9 8 7 8 7 8 9 9 10 10 10 10 11 11 11 11 10 10 9 9 9 8 8 8 8 8 8 8 7 7 6 6 6 6
25 29 30 29 22 14 14 13 11 10 9 9 8 8 8 8 8 9 8 8 8 8 8 8 7 7 6 6 5 5 5 5 4 4 4 4 3 3 3 3 3 3
23 31 34 31 22 16 16 15 15 13 11 11 10 9 8 7 7 8 7 7 7 6 5 5 4 4 3 2 2 1 1 1 1 1 1 1 2 3 3 4 5 5
20 28 33 31 24 19 18 17 19 17 15 14 12 11 10 9 8 7 7 7 7 6 6 6 5 5 6 6 6 6 6 6 6 6 6 6 6 6 7 8 8 8
17 22 29 30 27 23 21 21 23 21 19 18 15 14 12 10 9 9 9 9 8 8 8 8 9 9 9 10 10 10 11 12 12 12 11 11 10 10 10 10 10 11
17 20 26 29 29 26 25 27 26 25 24 22 20 18 16 13 12 12 11 10 9 9 9 9 10 10 10 11 11 12 13 13 14 15 15 15 15 14 13 13 13 13
18 21 25 28 28 27 29 32 30 28 27 25 23 21 20 19 19 17 16 14 12 10 9 10 10 10 10 10 12 13 14 15 15 16 17 18 18 18 17 17 16 16
18 21 24 27 29 30 34 37 35 33 32 30 27 24 23 22 21 21 20 17 15 13 13 13 12 12 12 13 14 15 16 18 19 20 21 22 22 22 21 19 18 18
19 21 23 26 30 34 38 39 37 35 35 34 31 28 27 25 22 20 18 14 13 15 17 15 14 15 16 17 20 20 20 22 24 25 26 25 25 24 23 22 20 19
20 22 25 28 30 34 37 37 37 36 35 34 32 30 30 26 21 19 18 17 16 17 18 16 15 17 19 20 22 23 24 28 30 30 29 28 27 26 25 23 20 19
19 22 27 30 29 32 36 36 35 36 36 34 31 28 26 24 21 19 18 20 20 20 21 19 17 17 20 23 23 24 26 28 30 31 30 28 28 27 26 24 21 18
18 19 22 23 24 26 28 27 24 25 28 29 27 22 21 22 21 19 20 21 21 20 20 20 17 15 18 22 23 23 24 22 22 24 26 28 28 29 27 25 22 21
17 17 17 17 17 16 16 15 14 13 15 19 19 19 21 22 19 18 20 21 19 18 17 17 16 15 17 19 18 18 17 16 15 16 19 24 26 28 29 28 27 27
16 16 15 15 13 11 11 11 10 10 11 13 15 18 22 22 17 16 18 18 17 17 15 13 13 13 15 15 15 15 15 15 16 16 17 20 22 25 27 28 30 30
17 16 16 15 14 12 12 11 11 11 11 12 13 14 16 17 16 15 15 15 15 15 13 11 12 13 15 15 16 17 18 19 19 19 20 21 23 24 26 27 28 28
17 17 16 16 15 14 13 13 12 12 12 12 13 13 14 15 15 15 15 14 13 12 12 13 14 15 17 18 19 20 22 23 23 23 24 25 25 26 27 27 27 28
19 19 18 17 16 15 14 14 14 14 15 15 15 15 16 16 16 16 16 15 15 14 15 16 17 19 21 22 23 24 25 26 26 27 27 27 27 28 28 28 28 28
21 20 20 19 18 17 16 16 16 17 17 18 18 18 19 19 19 19 19 19 19 19 19 19 20 21 22 23 23 24 25 25 26 27 27 28 28 28 28 28 28 28
22 22 21 20 20 19 18 18 18 18 18 20 21 22 22 23 23 23 23 22 22 21 21 21 22 22 23 23 23 23 24 25 26 27 28 27 27 27 27 27 27 27
24 24 24 22 21 20 20 20 20 20 20 21 22 23 24 24 24 24 23 23 23 23 23 23 23 24 24 24 24 24 25 25 26 27 27 26 26 26 26 26 26 26
25 25 24 23 22 21 21 21 22 21 21 22 23 23 23 23 23 23 23 23 23 23 23 24 24 25 25 25 25 26 27 27 28 28 28 28 28 27 27 27 28 28
25 25 24 23 23 23 23 23 23 23 23 24 24 24 25 24 24 24 24 23 23 22 23 23 24 24 25 26 27 28 29 29 30 30 30 31 31 30 30 30 30 30

ECMWFNIL_700_spd_018.txt.gz
Wind_Speed
25 19 14 12 12 14 14 12 11 10 7 6 5 4 2 1 2 3 3 3 3 3 3 3 3 3 3 3 3 3 3 2 2 2 2 2 2 2 2 2 2 2
26 21 16 13 12 13 14 14 12 9 7 4 4 3 1 2 3 4 5 5 5 4 3 3 3 2 2 2 2 2 2 3 3 4 4 4 5 6 6 6 6 6
24 20 18 16 14 13 15 16 12 7 4 3 3 2 2 4 5 6 7 8 8 7 7 7 6 6 6 6 6 6 6 7 7 7 8 8 8 8 8 8 8 8
20 18 20 21 18 16 18 17 11 6 3 1 1 1 3 5 8 9 10 11 11 12 11 10 9 9 8 8 7 7 7 7 8 7 8 8 8 8 8 8 7 7
17 16 19 24 21 19 21 18 11 8 5 3 2 3 6 7 10 11 12 12 12 13 12 11 10 9 9 8 7 7 6 6 6 6 6 6 6 6 6 5 5 4
15 13 16 22 23 22 24 18 13 11 8 7 5 5 6 8 10 11 12 12 12 12 12 11 11 9 8 7 6 5 5 5 5 5 5 5 4 4 3 3 2 1
12 11 13 20 23 24 22 15 14 14 12 11 9 8 8 8 9 11 11 12 12 12 12 11 10 9 7 6 4 3 2 2 2 3 3 4 5 5 5 5 5 5
11 11 14 19 22 22 18 13 16 17 15 15 13 12 11 10 11 12 12 13 12 12 11 10 10 9 8 7 5 4 3 2 3 3 4 5 6 6 7 8 8 9
11 11 12 15 18 20 18 16 18 19 18 18 17 15 15 14 14 14 13 13 13 12 12 11 11 10 9 8 6 5 5 5 5 6 6 7 7 8 8 9 10 11
12 11 10 10 13 18 20 19 21 22 22 21 20 19 19 18 17 16 15 14 13 12 11 11 10 10 9 9 8 7 7 7 7 7 8 9 9 10 10 11 12 12
14 12 10 8 11 17 21 22 23 25 25 25 23 23 22 22 21 20 19 17 15 14 13 12 12 12 12 12 11 10 8 7 8 9 10 11 12 13 14 14 15 15
16 14 11 9 10 16 22 24 26 26 26 27 28 27 26 25 24 22 21 20 19 18 16 15 15 14 14 13 13 13 12 10 10 11 13 14 15 17 18 19 19 18
17 15 12 11 12 16 21 25 27 28 29 30 32 33 31 29 27 25 23 21 20 20 18 16 16 15 15 15 16 16 16 15 15 15 16 18 19 20 22 22 23 23
17 15 14 14 15 16 21 25 27 29 31 33 36 37 35 31 31 30 27 24 23 23 20 19 19 19 19 20 19 18 18 19 19 17 18 21 23 24 25 26 26 24
18 17 17 18 19 20 22 25 28 30 31 32 36 40 39 35 34 34 31 26 25 24 21 19 20 21 22 22 19 18 19 20 21 19 18 20 23 25 26 28 27 24
19 19 19 20 21 22 24 26 28 30 31 32 34 37 39 38 38 38 33 26 25 26 23 20 20 21 22 21 19 19 20 21 23 21 19 20 21 21 23 25 26 24
20 21 21 20 21 22 23 25 26 28 31 32 32 33 35 36 38 39 35 28 28 31 27 22 21 21 21 20 19 20 21 22 22 20 18 17 17 17 18 21 23 23
22 22 22 21 20 20 21 21 22 24 26 26 25 26 28 28 30 33 32 29 31 32 26 20 18 19 19 19 19 20 21 21 19 17 16 16 16 16 17 19 20 22
21 21 21 20 20 20 20 20 20 20 21 20 19 19 19 20 24 27 27 26 26 23 19 16 17 19 19 19 19 19 19 18 16 15 15 16 17 17 18 19 20 21
20 20 21 21 21 21 21 20 20 20 19 19 18 16 15 17 20 22 23 22 20 17 17 18 19 19 18 18 19 19 18 17 17 17 18 19 19 20 21 22 23 24
21 22 22 23 23 23 22 21 21 21 20 19 17 16 15 16 17 18 19 19 18 17 18 18 18 17 17 18 19 20 19 20 20 22 23 24 25 25 25 26 26 26
24 24 25 25 24 24 23 23 23 22 21 19 18 17 17 16 17 17 17 17 18 18 18 19 18 18 19 20 21 21 22 23 25 26 27 27 28 27 27 27 27 27
25 26 26 27 26 25 24 24 24 23 21 19 18 18 18 18 18 18 18 19 19 19 19 19 19 19 20 21 22 23 24 25 26 26 27 27 28 28 28 29 29 28
26 27 26 26 26 25 25 25 25 23 21 20 19 20 20 19 19 19 20 20 20 20 20 20 20 20 21 21 23 24 24 25 26 27 27 28 28 29 29 29 29 29
27 28 27 26 25 25 25 24 24 23 23 22 22 21 21 21 21 21 21 21 22 21 21 22 22 22 22 23 24 25 26 26 27 27 28 29 30 30 31 31 31 31
28 28 27 25 24 24 24 24 24 24 24 24 24 23 23 23 23 23 23 23 23 23 24 24 24 25 25 26 26 26 26 27 27 28 29 30 31 32 32 32 32 32

ECMWFNIL_700_spd_021.txt.gz
Wind_Speed
23 25 25 23 24 27 24 18 15 12 11 12 11 9 8 6 4 3 2 3 3 3 2 2 2 3 3 4 4 4 4 4 3 3 2 2 3 3 3 3 3 3
23 23 23 23 25 24 20 16 14 11 11 10 9 8 6 3 2 3 3 4 5 4 3 3 4 5 6 6 7 7 7 7 6 6 5 5 5 5 5 5 5 5
21 21 21 21 22 18 15 16 15 12 11 9 6 6 4 1 3 4 5 5 6 6 6 7 8 10 11 12 12 12 12 11 11 10 10 9 9 9 9 8 7 7
14 15 16 18 18 15 14 16 15 12 10 7 4 3 2 2 4 5 7 7 8 10 11 12 12 13 14 14 15 14 14 13 13 13 12 11 11 11 10 9 8 7
9 11 13 15 15 14 15 17 16 12 9 7 4 3 3 4 6 7 9 10 11 13 14 14 14 14 14 14 14 15 14 14 13 12 12 11 10 10 9 8 7 6
9 10 10 11 13 14 14 17 16 13 10 8 5 5 6 7 9 9 10 11 12 13 14 14 14 14 14 14 13 13 14 13 12 11 11 10 8 7 6 5 5 4
7 8 9 10 11 12 12 15 16 14 14 12 8 8 8 9 11 11 11 11 12 13 13 13 14 14 14 13 13 13 12 12 11 10 9 8 6 5 4 2 1 1
5 6 8 10 11 11 10 12 14 15 17 16 12 11 10 10 12 13 13 13 13 13 13 13 13 13 13 13 12 12 11 10 10 9 8 6 5 4 3 3 4 4
6 6 7 8 9 10 9 10 12 15 19 19 16 15 14 12 13 14 15 16 16 16 16 15 15 14 13 13 12 11 10 10 9 8 8 7 6 6 6 6 7 8
9 9 8 8 8 10 9 11 13 16 19 20 19 18 17 16 15 15 15 16 17 17 17 17 17 16 15 14 13 12 12 11 11 10 10 9 9 9 9 9 10 10
12 12 11 9 9 10 11 13 16 19 20 21 20 20 19 19 18 18 17 18 18 18 18 18 17 17 16 16 16 15 15 14 13 13 12 11 11 11 11 12 12 12
14 15 14 12 11 11 12 14 17 20 22 22 22 22 22 22 21 21 21 21 21 21 20 19 19 18 17 17 17 17 16 16 15 13 12 12 12 12 13 14 14 14
16 17 17 16 15 14 14 15 17 20 23 24 25 25 25 25 25 25 26 26 25 24 22 21 20 20 19 19 19 18 18 17 16 15 14 13 13 14 15 17 17 17
17 18 19 19 18 16 15 15 17 20 23 25 26 27 28 28 28 30 31 30 27 26 24 22 21 21 21 21 21 20 20 19 18 17 16 16 17 18 19 20 20 20
17 18 20 21 20 19 17 16 17 20 24 26 28 28 29 30 31 33 34 34 32 29 27 25 24 24 24 24 23 22 22 22 21 20 20 20 20 21 21 21 21 21
18 18 19 20 20 20 19 18 18 21 25 28 30 31 32 33 35 35 36 37 37 34 31 30 29 28 27 27 26 25 25 24 23 21 22 23 22 21 21 21 21 20
18 18 18 19 20 20 21 21 21 22 25 28 30 31 33 35 37 39 38 38 38 37 37 36 34 33 33 31 29 27 27 26 24 22 22 23 22 20 20 20 19 18
20 19 19 20 21 21 22 22 21 23 24 26 27 28 30 33 35 37 39 38 37 37 39 40 39 39 37 32 28 26 27 26 24 23 23 22 20 19 19 19 18 16
21 21 21 21 22 22 23 22 22 22 23 24 24 25 26 28 29 31 34 34 34 35 37 40 41 41 37 31 28 27 26 24 24 23 22 20 19 19 19 19 17 16
22 22 22 22 22 23 23 23 23 23 23 23 24 24 24 24 24 25 27 28 30 31 33 35 39 40 38 34 30 28 25 24 24 22 20 18 18 18 18 18 17 17
24 24 25 24 24 23 23 24 24 24 24 24 24 23 23 22 22 22 22 24 25 25 26 28 32 34 33 31 27 25 25 25 23 21 19 19 19 19 19 19 20 21
26 27 28 27 26 25 25 25 26 26 26 25 24 23 22 22 21 21 21 22 22 21 22 25 27 26 24 24 24 24 24 24 22 20 20 20 20 21 21 22 23 23
27 28 29 29 28 27 26 26 26 27 27 26 24 23 22 22 22 21 21 21 21 21 22 24 24 22 19 21 24 24 24 23 21 21 21 21 22 22 23 24 24 25
24 25 28 29 29 29 28 27 26 26 26 26 24 24 23 22 22 21 22 22 21 21 21 21 21 21 20 21 23 24 23 23 22 22 22 23 23 23 24 24 25 26
22 23 25 27 29 30 30 29 28 27 26 26 25 25 24 23 22 22 22 23 22 22 22 22 22 22 22 23 23 24 24 24 24 24 24 23 23 23 24 25 26 27
23 23 23 25 28 30 31 31 30 28 26 27 27 26 24 23 23 23 22 23 23 23 23 24 24 24 24 24 24 25 25 25 25 24 24 23 23 24 25 27 28 29

ECMWFNIL_700_spd_024.txt.gz
Wind_Speed
18 19 19 19 20 22 23 22 21 20 17 13 13 12 9 7 6 5 4 4 5 6 6 7 7 8 8 9 10 10 10 11 11 11 11 11 11 11 11 11 10 10
18 19 18 16 18 21 21 19 18 16 12 11 12 12 9 6 5 4 4 4 5 6 6 7 7 8 8 9 10 10 11 12 12 12 12 12 11 11 10 10 9 9
15 16 15 14 16 18 17 16 14 12 11 11 12 11 8 5 4 4 4 5 5 6 6 7 7 9 9 10 11 11 12 13 12 12 12 11 11 11 10 10 9 9
13 13 13 13 14 14 14 13 12 10 11 12 11 9 7 4 3 4 4 5 5 6 7 8 9 11 12 12 13 14 15 15 15 14 13 13 13 12 12 11 10 10
11 11 9 10 11 12 12 11 10 11 12 12 9 7 5 3 3 4 5 5 6 8 9 10 11 12 13 13 14 15 16 16 16 16 15 15 14 13 12 11 10 9
11 10 9 10 10 11 11 9 10 13 13 12 8 6 4 3 4 5 6 7 8 10 11 11 12 13 13 13 14 15 15 16 16 16 16 15 14 13 11 10 10 8
9 10 10 11 11 11 10 10 12 14 14 12 9 6 5 5 6 6 7 9 10 11 12 12 13 14 14 14 14 14 14 15 15 14 14 14 12 12 10 9 8 7
6 8 9 10 11 10 10 10 12 14 15 14 11 8 7 8 8 9 9 10 10 11 12 13 13 14 14 14 14 13 13 13 13 13 12 12 11 11 10 8 8 7
6 7 7 8 9 8 9 10 12 14 16 16 14 12 11 11 12 12 11 11 11 12 12 12 13 12 12 12 12 12 11 11 10 10 9 9 9 9 9 8 8 8
7 8 9 9 8 7 8 10 13 15 16 17 16 16 15 13 14 14 14 15 14 13 13 13 13 13 12 12 11 11 11 11 10 9 9 9 8 8 8 8 8 9
9 10 11 11 10 8 8 10 13 16 16 17 18 20 19 17 16 16 16 17 17 16 16 16 15 15 15 14 14 13 13 13 12 12 12 12 11 11 10 10 11 11
12 12 13 13 12 11 9 10 13 16 17 17 20 23 22 20 19 19 18 19 19 19 19 19 19 18 18 17 17 16 16 15 15 15 15 15 14 13 13 13 13 13
13 14 15 14 13 12 11 10 12 16 18 20 21 24 24 23 23 22 21 21 20 20 21 21 21 21 21 20 20 20 19 19 19 19 18 18 17 17 16 15 16 15
14 15 16 15 14 13 13 12 12 15 18 21 23 25 25 25 25 25 24 24 23 23 23 23 24 24 24 23 23 22 22 22 22 21 21 20 20 19 19 18 18 18
13 14 15 16 15 14 14 14 14 15 18 21 24 26 26 27 27 27 27 27 27 27 27 27 27 27 27 27 26 26 25 24 24 24 23 23 23 22 22 21 21 20
12 14 15 16 16 16 16 15 15 16 18 20 23 25 27 28 29 29 30 30 30 30 31 31 29 29 29 29 29 29 29 28 27 27 26 25 25 24 23 23 23 22
11 13 14 16 17 18 18 17 17 17 18 19 21 24 26 28 30 30 31 32 32 33 34 34 33 32 32 32 31 31 32 31 30 30 29 28 27 26 25 25 24 22
12 13 14 17 18 19 19 19 19 19 19 19 21 22 25 27 29 30 31 32 34 35 36 37 37 35 34 35 35 35 34 34 34 33 31 30 30 29 28 27 23 19
13 14 14 16 18 20 21 21 21 21 21 20 21 22 25 27 28 30 32 34 35 37 38 39 40 39 38 37 39 41 40 38 38 37 36 35 33 30 26 23 19 17
15 15 16 16 17 20 22 22 23 23 23 22 22 23 25 26 27 29 32 34 35 36 37 39 40 41 40 38 38 42 45 44 42 41 40 37 33 29 24 20 19 18
19 19 19 19 19 20 21 23 24 25 24 24 24 24 25 25 26 27 28 30 31 32 33 34 33 34 34 33 32 36 43 47 46 44 41 34 27 24 22 20 19 18
24 24 24 23 22 22 22 24 25 25 26 26 27 27 26 26 26 25 25 26 27 28 29 28 27 27 26 25 26 28 34 41 44 43 39 31 23 20 20 20 20 19
27 26 25 25 25 25 25 26 27 27 27 27 28 27 27 27 27 26 26 25 26 26 27 26 25 25 23 22 22 23 26 30 32 32 29 24 20 20 21 21 21 21
26 25 25 25 25 26 27 27 28 29 30 30 29 28 28 28 28 27 27 27 26 26 26 26 25 24 22 20 20 20 20 21 23 23 22 20 20 21 22 21 21 21
28 28 27 27 28 28 28 28 28 28 30 31 30 30 31 30 28 27 27 28 27 26 26 25 25 24 21 19 19 20 19 20 22 22 21 21 21 21 21 20 21 21
32 31 30 30 30 30 31 31 30 30 30 31 31 32 32 32 30 28 28 28 27 25 24 24 23 22 20 19 19 20 21 21 22 22 22 21 21 21 21 21 21 21

ECMWFNIL_700_spd_027.txt.gz
Wind_Speed
12 14 15 16 18 19 20 20 21 20 17 17 15 11 8 8 9 8 7 6 6 6 5 4 5 6 8 8 8 8 8 7 8 9 10 10 10 10 10 10 10 10
12 15 17 18 20 21 20 20 21 19 15 14 12 9 8 8 8 7 6 5 5 5 5 6 7 8 8 8 8 8 8 8 8 8 9 9 10 10 10 10 10 9
12 14 16 19 20 20 19 20 19 16 13 11 8 8 8 7 7 6 5 4 4 4 5 7 8 9 9 9 9 9 9 9 9 9 9 9 10 10 11 11 10 9
12 13 16 18 19 19 19 18 16 12 11 10 7 7 8 6 6 5 4 4 4 5 6 7 8 9 10 10 10 9 9 10 10 10 10 10 10 10 11 10 10 10
13 12 14 16 15 15 15 14 13 12 11 9 6 7 7 5 5 4 3 4 5 5 6 7 8 9 10 10 10 11 11 11 11 11 11 11 12 12 11 11 10 10
15 12 13 14 12 11 12 12 12 11 10 8 6 7 5 5 4 3 4 4 5 6 6 7 8 9 10 11 11 12 13 14 14 14 13 13 13 13 12 11 11 10
12 9 11 12 12 12 12 12 11 10 10 8 7 7 5 5 5 4 5 5 6 6 7 7 8 8 9 10 11 11 11 12 13 13 13 13 12 12 11 10 10 9
7 7 9 11 11 11 10 10 11 10 10 9 9 7 6 6 6 6 6 6 7 8 8 8 8 9 9 9 9 9 9 9 9 10 10 10 10 10 9 8 7 6
4 7 8 9 11 10 8 10 11 10 10 11 10 8 8 8 8 7 8 8 8 8 9 9 9 9 9 9 9 9 8 7 6 6 6 6 6 6 6 5 4 4
5 6 7 9 10 9 8 9 10 10 11 12 12 10 10 10 10 9 9 9 9 10 10 10 10 10 10 10 9 8 8 7 6 6 6 5 5 4 4 4 4 5
6 7 7 8 10 10 9 9 10 10 11 13 13 13 13 13 12 12 12 12 12 11 11 11 12 12 11 10 10 9 9 8 8 7 7 7 7 7 7 7 8 8
8 9 9 9 10 10 10 10 10 10 11 12 13 14 14 15 15 14 14 14 14 14 14 14 14 14 13 13 12 12 11 11 11 10 11 11 11 11 12 12 12 12
10 10 10 11 11 11 11 11 10 10 10 12 13 14 15 17 18 18 16 16 16 17 17 17 17 17 17 16 16 15 15 14 14 14 14 15 15 15 16 16 16 17
10 9 9 10 10 11 12 11 11 10 11 12 13 14 16 17 19 21 20 19 18 18 19 19 20 21 21 20 19 19 18 18 18 18 18 19 19 20 21 20 21 21
10 9 9 9 9 11 11 11 11 11 12 13 13 15 17 18 19 21 22 22 21 21 21 22 22 23 23 23 22 22 21 21 22 21 22 23 23 24 25 25 25 25
11 11 11 10 10 11 11 11 11 11 12 14 15 16 18 20 21 21 22 24 24 24 25 25 25 25 25 25 25 25 24 25 25 25 26 27 27 28 29 29 29 28
13 13 13 12 11 11 11 12 12 13 13 14 16 18 20 22 24 24 24 25 26 27 27 27 28 28 28 27 27 27 27 28 29 29 29 30 30 31 32 33 33 30
15 14 14 14 13 12 13 13 14 15 15 15 17 19 21 24 26 26 27 28 29 30 31 30 30 31 30 30 30 30 30 30 31 33 33 33 33 33 34 36 36 32
15 14 14 15 15 15 16 15 15 16 17 18 19 20 21 24 25 25 26 29 30 32 33 33 34 33 32 32 33 32 32 32 33 35 36 36 37 37 37 37 36 34
14 14 14 14 15 16 17 17 18 18 19 20 21 22 22 23 24 24 26 29 29 31 33 35 36 34 32 32 33 33 33 33 35 37 37 38 40 40 40 39 37 36
14 14 15 15 16 16 17 18 20 21 22 22 23 24 25 25 26 26 27 29 29 31 33 35 36 34 32 32 34 35 36 35 36 38 38 40 42 43 42 42 40 38
16 17 18 18 19 20 20 21 22 23 25 25 25 25 25 26 26 27 28 28 29 30 32 33 35 32 30 30 32 34 35 34 34 36 36 38 41 42 42 42 41 40
19 20 21 22 22 23 24 25 25 25 25 27 29 28 27 27 27 28 28 28 29 30 30 31 32 29 25 27 29 30 30 28 29 31 31 32 34 36 38 39 40 41
23 24 25 26 26 26 27 28 28 27 26 27 29 30 31 31 31 31 31 29 30 30 30 31 30 26 23 24 26 26 26 25 25 27 27 27 27 30 34 36 35 35
28 28 29 29 29 30 31 31 31 31 30 30 30 30 31 33 34 34 33 32 32 32 32 32 32 29 25 24 25 25 25 24 25 25 24 24 25 26 27 25 22 20
31 31 32 32 32 32 33 33 33 33 34 34 33 32 32 33 35 36 36 35 35 35 34 34 34 30 25 24 25 25 25 24 24 23 24 24 22 20 18 16 16 15

ECMWFNIL_700_spd_030.txt.gz
Wind_Speed
11 12 13 13 12 12 13 15 18 20 21 21 16 11 7 5 4 4 5 6 7 6 5 4 3 4 4 4 5 6 5 5 6 8 9 10 10 9 9 10 10 10
13 12 15 15 14 13 14 16 17 19 19 16 11 8 6 5 4 4 5 5 5 5 5 4 3 3 3 3 4 6 5 5 5 6 7 9 9 8 9 10 10 11
15 13 15 16 15 14 15 15 15 16 14 12 9 8 7 5 4 3 4 4 4 4 4 4 3 3 3 3 4 5 5 5 6 6 6 7 8 8 9 10 10 9
15 14 15 16 15 15 13 11 11 11 10 10 9 8 7 6 4 3 2 3 3 3 2 2 2 3 3 3 4 4 5 6 7 6 7 7 8 8 8 9 9 9
14 15 15 14 13 12 10 8 8 8 8 9 8 7 6 5 3 2 2 2 2 1 1 1 0 1 2 2 4 5 5 6 6 7 8 8 9 9 9 9 9 9
17 17 16 14 11 9 7 7 6 7 8 7 6 6 5 3 2 2 2 2 2 2 2 2 2 2 2 2 3 4 5 6 7 8 8 8 9 9 9 9 9 9
16 16 15 13 10 7 6 5 5 7 8 7 6 5 4 3 2 2 2 3 3 3 4 4 4 3 3 3 3 4 5 6 7 7 7 8 8 8 8 9 10 10
13 13 12 10 9 7 4 3 4 6 8 7 7 6 4 3 3 3 3 3 3 3 4 4 4 4 4 4 4 5 5 5 5 6 7 7 7 8 9 9 10 10
10 10 10 9 7 5 3 3 4 5 7 7 6 6 5 3 4 5 4 3 3 3 4 3 4 4 4 4 5 6 5 5 5 6 7 8 8 9 9 9 9 8
8 8 8 8 6 4 3 4 4 5 6 6 6 5 5 3 4 6 5 4 4 4 3 3 3 4 4 5 6 6 6 6 6 7 7 7 7 7 6 6 6 5
8 7 7 7 6 5 4 5 5 5 5 6 6 5 5 4 4 6 6 5 5 5 5 4 4 4 5 6 6 6 7 6 6 6 5 5 4 4 3 3 2 3
8 7 6 6 5 5 5 6 6 6 5 5 5 5 5 5 5 6 8 7 7 8 7 6 6 7 7 7 7 7 7 6 6 5 5 5 4 4 5 5 5 5
8 7 6 6 6 5 6 6 6 7 7 7 6 5 5 6 6 7 9 10 10 10 10 9 9 10 9 9 10 10 9 9 9 8 8 9 9 9 9 9 10 11
8 7 6 5 5 5 5 5 6 7 8 8 8 7 6 6 8 9 10 11 12 12 13 13 13 13 13 13 13 13 13 12 12 12 12 13 13 13 14 13 15 17
7 6 6 5 5 5 5 5 6 6 7 8 9 8 7 7 9 10 11 12 14 15 15 15 15 16 16 16 17 17 16 16 16 16 17 17 17 18 18 18 20 22
7 6 6 6 6 6 6 6 7 6 7 8 10 10 9 8 9 11 12 13 15 16 18 18 18 18 18 18 19 19 20 20 20 20 21 21 21 21 22 24 25 24
8 8 8 7 7 7 8 8 9 8 8 10 11 11 11 11 12 13 14 15 16 18 20 20 20 20 21 21 21 22 22 23 23 24 24 25 25 25 27 29 29 28
9 9 9 10 10 10 10 10 10 10 10 11 13 12 12 14 15 16 16 17 19 20 22 22 21 21 22 22 22 24 24 25 26 27 27 28 29 30 31 33 32 31
11 11 12 12 12 12 12 11 12 12 12 13 14 14 15 16 17 17 17 18 19 21 24 26 24 23 23 23 23 25 26 27 28 29 30 31 32 33 35 35 33 31
13 13 14 14 15 15 14 13 13 14 14 15 15 15 16 17 17 18 19 19 19 20 24 27 27 26 26 24 24 25 27 28 29 31 33 33 34 37 39 36 32 29
14 14 14 15 16 16 15 14 14 15 15 17 17 18 18 19 20 20 21 21 21 22 25 27 27 27 26 25 25 27 29 30 31 33 34 35 37 37 37 35 32 31
15 15 15 16 17 16 16 16 17 16 17 18 19 21 22 22 23 23 23 24 24 25 27 27 27 26 25 25 26 28 30 31 32 33 35 38 38 35 34 35 34 33
16 16 16 16 17 17 18 19 19 19 19 20 22 23 24 26 27 26 26 26 26 27 28 29 28 27 25 25 25 27 28 30 31 31 34 36 36 34 33 33 31 30
17 16 17 17 19 20 21 22 22 22 23 25 26 27 28 29 30 31 31 30 30 29 29 30 30 29 27 26 25 25 27 28 28 29 31 35 35 34 32 30 28 28
18 19 20 22 23 24 25 26 27 27 28 29 31 32 32 33 33 33 33 34 34 33 31 30 31 30 29 28 26 25 26 26 27 28 32 35 35 33 31 29 28 29
22 24 25 27 28 29 30 31 31 32 32 33 33 34 34 35 35 35 35 34 35 36 35 34 33 32 31 29 27 27 27 28 29 32 35 36 34 33 33 31 29 29

ECMWFNIL_700_spd_033.txt.gz
Wind_Speed
18 13 10 12 11 10 10 10 11 12 12 11 8 5 2 2 3 3 1 1 1 3 4 4 3 2 4 6 7 7 6 4 4 5 5 6 7 8 8 8 7 8
19 15 12 12 11 10 10 11 12 12 10 7 4 2 1 2 3 3 2 2 2 3 4 3 2 2 4 6 6 6 5 3 3 3 4 5 5 6 6 7 7 8
19 16 14 12 11 10 10 10 11 10 8 5 4 3 2 2 3 4 3 2 2 3 3 3 3 4 6 6 6 5 6 5 4 4 4 5 6 5 5 7 9 10
18 18 16 13 11 10 9 8 7 7 6 5 5 4 3 3 3 4 3 2 2 3 3 4 4 5 6 7 7 7 7 7 6 6 6 6 6 6 5 6 9 11
17 19 17 14 11 10 7 6 5 4 4 4 4 3 3 3 3 3 3 2 3 3 3 3 4 5 6 7 7 7 7 7 8 8 7 7 8 8 8 8 9 10
17 19 17 14 12 9 7 6 4 3 3 3 3 2 2 3 3 4 3 3 3 2 2 3 3 4 5 6 6 6 7 8 8 8 8 8 8 9 10 10 9 9
19 18 16 14 12 9 7 6 4 3 2 2 1 1 1 2 4 4 4 3 3 3 3 3 3 4 4 4 4 5 6 6 7 7 7 7 8 9 10 10 10 10
19 17 16 15 13 11 9 6 4 3 2 1 1 1 1 3 5 5 5 5 5 5 5 5 5 5 5 4 4 4 4 5 6 6 6 7 8 9 11 12 13 12
17 16 16 15 13 11 10 7 5 4 2 2 2 3 2 3 5 6 5 6 7 7 7 7 7 6 6 5 5 6 6 5 6 7 8 9 11 11 13 14 14 14
17 16 14 13 11 11 10 8 6 4 3 3 3 4 4 3 6 7 6 7 7 8 8 8 8 7 7 6 7 8 8 7 7 9 10 12 12 12 13 13 13 12
16 14 13 12 11 10 10 8 7 4 3 3 3 4 5 5 6 7 7 7 8 8 8 8 9 8 7 7 8 9 9 9 8 9 9 10 10 10 10 9 9 9
19 18 16 14 12 10 9 9 7 5 3 3 3 4 5 5 6 7 8 8 8 8 8 9 9 9 9 8 8 9 9 8 9 8 8 8 7 7 6 6 5 5
20 18 16 15 14 11 9 8 7 5 4 4 3 3 4 5 6 7 8 9 10 10 10 9 9 10 10 9 9 9 8 8 8 8 7 7 6 6 6 6 5 4
16 13 13 14 14 11 8 7 6 6 5 5 4 3 3 4 5 6 7 9 10 11 11 11 10 10 10 10 11 10 10 10 9 9 9 8 8 9 9 10 9 8
15 12 12 13 10 8 7 6 5 5 5 4 3 3 2 3 4 5 6 7 8 10 12 12 12 12 12 12 13 13 13 13 13 13 13 12 12 13 14 14 13 12
11 10 10 10 9 8 7 7 6 5 5 3 2 3 3 3 3 3 4 5 7 8 9 10 11 12 13 13 14 15 16 16 17 17 17 17 17 18 19 19 18 18
8 10 11 9 8 8 8 7 6 6 4 3 3 3 3 3 4 4 5 7 8 8 9 9 9 10 12 14 15 17 18 18 19 19 20 20 20 22 23 23 22 22
11 11 12 12 10 10 10 9 7 6 5 5 4 4 4 5 5 6 7 8 9 10 11 11 10 10 12 14 15 16 18 19 20 21 22 23 24 26 27 26 24 24
13 11 11 11 11 11 12 11 9 7 7 6 6 6 6 6 7 7 8 9 10 11 12 12 12 12 13 14 16 17 18 19 20 22 23 25 27 29 28 27 26 26
15 13 11 11 10 10 10 10 9 8 8 8 8 8 7 8 9 9 10 11 11 12 13 13 13 13 14 16 17 18 20 20 20 22 24 27 28 28 28 28 28 27
15 14 12 12 11 11 11 10 9 9 10 11 10 10 10 10 11 11 12 13 14 15 15 15 15 15 15 16 18 20 21 22 22 23 26 28 29 29 28 28 29 29
14 13 12 12 12 12 12 12 11 11 12 13 13 13 13 13 14 14 15 16 18 18 19 18 18 17 17 17 18 20 22 23 24 25 28 30 31 31 30 30 30 30
17 16 15 15 14 14 14 13 13 13 15 16 16 16 17 17 17 18 19 20 21 22 23 22 21 20 21 20 20 20 22 23 24 26 29 32 33 33 33 33 32 31
18 18 18 17 17 18 18 17 17 17 17 19 19 20 22 22 23 23 23 23 24 25 26 27 25 24 25 24 23 22 23 24 25 27 29 32 35 35 34 35 35 33
20 20 21 21 20 21 21 21 21 21 21 22 23 25 26 27 28 28 28 28 29 30 31 32 31 29 28 27 26 25 24 25 26 28 30 32 34 35 36 37 36 33
24 24 25 24 24 25 25 26 26 27 27 28 28 29 30 30 31 31 32 33 33 34 35 35 34 32 29 27 26 26 26 26 27 29 31 32 33 35 36 37 36 34

ECMWFNIL_700_spd_039.txt.gz
Wind_Speed
19 16 15 16 15 13 12 11 11 11 11 12 12 9 7 6 5 6 6 4 4 5 5 6 7 8 9 10 11 12 12 11 10 11 12 12 13 13 14 14 13 13
20 19 18 19 18 15 12 11 11 10 11 12 11 8 6 6 6 6 6 4 4 5 5 6 7 7 8 9 10 10 10 9 9 10 11 11 11 11 11 11 12 12
22 20 20 20 18 14 12 11 10 10 11 11 11 9 8 8 8 7 7 6 5 5 5 6 7 6 7 8 8 8 8 7 7 8 9 10 10 9 9 9 9 9
22 21 21 20 18 15 12 10 10 10 10 11 11 10 10 10 10 9 8 7 6 5 5 6 6 5 6 7 6 7 7 6 6 6 8 10 10 9 9 9 8 8
23 22 22 21 19 17 13 11 11 10 10 11 11 11 10 9 9 9 8 7 5 5 5 5 6 5 6 6 6 7 7 6 6 6 8 10 10 10 10 9 8 8
27 25 23 20 19 18 15 13 12 11 11 11 11 11 10 8 8 8 7 5 5 5 5 6 5 5 5 6 6 6 7 7 6 6 7 8 8 8 8 8 8 7
28 26 23 21 20 19 17 15 13 13 13 12 13 13 11 9 8 7 6 5 5 5 6 6 6 7 7 6 6 6 7 7 6 6 6 6 7 6 6 6 6 6
28 25 23 23 23 21 18 16 15 15 14 14 14 14 13 10 9 7 6 5 5 7 8 8 8 9 8 7 7 7 8 8 7 7 6 6 6 6 5 5 5 5
29 27 25 25 24 22 19 17 16 16 15 14 14 14 13 11 9 7 6 6 7 8 9 9 9 10 9 9 8 8 9 9 9 8 8 7 7 6 6 5 5 4
31 29 26 25 23 22 20 18 17 17 15 13 13 13 12 11 9 7 7 7 8 9 10 9 9 10 10 9 9 9 9 9 10 10 10 9 9 8 7 6 5 5
31 29 26 24 24 23 22 19 19 18 15 13 12 12 12 11 9 8 8 8 9 10 10 10 10 10 10 10 9 9 9 9 9 10 10 10 10 9 8 8 7 7
31 30 28 25 24 24 22 20 20 20 18 14 12 12 12 10 9 9 8 8 9 10 10 10 10 11 11 10 10 9 9 9 9 9 10 10 11 10 9 9 8 8
28 28 30 28 24 22 21 20 20 20 19 15 12 12 12 11 10 9 9 9 10 10 10 11 11 11 11 10 10 10 9 9 9 8 9 9 10 10 10 9 8 7
22 22 23 23 21 20 19 19 18 19 19 15 13 13 13 12 12 11 11 12 12 12 11 11 11 11 11 10 10 10 9 10 9 9 8 8 8 9 9 9 8 8
18 16 15 17 18 19 19 19 19 20 19 15 13 13 14 14 14 14 14 14 13 12 12 11 11 11 11 11 11 11 10 10 10 10 10 9 8 8 8 9 9 9
17 15 16 17 17 18 19 19 20 21 19 16 14 14 15 16 16 15 15 15 15 14 13 13 13 12 12 13 13 13 12 12 12 12 12 12 11 11 11 11 11 11
18 17 17 17 15 16 18 19 20 21 19 17 16 15 16 17 17 16 16 16 16 16 15 15 15 15 15 15 15 15 15 15 15 15 15 15 15 15 15 15 15 16
19 18 17 15 14 16 18 19 20 20 19 19 19 17 17 18 18 17 17 16 17 17 17 17 18 18 18 18 18 18 18 18 18 18 18 18 18 18 18 19 19 19
18 19 18 16 15 15 18 19 18 18 20 21 21 19 19 19 18 18 17 17 17 18 18 19 20 20 20 20 20 20 20 21 21 21 21 21 21 21 21 22 22 22
15 16 16 15 15 14 15 17 17 18 20 22 21 20 20 19 19 18 18 18 18 18 19 19 20 21 21 22 22 23 23 23 23 24 24 24 24 24 25 25 25 25
14 14 14 14 14 14 14 15 16 17 18 19 20 20 20 20 20 19 19 19 19 19 19 19 20 20 21 22 23 23 24 25 26 26 27 27 27 27 27 28 28 28
14 13 13 13 14 14 14 15 16 16 16 17 19 19 19 19 19 19 19 19 19 19 19 19 20 20 21 22 23 23 24 25 26 27 28 28 29 29 29 29 30 31
15 14 15 15 16 17 17 17 18 18 19 19 20 20 20 20 20 20 21 22 22 22 22 21 21 22 23 23 24 24 25 25 26 27 27 28 28 28 29 30 30 31
17 18 18 19 19 20 20 20 20 20 21 21 21 22 22 22 22 23 24 25 25 26 26 25 25 25 26 26 26 27 27 27 27 28 28 28 28 29 29 30 31 31
22 21 21 21 21 22 22 22 22 21 21 22 22 23 24 25 25 26 27 28 28 28 29 28 27 27 28 29 29 29 30 30 30 31 32 31 31 31 32 34 34 34
23 23 22 22 22 22 23 23 24 24 24 25 25 26 27 27 28 28 28 29 30 30 31 31 30 29 29 30 31 32 33 33 34 35 35 35 35 36 36 38 38 38

ECMWFNIL_700_spd_042.txt.gz
Wind_Speed
21 18 15 13 10 9 8 7 6 6 8 10 12 13 13 11 8 6 5 5 6 6 7 7 7 7 7 8 9 10 10 10 9 9 10 11 11 11 12 11 11 11
21 18 16 14 11 10 9 8 6 6 8 10 11 12 12 10 8 5 4 4 5 6 7 7 7 7 7 8 9 10 10 10 10 10 10 10 11 12 13 13 12 12
21 19 17 14 12 11 10 9 7 7 8 9 10 12 12 11 9 6 4 5 6 6 7 8 7 7 8 8 9 10 10 10 10 9 8 8 9 10 12 13 13 13
21 20 18 15 13 12 12 10 9 9 9 9 10 12 12 12 11 8 6 6 7 7 7 8 7 7 7 8 8 9 10 10 8 7 7 7 8 9 10 11 11 11
22 21 19 18 16 15 13 11 10 10 10 9 10 12 13 13 12 10 7 7 7 8 8 8 7 6 7 7 8 9 9 9 8 7 6 6 8 9 9 10 10 9
22 22 21 20 18 16 15 14 13 12 11 10 11 12 13 13 12 10 8 7 7 8 8 8 7 6 7 7 7 8 9 9 8 6 6 7 9 9 9 9 10 9
23 23 22 21 19 17 17 17 16 15 14 13 12 12 13 14 13 11 9 8 8 8 8 8 7 7 7 8 8 9 9 9 8 6 6 7 8 9 9 9 9 9
24 23 23 22 19 18 18 19 19 18 17 16 15 14 14 14 13 12 10 8 8 8 8 8 8 8 8 8 8 9 9 9 8 7 7 8 9 9 10 10 10 10
25 24 23 22 20 18 19 20 20 20 19 18 17 15 15 15 14 12 10 9 8 8 9 8 9 9 9 9 9 9 10 10 10 9 9 9 10 11 11 11 11 11
26 25 24 23 22 20 20 22 21 20 19 18 17 16 16 15 14 12 11 10 9 9 9 9 10 10 9 9 10 10 11 11 11 10 10 11 11 11 12 13 13 13
26 26 25 25 24 23 24 24 23 21 20 18 17 17 17 16 14 12 10 9 9 9 9 9 10 10 9 9 9 10 10 10 10 10 10 10 10 10 11 11 12 13
26 27 27 27 27 27 26 26 25 23 21 20 18 17 17 16 14 12 10 9 9 9 9 8 9 9 9 8 9 9 10 9 9 9 9 9 9 8 8 9 10 12
26 27 28 29 30 30 28 28 28 25 23 21 19 18 17 16 15 12 10 9 9 9 8 8 9 9 9 9 9 9 9 8 8 7 7 8 8 8 8 8 9 11
25 26 28 29 31 32 30 29 28 27 25 22 19 18 17 16 14 12 10 10 9 9 9 9 10 10 10 10 10 10 9 9 9 8 8 8 8 8 8 9 9 10
27 29 30 31 33 33 29 28 29 27 24 22 19 17 16 15 13 12 11 11 11 11 11 11 12 12 11 12 12 11 11 10 10 9 8 8 8 8 8 8 9 9
26 29 30 31 32 29 23 22 24 22 20 20 18 16 15 13 12 12 12 12 13 13 13 13 13 13 13 13 12 12 11 11 11 10 10 10 9 9 8 8 8 9
20 20 19 18 19 18 16 16 18 18 19 19 19 17 15 14 13 12 13 14 15 15 16 16 16 16 15 15 14 14 13 13 13 13 12 12 12 11 11 10 10 10
12 11 10 9 11 14 14 14 16 18 19 19 19 19 17 16 15 14 14 14 16 17 18 19 19 19 18 18 17 17 16 16 16 15 15 15 15 14 14 14 14 13
8 8 9 10 11 12 13 13 15 17 17 19 20 20 19 19 18 17 16 16 16 18 19 20 21 21 21 21 21 20 20 19 19 19 18 18 18 17 17 17 17 17
9 8 9 10 10 10 11 12 14 15 16 18 20 20 21 21 20 19 18 17 17 18 19 21 22 22 23 23 23 23 23 22 22 21 21 21 21 21 21 21 21 21
9 8 9 10 10 11 11 12 14 15 16 17 19 20 21 20 19 19 19 18 17 17 18 20 21 22 23 23 23 23 23 23 23 23 23 23 23 24 24 24 25 25
10 9 10 11 12 12 13 13 14 15 16 17 18 19 20 19 19 19 19 19 19 19 19 20 21 22 22 23 23 23 23 23 24 24 24 25 25 26 27 27 28 29
10 11 12 12 12 13 14 14 14 15 16 17 17 17 18 19 20 21 21 21 21 21 22 22 23 24 24 24 24 24 24 24 24 24 25 25 25 26 27 28 29 30
11 12 12 12 13 13 14 14 14 15 16 17 17 18 18 20 21 22 22 22 23 24 24 25 25 25 25 25 25 25 25 26 26 26 26 26 26 27 27 28 29 30
12 12 12 12 12 13 14 15 15 16 17 18 18 19 20 21 22 23 23 24 25 26 27 27 27 28 28 29 29 29 29 29 29 29 30 30 30 30 30 30 30 31
12 12 12 13 14 15 17 18 18 18 19 19 20 21 21 22 23 24 25 26 27 28 28 29 29 30 31 32 33 33 33 33 33 34 34 34 34 34 34 34 33 34

ECMWFNIL_700_spd_045.txt.gz
Wind_Speed
24 22 19 17 14 12 11 9 7 5 4 2 2 3 5 7 7 6 5 4 3 2 3 3 4 5 6 7 7 6 7 8 9 9 10 10 10 10 10 10 10 11
23 21 18 16 14 12 11 9 7 5 3 2 2 3 5 7 6 5 5 4 3 4 4 4 4 5 7 7 7 6 7 8 9 10 11 11 11 11 11 11 11 12
22 19 18 17 15 12 10 8 7 6 4 3 3 4 6 7 7 7 6 5 4 5 6 6 6 6 7 7 7 7 7 9 10 10 10 11 10 10 12 12 12 13
22 21 19 18 16 12 9 8 8 8 6 5 5 5 7 8 8 8 8 6 5 5 7 8 8 8 8 7 6 7 8 9 9 9 9 8 8 9 11 12 13 14
24 23 20 18 15 13 11 10 10 9 8 7 8 7 8 9 9 9 9 8 7 6 7 8 8 9 9 8 6 7 7 8 8 8 8 7 6 8 9 10 12 13
24 23 20 18 16 14 13 13 11 9 8 9 9 9 9 9 10 9 9 8 8 7 7 8 8 8 8 8 7 7 7 8 8 8 8 6 6 8 9 9 10 11
25 23 21 19 18 15 15 14 12 10 10 10 10 11 11 11 10 10 9 8 8 8 8 8 7 7 7 7 7 8 8 9 9 9 8 7 8 10 11 11 11 11
25 23 22 20 19 17 16 15 13 12 11 10 11 11 12 12 11 11 10 9 8 8 9 8 8 7 7 8 8 9 9 9 9 9 8 8 10 12 12 13 13 13
24 24 23 22 20 19 17 16 15 13 12 11 11 12 12 12 11 11 11 10 9 8 9 8 8 7 7 8 9 9 9 9 9 9 8 9 12 13 13 14 14 14
24 24 23 23 22 20 19 17 16 15 14 13 13 14 13 12 11 11 10 10 9 9 8 8 8 8 7 8 9 9 9 9 9 9 9 10 12 13 14 14 15 15
25 25 25 25 23 21 20 19 18 17 16 16 16 16 15 13 12 10 10 10 9 9 8 8 8 8 8 8 9 10 10 9 10 10 9 10 12 13 13 14 15 15
26 27 26 24 22 21 21 20 20 19 18 18 18 17 16 15 13 11 10 10 9 8 8 8 8 8 8 9 10 11 10 10 10 10 10 11 11 12 13 14 14 15
24 25 22 20 20 23 24 23 22 21 20 19 19 18 17 16 15 12 10 9 9 8 8 8 8 8 8 9 10 11 11 10 10 10 10 11 12 13 13 13 14 15
21 22 22 21 22 24 25 25 25 24 22 20 20 19 19 17 16 13 10 8 9 9 9 9 9 8 8 9 9 10 10 10 10 9 10 10 12 13 13 13 14 15
20 21 22 23 22 23 25 26 26 26 25 24 23 22 21 20 17 13 10 8 9 9 10 10 10 9 9 9 10 10 10 10 10 10 10 11 11 12 13 13 14 15
22 22 22 21 20 21 24 25 24 25 26 25 25 25 24 22 18 13 10 9 9 10 10 10 10 9 9 10 11 11 11 11 11 11 11 12 12 12 13 13 14 15
21 21 22 22 23 24 26 26 26 27 25 23 23 22 20 19 16 12 10 9 9 10 10 10 10 10 11 11 12 12 12 12 12 13 13 13 13 13 14 14 15 15
21 21 21 21 22 24 25 26 25 23 20 17 16 16 15 15 15 12 10 10 10 10 10 10 11 11 12 13 13 13 13 13 13 13 14 14 14 15 15 16 16 16
17 16 13 11 12 14 15 16 16 14 14 14 14 14 15 15 15 13 12 11 11 11 11 11 12 13 13 14 15 15 15 15 15 15 15 15 15 15 16 16 17 17
10 10 9 8 9 9 10 12 13 12 11 12 13 15 16 16 16 15 13 13 13 13 13 13 13 14 14 15 16 17 17 17 17 17 17 17 17 17 17 17 18 18
8 8 8 9 10 10 10 12 13 12 11 12 13 15 16 17 17 16 15 15 15 15 14 14 15 15 16 16 17 18 19 19 19 20 20 20 20 20 20 20 20 21
8 8 9 10 11 11 12 13 13 13 13 13 14 16 16 17 17 17 17 17 17 17 17 16 16 16 17 17 18 19 19 20 21 22 22 23 23 23 23 24 24 24
9 9 9 10 12 13 13 13 13 13 14 15 15 16 17 17 18 18 19 19 19 19 19 18 18 19 19 19 20 20 21 21 22 23 24 24 25 26 26 26 27 28
7 8 8 8 10 11 12 12 12 13 14 14 15 16 17 18 19 19 20 21 21 21 21 21 21 22 22 22 22 22 22 23 24 25 25 26 26 27 28 28 29 30
4 5 6 7 9 9 10 11 12 13 13 15 16 17 17 18 19 20 21 21 22 23 23 24 24 24 24 24 24 24 24 25 26 26 27 28 28 28 29 29 30 30
6 7 8 9 10 9 9 10 10 11 12 14 16 17 18 18 19 20 20 21 22 23 24 24 25 26 26 26 27 27 27 28 29 29 29 30 30 31 31 31 31 32

ECMWFNIL_700_spd_048.txt.gz
Wind_Speed
25 25 24 24 23 20 18 16 14 11 9 7 5 3 2 2 2 1 1 2 3 4 6 6 6 6 5 6 6 7 8 9 10 10 12 12 12 12 12 12 13 13
26 27 25 24 23 21 18 16 13 11 9 7 5 2 2 3 3 3 2 1 2 3 4 5 5 5 5 5 6 6 7 8 9 10 11 12 11 11 11 12 13 13
28 28 26 25 23 20 18 17 14 12 9 7 5 3 2 3 3 4 3 1 2 3 4 5 5 4 4 5 5 6 7 7 8 10 11 11 11 11 11 12 13 13
30 29 27 25 23 21 19 17 15 12 9 7 5 3 1 1 3 4 4 2 0 2 4 5 5 4 5 5 4 6 6 6 8 10 10 10 11 11 12 13 14 14
30 29 27 25 23 21 19 17 14 11 9 7 6 4 2 2 4 5 4 3 2 1 2 3 4 5 5 6 5 6 7 7 8 9 8 9 9 10 11 12 15 15
31 30 27 25 23 21 20 17 14 11 8 7 6 5 5 4 5 6 6 4 3 2 2 2 4 5 6 6 6 6 7 8 9 8 7 6 7 8 9 10 13 14
32 29 27 25 23 22 21 18 14 11 9 8 7 7 6 5 5 7 8 7 5 3 3 3 4 5 6 7 7 7 7 8 8 9 9 9 9 8 8 9 11 12
31 29 28 26 25 24 22 19 15 13 11 9 9 8 8 7 6 7 8 8 7 5 4 4 4 5 6 7 7 7 7 8 8 9 10 11 10 9 9 10 11 12
32 30 29 28 26 25 22 20 17 15 13 11 10 10 9 8 7 7 8 9 8 7 6 5 5 6 7 7 8 8 8 8 9 10 10 10 10 11 11 10 11 12
34 32 30 29 28 26 23 21 19 16 14 13 12 11 11 9 8 8 9 9 8 7 7 6 6 7 7 8 9 9 9 10 10 11 11 10 10 11 11 11 11 12
35 34 32 31 29 27 25 22 19 17 15 14 13 13 12 11 10 9 9 9 8 7 8 7 7 7 7 8 9 9 10 10 11 12 11 10 10 10 12 12 12 13
34 32 31 30 27 25 25 23 20 18 17 16 15 15 14 12 11 10 10 10 9 8 8 8 8 7 8 8 9 10 10 10 11 11 11 10 10 10 11 13 13 14
35 32 30 28 25 24 24 23 21 20 18 18 17 16 15 14 13 11 10 11 11 9 8 9 8 8 8 8 9 9 10 10 10 10 10 10 10 10 11 12 13 15
30 29 28 27 25 24 23 23 22 21 21 20 19 18 17 16 15 13 12 12 12 10 8 8 8 7 8 8 8 8 9 9 9 10 10 10 11 11 12 12 13 15
24 24 24 25 25 24 23 23 23 23 22 22 21 19 18 17 17 16 14 13 12 11 9 8 8 7 7 7 7 8 8 9 9 9 10 11 11 12 13 14 14 15
23 23 23 25 25 24 24 24 24 24 24 23 22 21 20 19 19 18 16 14 13 11 9 8 7 7 7 7 7 7 7 8 9 9 10 11 12 13 14 15 15 16
24 24 23 23 23 24 25 24 24 24 25 24 22 22 22 22 21 19 18 16 14 11 10 8 7 6 7 7 6 7 7 7 8 9 10 11 12 13 14 15 16 16
24 23 21 20 21 22 23 23 23 24 25 24 23 22 22 22 21 19 17 16 15 12 9 8 7 7 7 7 7 7 7 8 8 9 10 12 13 13 14 15 16 16
21 20 20 20 22 24 24 24 25 25 26 26 23 22 21 19 17 15 13 13 14 11 9 9 8 8 8 8 8 8 8 9 9 10 11 12 13 14 15 16 16 17
19 20 21 21 22 24 25 24 23 23 24 22 18 17 16 14 14 13 13 14 13 11 9 9 9 9 10 10 10 10 10 11 11 12 13 14 15 16 16 17 18 18
15 16 18 17 16 18 19 18 16 16 16 15 13 13 13 14 14 14 15 15 13 11 10 10 11 11 12 12 12 12 12 13 14 14 15 16 17 18 18 19 19 20
12 13 14 14 13 13 14 14 13 13 13 12 12 13 14 15 15 16 17 16 14 13 12 12 12 13 13 13 14 14 15 15 16 16 17 18 19 19 20 21 21 22
13 13 13 14 14 14 14 14 14 14 13 13 13 13 14 14 14 15 16 16 15 15 14 14 14 14 14 15 15 16 16 17 17 18 19 20 20 21 22 23 24 24
12 12 13 14 15 14 14 14 14 14 14 14 15 15 15 14 14 14 15 16 16 15 15 16 16 16 16 16 16 17 17 18 19 19 20 21 21 22 23 25 26 27
11 12 13 14 14 14 15 15 14 14 15 14 15 15 15 15 16 16 16 17 17 17 17 17 17 17 18 18 18 18 19 19 20 21 21 21 22 23 24 25 27 28
11 11 12 12 11 11 12 13 12 12 12 12 13 13 14 15 16 17 17 17 17 17 17 17 18 18 18 19 19 19 19 20 21 22 22 23 23 24 25 26 27 28

ECMWFNIL_700_spd_051.txt.gz
Wind_Speed
26 25 24 23 23 22 22 21 19 18 15 14 12 10 9 8 7 6 6 7 8 10 11 11 11 11 11 10 10 9 9 9 9 9 10 11 10 10 11 11 11 12
23 23 25 24 24 24 23 21 20 18 16 14 12 11 9 8 6 5 5 5 7 8 8 9 10 10 10 9 9 10 9 9 8 9 10 10 10 9 10 10 11 12
24 25 27 25 24 25 23 21 20 17 16 13 11 10 8 7 5 4 3 3 5 7 8 8 9 9 9 8 9 9 8 8 8 10 10 10 9 9 9 10 11 11
27 27 28 26 26 26 23 22 19 16 14 13 12 11 8 6 5 3 2 1 2 5 6 7 8 8 8 7 7 8 7 8 9 11 11 9 10 10 11 11 12 12
27 28 29 28 27 26 24 22 19 16 14 13 12 11 8 6 4 3 2 1 1 2 3 6 8 8 8 7 7 7 7 8 8 9 9 9 10 11 12 13 12 12
28 30 31 30 29 28 25 23 20 17 16 14 13 11 8 6 4 4 3 2 1 1 2 5 7 8 8 8 8 8 9 8 8 8 8 9 9 9 9 10 11 12
32 32 31 31 30 28 26 24 22 19 17 15 13 11 9 7 5 4 4 3 2 2 3 5 6 7 8 8 8 8 10 10 9 9 10 10 9 7 8 8 8 10
34 34 33 32 30 29 27 25 23 20 17 15 13 11 9 7 6 5 4 3 3 3 3 4 6 7 7 8 8 8 10 11 11 12 12 11 10 8 8 8 7 9
37 37 35 34 32 30 29 27 24 22 18 16 14 11 9 7 6 6 5 4 4 4 4 4 5 6 7 7 8 8 10 11 12 14 13 12 12 11 10 9 8 9
39 39 37 35 34 31 30 28 25 22 19 17 14 12 10 7 6 6 5 5 4 4 4 5 5 7 7 7 8 8 9 9 10 12 12 13 13 12 12 10 9 9
41 41 38 37 34 31 30 27 25 23 20 17 15 13 10 8 7 7 6 6 6 5 5 5 6 7 8 8 8 8 8 8 8 8 10 11 11 10 10 10 9 9
42 43 40 37 34 31 28 27 26 24 21 18 16 14 11 10 9 9 7 7 7 7 6 7 7 7 8 9 9 8 8 8 7 7 8 10 10 9 9 9 9 9
43 43 39 36 33 30 28 28 27 25 22 20 18 15 13 12 11 10 9 8 8 8 8 7 7 8 8 9 9 9 9 8 8 8 8 9 10 10 9 8 9 10
41 42 40 37 34 31 29 28 26 25 24 21 19 16 15 14 13 12 11 10 10 9 9 8 9 9 8 9 9 9 9 9 9 9 9 9 9 10 10 8 9 10
40 40 39 37 34 31 29 29 27 26 26 23 20 18 17 16 15 14 13 12 11 10 9 9 9 9 8 8 9 9 9 9 9 10 10 10 9 10 10 10 10 11
37 35 33 33 32 31 30 29 28 26 25 24 22 20 19 18 17 16 15 14 13 11 10 10 10 10 10 10 9 9 9 8 8 9 11 11 11 11 11 11 12 11
33 32 30 31 32 31 31 30 28 26 25 25 25 23 21 20 19 18 17 17 15 12 11 11 12 12 11 11 10 10 9 8 8 9 10 10 12 12 12 12 12 12
32 32 32 33 34 34 33 32 30 28 27 26 25 25 24 22 22 21 20 18 16 14 13 13 14 14 13 13 12 11 9 8 8 8 9 10 11 11 12 13 13 13
32 34 35 35 34 34 34 33 30 29 28 27 27 26 25 25 24 22 21 20 18 17 15 14 14 14 14 13 12 11 10 9 9 9 9 10 11 11 12 12 12 13
33 35 35 32 30 31 33 31 29 29 29 29 28 27 27 27 26 24 23 21 18 15 15 15 15 14 13 12 12 11 10 10 9 9 10 10 11 11 12 12 12 12
28 29 29 28 29 31 32 29 28 30 29 27 27 27 26 26 24 22 19 17 15 15 15 15 15 14 13 12 11 11 11 10 10 10 10 11 12 13 14 14 15 15
25 24 25 26 28 31 32 31 31 30 27 25 24 22 19 17 15 13 12 13 14 15 14 14 14 13 12 12 11 12 12 12 12 11 11 12 13 13 14 15 16 17
24 25 25 25 26 24 24 25 26 23 20 18 17 14 12 12 11 11 12 12 14 14 14 13 12 11 11 11 11 12 13 13 13 14 14 14 14 14 15 17 17 18
20 21 21 21 20 16 14 15 16 16 15 14 14 13 12 12 12 12 12 14 15 16 16 15 14 13 13 13 12 13 13 13 14 15 15 15 16 16 17 19 20 20
16 18 17 17 16 15 15 16 16 15 14 14 14 13 13 12 11 10 10 11 13 14 14 15 15 14 14 13 14 14 15 15 16 17 17 17 18 19 19 20 22 23
16 16 16 16 16 16 16 16 16 16 14 13 13 13 12 12 11 10 9 9 10 10 10 10 11 11 12 13 14 15 16 18 18 18 18 18 19 20 20 21 24 26

ECMWFNIL_700_spd_054.txt.gz
Wind_Speed
21 22 22 21 22 24 25 24 22 21 19 17 16 14 12 12 11 10 10 11 11 12 13 14 14 15 14 14 12 9 8 7 7 8 9 10 10 9 9 8 8 9
18 20 23 23 24 26 25 23 22 21 20 18 16 14 12 12 10 10 10 10 10 10 11 12 14 15 15 14 13 11 9 8 7 7 8 8 9 9 9 8 8 9
16 18 22 24 26 29 27 23 23 23 21 18 16 14 12 11 10 9 8 7 7 7 7 8 10 12 13 13 13 12 11 9 7 7 8 7 8 8 9 8 8 9
15 20 23 26 28 29 28 26 25 24 21 18 16 14 12 11 10 8 7 6 4 4 5 6 7 9 10 10 11 11 11 10 8 8 8 7 8 8 8 8 8 8
15 24 26 28 30 29 27 27 26 24 21 18 16 14 12 11 10 8 6 5 4 4 4 5 6 7 7 8 8 8 10 10 9 9 8 8 8 8 8 8 8 8
15 24 28 31 32 29 27 27 26 24 21 18 16 14 13 11 9 8 6 5 4 3 4 5 6 7 7 7 7 7 9 9 9 9 9 9 9 9 9 8 8 9
15 22 28 32 32 29 29 29 27 24 21 19 17 16 14 11 9 8 6 5 4 3 4 5 6 6 7 7 6 7 9 10 10 10 9 10 10 10 10 9 8 9
18 21 27 32 33 32 32 30 28 25 22 20 19 17 14 12 10 9 7 6 5 5 5 5 6 7 7 7 6 7 9 11 11 12 11 11 11 10 10 9 8 9
22 21 25 30 33 34 34 31 29 26 23 22 20 17 15 13 11 10 8 7 7 7 6 5 6 7 6 7 6 6 9 10 12 13 12 10 11 11 11 9 9 8
25 24 26 30 32 34 34 32 30 27 25 22 20 18 16 14 12 10 9 8 8 8 7 6 6 6 6 6 6 7 8 9 11 12 11 11 12 12 11 9 9 8
28 27 28 31 33 35 35 33 30 29 26 23 21 19 17 14 12 10 9 8 8 8 8 7 6 6 6 6 6 7 7 8 9 9 10 12 12 12 11 9 10 11
30 29 31 34 36 36 35 33 31 30 27 24 21 19 18 15 13 11 9 7 7 7 7 7 6 6 7 6 7 7 7 8 8 7 8 9 9 11 11 10 13 13
30 30 32 36 37 36 35 34 32 30 28 24 22 20 18 16 14 12 10 8 7 7 8 8 7 6 7 6 7 7 8 9 8 8 8 7 8 10 10 10 12 11
30 31 34 37 38 36 36 35 32 30 29 26 23 20 19 17 16 14 12 10 9 9 8 7 6 6 6 7 8 7 7 7 8 9 9 7 7 8 7 8 10 9
31 33 35 38 39 38 37 36 33 31 29 27 23 22 20 19 18 16 14 13 11 10 7 6 7 7 8 9 9 8 7 7 7 9 9 8 7 7 6 7 8 9
35 37 37 39 40 39 38 37 33 31 29 27 25 23 22 20 19 18 17 16 14 10 7 7 8 9 9 10 10 9 9 8 7 8 8 8 8 7 6 7 7 8
35 35 36 38 39 40 41 40 35 31 31 30 26 24 23 22 21 21 20 17 14 11 10 10 9 9 10 10 11 11 10 9 9 9 9 9 8 8 7 7 6 7
29 30 34 38 39 40 42 40 34 30 30 30 28 26 25 24 23 23 21 17 15 14 13 11 10 11 12 11 12 12 11 11 11 11 10 9 9 9 9 9 9 8
26 28 33 36 37 39 39 35 31 30 29 28 28 27 25 24 24 23 21 19 18 16 14 13 13 13 13 13 13 12 12 12 11 11 11 11 11 11 11 11 10 8
26 28 31 33 33 35 35 32 32 31 28 27 27 26 24 24 24 23 22 21 20 18 17 17 16 15 14 14 14 13 13 12 11 11 11 12 11 10 10 10 9 7
27 28 30 31 31 32 32 32 31 29 27 27 27 26 26 25 25 24 23 23 22 21 20 20 19 17 16 15 14 14 13 12 11 11 11 11 10 9 9 10 9 9
27 27 27 28 29 30 31 32 32 30 29 30 30 28 27 26 25 25 24 24 24 24 24 23 21 19 17 16 15 15 14 13 12 11 11 11 10 10 11 12 12 13
27 28 28 28 28 29 30 32 33 31 30 31 31 30 28 27 26 25 23 22 21 21 22 22 20 18 16 16 16 15 14 13 12 12 12 11 11 11 13 14 13 14
28 29 30 30 30 30 31 32 31 30 30 31 32 30 28 25 22 20 18 18 16 16 18 19 18 17 16 16 15 14 14 13 13 13 13 12 12 13 14 15 15 15
27 29 30 30 30 31 31 31 30 29 30 29 26 24 21 17 16 15 15 16 16 17 18 19 19 17 16 16 15 14 14 14 13 13 13 13 13 15 17 18 18 18
22 24 26 27 27 26 26 25 24 23 22 20 18 16 16 15 14 14 14 15 15 16 18 20 21 19 18 17 17 16 15 14 13 13 13 14 15 17 19 21 21 20

ECMWFNIL_700_spd_057.txt.gz
Wind_Speed
6 9 16 21 22 24 24 23 23 23 22 21 20 19 18 17 16 15 15 14 13 13 13 13 13 13 14 13 13 12 11 11 10 11 11 13 14 14 14 12 11 11
4 7 13 22 25 26 25 24 24 23 23 22 21 20 18 17 16 14 13 13 12 12 12 14 14 14 15 14 13 13 12 11 11 11 11 12 13 13 13 12 11 11
6 7 12 19 24 26 26 25 25 25 25 24 23 21 18 16 14 13 12 12 11 11 11 12 13 14 14 14 14 14 13 12 11 11 11 11 12 12 12 13 12 11
8 11 15 19 23 25 26 27 27 26 25 24 23 20 17 14 13 12 12 10 10 10 10 10 11 11 12 14 14 14 13 13 12 11 10 11 12 11 12 12 12 11
11 14 20 23 24 26 28 29 28 27 25 23 22 19 16 14 12 12 11 10 10 10 9 10 10 9 10 12 13 13 13 13 13 12 11 12 12 11 11 12 10 10
14 16 22 26 27 28 29 31 30 29 26 24 22 19 16 14 13 12 11 11 10 10 9 9 9 9 10 11 12 12 13 14 13 13 12 12 11 11 11 11 10 9
17 19 22 27 29 30 31 32 32 29 27 25 22 19 17 16 15 13 12 11 10 9 8 8 9 9 10 11 11 11 13 14 14 14 13 12 12 11 11 11 10 9
21 22 24 27 30 32 32 32 31 29 28 26 22 19 18 18 16 14 13 11 10 9 8 8 8 9 9 11 11 12 12 14 14 14 13 12 12 12 11 11 10 9
23 25 27 29 31 32 33 31 30 29 28 26 23 21 20 19 17 15 13 11 11 10 9 9 9 9 10 10 11 12 12 14 15 14 13 13 13 13 12 12 11 11
25 27 29 30 32 34 33 32 30 28 28 27 24 23 22 19 17 15 13 12 12 11 10 10 9 9 10 10 11 12 12 14 15 13 13 14 14 14 14 13 12 11
27 28 29 32 36 36 34 33 30 29 30 28 25 24 22 19 17 15 13 13 12 11 11 11 10 10 10 10 11 11 12 13 14 13 14 15 15 14 14 14 12 11
26 28 31 35 39 37 35 33 31 30 32 29 26 25 23 20 18 14 13 13 12 12 12 11 10 10 9 8 9 10 11 13 13 14 15 15 15 16 16 15 14 14
26 27 31 34 36 37 36 34 32 33 33 29 26 25 23 20 18 15 14 14 12 11 12 11 9 8 7 7 8 8 10 12 12 13 14 14 15 17 16 16 16 16
28 29 32 32 33 35 34 33 34 35 33 30 28 25 23 21 19 17 17 15 12 11 10 9 9 9 8 8 8 8 9 9 11 13 12 12 14 15 13 13 15 16
29 31 34 34 34 35 35 35 36 35 33 32 29 26 24 23 21 20 19 16 13 11 9 9 10 10 9 9 8 7 8 8 11 13 12 12 13 12 11 12 14 16
30 31 35 35 36 37 37 38 39 37 35 34 32 29 27 25 23 22 19 16 14 11 9 10 10 9 9 9 8 7 9 9 10 12 12 13 13 11 11 12 15 17
31 32 35 36 36 36 35 37 39 39 38 36 34 33 30 25 23 21 18 17 14 12 12 12 10 9 9 9 8 8 9 10 11 12 12 13 13 12 12 13 15 17
28 30 32 33 33 35 35 36 38 39 39 37 35 35 31 24 21 20 19 18 16 15 15 13 11 10 10 9 9 9 10 11 12 12 12 12 13 14 13 13 15 17
24 26 29 30 31 34 36 36 37 39 38 36 34 34 31 26 22 21 20 19 19 18 17 14 12 11 11 11 11 11 12 12 12 13 14 14 14 14 13 12 12 14
22 25 28 30 31 33 36 37 38 38 38 36 35 36 34 29 25 23 22 22 21 20 18 16 15 13 13 13 13 13 13 13 13 14 14 13 13 13 13 12 10 11
20 24 27 30 31 32 34 35 37 37 37 37 36 38 37 33 28 25 24 24 23 21 20 19 17 16 16 16 15 14 14 14 14 14 13 11 10 11 12 12 10 10
18 22 26 28 31 32 34 34 35 36 36 35 36 37 35 32 29 27 26 25 24 23 22 20 19 18 18 18 17 16 15 16 15 15 14 13 12 12 11 11 11 10
21 24 25 25 29 32 33 34 34 34 34 35 37 35 32 30 29 29 28 27 25 24 23 22 21 21 21 21 19 17 17 17 16 16 15 15 14 13 12 12 12 11
24 26 25 24 28 31 32 33 33 34 35 37 36 32 30 30 30 30 29 28 27 26 25 24 24 23 23 22 19 17 17 16 16 16 15 14 13 13 13 13 12 12
24 26 26 26 27 29 30 30 31 33 34 35 34 32 30 30 30 29 29 29 29 28 27 26 26 25 25 24 22 19 17 16 16 16 15 15 14 14 14 13 13 12
22 24 26 26 26 28 29 29 30 31 31 32 33 32 29 30 31 31 32 31 30 30 28 26 25 25 25 24 22 20 18 18 17 16 16 16 16 16 15 14 13 13

ECMWFNIL_700_spd_060.txt.gz
Wind_Speed
12 14 19 21 19 18 21 24 25 25 24 22 20 19 20 19 19 19 18 18 17 17 16 14 14 14 14 15 14 13 13 13 14 13 13 14 14 16 17 17 16 15
13 15 18 18 17 19 22 24 25 24 24 23 22 21 21 20 19 19 18 17 16 15 15 15 15 15 15 14 14 14 14 14 15 14 14 14 15 17 18 17 16 15
16 18 18 18 18 19 22 24 24 24 23 23 23 22 21 20 20 19 18 17 16 15 15 15 15 16 16 16 15 15 15 16 15 14 13 14 15 16 17 17 16 15
18 19 20 20 20 21 23 24 25 26 25 24 24 24 22 21 20 19 17 16 16 15 15 15 16 17 17 17 17 16 16 16 16 14 14 14 14 15 15 16 16 16
20 21 22 23 23 24 27 29 29 29 27 25 25 25 23 21 19 18 17 16 15 15 15 16 16 16 16 17 17 18 18 17 16 15 14 13 13 14 15 15 15 15
22 22 24 24 24 26 31 33 32 32 30 27 26 25 22 20 18 17 16 15 15 16 16 15 14 14 15 15 17 18 18 17 16 15 15 14 13 14 15 15 15 15
25 24 24 23 23 28 33 33 31 31 30 27 26 25 22 20 19 17 17 16 16 16 15 14 13 13 13 14 15 16 17 17 16 15 15 15 14 15 16 15 15 15
26 26 24 23 24 29 32 29 29 30 29 27 25 24 21 20 19 18 17 17 16 15 14 13 13 13 14 14 15 15 16 16 16 16 16 16 16 16 16 16 16 16
27 28 26 25 25 29 31 28 28 30 28 26 23 22 21 21 19 18 18 17 15 14 13 12 12 13 14 16 16 15 16 17 17 17 17 17 17 17 17 17 17 16
28 29 28 26 26 29 31 28 29 30 27 26 23 21 21 21 20 20 19 17 16 15 13 12 12 12 15 17 17 17 17 18 17 17 17 17 18 18 18 17 16 15
28 30 29 28 28 29 29 28 29 29 27 27 26 24 23 22 21 21 20 18 17 15 14 13 13 13 14 16 17 18 18 18 17 17 18 18 18 18 17 16 15 15
30 31 30 30 30 30 29 29 30 30 29 29 28 27 26 23 21 22 21 19 18 16 15 15 14 13 14 15 17 17 18 18 18 19 20 19 19 18 18 17 16 16
31 31 31 31 31 31 30 30 31 31 31 30 28 27 26 23 22 23 22 20 18 17 16 15 14 13 13 14 16 17 17 18 18 19 20 20 20 20 19 18 18 18
31 31 32 33 33 32 30 30 31 31 32 31 26 25 26 26 24 24 22 20 18 16 15 14 14 14 13 14 15 15 16 16 17 18 19 19 20 19 19 19 19 19
30 31 32 34 34 33 31 30 32 32 32 31 26 25 27 28 26 24 22 20 18 15 14 14 14 15 15 15 14 14 14 15 15 17 17 17 18 17 17 18 19 20
31 31 32 35 36 34 33 32 32 33 32 31 28 29 30 29 28 26 23 21 19 15 14 15 15 15 14 14 14 14 14 15 16 16 16 17 17 16 16 16 18 20
31 32 32 34 37 37 35 33 33 34 33 31 32 33 32 31 31 29 25 23 20 16 14 15 15 14 13 13 13 13 13 14 15 15 15 17 17 16 16 16 18 19
29 30 30 33 37 37 36 34 34 35 34 33 35 36 34 32 32 31 28 25 20 16 15 15 15 14 13 12 12 12 13 14 15 15 15 16 16 16 16 16 17 19
26 27 28 31 35 36 35 35 34 36 37 36 37 38 37 34 33 32 30 26 21 17 15 15 15 14 13 12 12 12 14 15 15 16 16 16 17 17 17 16 16 18
20 23 24 27 32 35 36 36 35 36 38 38 39 39 37 35 33 31 30 28 23 19 17 16 16 15 14 13 13 14 15 16 16 17 16 16 17 17 17 16 16 17
16 19 20 24 28 31 33 34 34 35 37 38 40 39 37 35 33 31 32 30 24 19 17 18 18 17 16 16 15 16 16 16 17 17 16 16 17 17 16 15 15 16
14 16 17 22 25 27 30 32 32 33 37 39 40 38 36 36 33 32 34 34 27 21 20 20 20 20 20 19 18 17 18 18 17 17 17 16 17 17 16 15 16 17
15 16 15 19 22 24 27 29 29 32 37 41 41 39 37 35 33 33 36 36 32 27 23 22 23 24 23 22 20 19 20 20 19 19 18 17 18 18 17 15 15 17
15 14 15 19 22 23 25 27 29 33 36 37 38 37 36 34 33 33 35 36 36 33 28 26 27 27 26 24 22 20 22 23 22 22 21 19 18 17 16 15 15 16
13 16 21 24 23 24 26 28 31 34 35 34 33 34 35 34 32 31 33 35 36 35 32 30 29 29 27 25 24 24 24 25 25 24 22 20 18 16 15 14 13 13
16 20 27 30 28 26 25 27 31 34 33 32 32 32 35 36 34 33 34 34 34 35 35 32 30 30 29 27 27 27 27 26 25 24 22 20 18 17 16 15 14 14

ECMWFNIL_700_spd_063.txt.gz
Wind_Speed
15 15 15 15 18 20 21 23 26 27 26 25 26 25 23 22 21 21 21 22 20 17 16 16 16 17 16 16 16 16 16 16 15 15 15 15 15 14 14 15 16 16
15 15 16 16 17 20 22 23 26 30 30 28 28 26 24 23 23 23 23 22 20 17 17 18 17 17 16 16 16 16 16 16 15 15 14 15 15 14 14 15 17 17
18 16 15 16 17 18 21 24 26 30 32 31 30 29 27 25 25 24 23 21 19 18 18 18 17 17 17 17 17 17 17 16 16 15 15 15 15 14 15 16 17 18
20 17 15 16 17 17 19 24 28 30 33 34 32 30 28 26 26 25 23 22 21 20 19 18 17 17 17 17 18 18 18 18 17 16 16 16 15 15 15 16 17 17
21 17 15 16 18 18 18 22 26 28 31 33 31 28 27 27 26 25 23 22 22 20 18 18 18 18 18 19 19 19 19 19 18 18 17 16 16 16 16 15 16 17
21 19 17 18 21 20 18 20 24 25 25 28 29 26 26 27 27 26 24 22 20 19 18 19 19 20 20 20 20 21 21 20 20 19 18 17 17 17 16 15 16 17
21 22 21 22 24 21 18 20 23 23 23 25 28 27 26 27 28 27 23 21 19 19 19 20 20 21 20 20 20 21 21 21 21 20 18 18 19 18 16 15 16 16
22 26 25 26 26 21 18 21 22 22 24 25 26 27 26 27 29 26 21 19 20 19 20 21 20 20 19 19 19 19 20 21 21 20 19 19 18 17 16 16 16 16
25 27 28 28 26 22 21 23 21 20 22 24 25 27 26 27 28 23 19 19 20 20 21 20 18 18 18 18 18 17 18 19 19 20 19 18 17 17 17 17 16 16
26 28 28 28 27 25 24 24 21 19 21 22 23 26 26 27 27 22 20 20 21 20 21 19 17 17 17 17 17 16 16 16 17 17 17 17 17 18 18 17 17 16
25 27 28 28 28 27 27 25 23 22 21 21 23 25 26 28 27 22 20 21 21 21 20 19 18 17 16 16 16 16 16 17 17 17 17 18 18 18 18 18 17 16
23 25 27 29 28 28 29 27 25 25 23 22 23 25 27 30 28 23 21 22 22 22 21 19 18 17 17 17 16 16 16 17 17 18 18 18 18 18 18 17 17 17
24 27 29 31 30 30 30 30 28 27 26 23 23 24 27 32 28 22 21 22 23 23 21 20 18 17 17 17 17 16 16 16 16 17 18 18 18 18 18 18 17 18
27 29 31 33 33 32 31 31 29 28 27 25 24 25 29 31 27 23 23 23 23 23 21 20 18 17 17 17 18 17 16 16 16 17 18 18 18 19 19 19 19 20
30 31 32 33 34 33 33 32 29 28 28 28 27 27 30 31 29 28 26 23 23 23 22 20 19 18 17 17 17 17 16 16 16 17 17 18 18 18 19 20 20 21
29 32 33 34 33 32 32 31 30 29 29 28 28 29 30 33 34 34 30 24 23 23 22 21 19 18 17 17 17 17 16 16 16 16 17 17 17 18 18 20 21 21
28 31 33 34 33 32 31 30 30 30 28 28 29 30 32 35 36 36 34 29 24 22 21 20 19 18 17 17 17 17 16 16 15 16 17 17 17 18 18 20 20 21
28 31 33 33 32 31 31 30 30 29 30 31 31 30 33 35 36 36 36 33 27 24 22 21 21 20 19 18 18 17 15 15 15 15 16 17 17 18 19 20 20 20
25 30 33 32 31 31 30 30 31 30 31 33 32 31 33 34 35 37 36 34 30 27 26 24 23 22 19 18 17 16 15 15 14 15 16 17 17 17 18 19 20 20
22 27 30 30 29 29 29 30 31 31 32 33 32 32 34 34 35 37 35 33 31 30 29 27 25 23 20 17 16 15 14 14 14 15 16 16 16 17 17 19 19 20
20 23 25 25 25 26 26 28 30 31 32 33 32 32 34 35 36 36 34 32 31 32 32 30 27 24 20 18 16 15 14 14 14 14 15 15 16 16 16 17 17 18
17 17 16 17 17 19 22 25 27 28 30 32 33 32 34 36 36 35 33 32 32 33 33 32 30 27 23 19 18 16 14 14 14 15 15 15 15 16 16 16 16 17
14 13 14 16 15 16 21 26 26 25 29 33 32 31 36 39 36 34 34 34 35 34 33 33 33 31 26 22 20 18 16 16 16 17 17 15 15 16 16 17 17 17
15 13 15 21 21 18 21 30 31 26 28 33 31 32 41 42 36 35 36 36 35 35 34 33 34 33 31 26 23 21 19 19 19 19 19 18 17 18 18 18 18 19
19 17 17 22 24 20 18 29 34 27 25 28 29 34 42 41 36 36 36 35 35 35 34 34 34 34 32 30 26 24 22 21 21 21 21 20 20 20 21 21 20 21
19 20 19 20 23 21 17 22 27 25 22 23 27 36 41 39 37 36 35 35 36 35 34 34 34 33 33 31 29 27 25 25 24 24 23 22 22 23 23 23 22 21

ECMWFNIL_700_spd_066.txt.gz
Wind_Speed
19 20 22 21 20 19 20 19 20 22 23 24 25 22 20 21 22 20 18 18 19 19 20 19 19 19 19 18 16 16 17 17 17 17 16 16 16 16 15 15 16 17
19 19 20 20 18 19 20 20 21 21 22 25 25 21 20 21 22 22 20 19 19 18 19 18 18 19 19 18 17 16 17 17 17 16 15 16 16 16 16 16 16 17
20 19 19 20 19 19 21 22 22 21 22 25 23 19 19 21 21 22 23 22 20 19 18 18 19 19 19 20 18 18 18 17 16 16 15 16 17 17 17 17 17 16
21 21 21 21 21 21 21 21 22 22 23 25 23 19 19 20 20 21 22 23 22 21 21 20 19 19 20 20 19 18 18 17 16 17 17 17 17 17 18 18 17 16
23 23 23 22 22 22 21 20 20 22 22 22 20 20 20 20 18 18 21 23 23 22 22 21 20 19 20 20 18 18 18 17 18 19 18 18 18 18 18 18 17 16
25 26 23 22 22 21 22 21 20 19 19 18 17 18 19 19 18 19 21 23 23 23 22 21 19 19 19 19 19 18 19 19 19 19 19 19 19 19 19 18 17 16
25 25 22 21 21 21 22 21 19 18 17 16 16 17 19 20 21 23 24 24 23 23 22 21 19 19 19 19 19 20 20 19 19 20 20 21 20 20 19 18 17 16
21 21 21 20 20 21 22 21 20 19 19 17 16 16 17 20 23 27 27 25 23 22 22 22 20 20 20 20 20 20 20 20 20 21 21 21 21 20 19 18 18 17
19 20 21 20 20 21 23 23 22 21 19 18 16 16 16 19 24 28 28 27 25 23 24 24 22 21 21 21 21 21 20 21 21 22 22 22 21 20 19 19 19 17
20 21 22 22 23 25 26 26 24 21 19 18 17 16 16 19 22 26 28 28 28 27 26 24 23 22 22 21 21 21 21 21 22 22 23 22 21 20 20 20 20 18
20 21 22 24 26 28 28 27 25 24 22 19 18 17 17 18 20 24 27 28 29 29 27 24 24 23 21 20 20 20 21 21 22 21 22 22 22 21 21 20 20 19
20 21 23 25 27 28 26 25 25 25 23 20 19 19 17 18 20 23 27 29 30 31 27 24 24 22 20 20 20 20 21 21 20 19 19 20 21 21 21 20 19 19
21 21 22 24 26 26 24 24 24 24 23 22 22 21 18 19 21 23 27 29 31 32 29 26 24 22 20 20 21 21 21 19 19 18 17 18 19 19 19 18 18 19
21 22 23 25 26 26 25 25 25 25 24 23 22 21 20 21 22 23 26 30 33 32 30 27 25 23 21 21 22 21 20 19 18 17 17 17 18 18 18 18 19 20
21 22 24 25 27 28 28 28 27 27 27 26 24 23 22 23 24 24 25 31 34 33 31 28 24 23 22 21 21 20 19 18 18 17 17 18 18 18 19 19 19 20
21 22 23 25 27 28 29 30 30 30 29 27 25 23 22 24 26 25 25 30 35 34 32 30 25 23 22 21 21 20 19 18 18 18 18 18 19 19 18 19 19 19
22 22 24 25 27 28 29 29 30 30 30 28 26 24 23 24 27 27 27 31 34 35 34 32 27 24 23 21 20 20 19 19 19 19 19 19 19 18 18 19 19 20
22 23 24 25 27 28 28 27 28 29 30 29 27 26 25 25 27 28 29 32 34 35 37 35 30 25 23 21 21 20 20 20 20 19 19 18 18 18 18 19 19 20
23 23 24 25 27 28 27 26 25 25 27 27 27 28 28 27 27 28 30 33 35 36 38 38 33 27 23 22 22 22 21 20 20 19 19 18 17 17 17 18 19 19
25 24 24 25 26 27 27 24 23 23 24 26 27 28 28 27 27 28 31 34 36 36 38 39 34 28 24 23 23 23 22 21 20 19 19 18 17 17 16 17 18 18
26 26 25 24 24 25 24 21 20 22 23 24 25 26 26 27 28 30 32 34 36 38 39 39 35 29 25 24 23 23 22 21 20 19 19 18 18 16 16 16 16 17
27 27 25 24 24 23 22 19 18 20 22 23 23 24 26 27 29 31 32 34 36 39 41 39 35 31 27 25 24 23 23 22 21 20 19 19 18 16 15 15 15 16
29 27 25 24 23 23 23 20 18 19 21 21 21 22 25 27 30 32 33 35 37 39 41 39 35 31 28 25 24 24 24 23 22 20 20 19 18 16 15 15 15 15
29 27 25 23 21 22 23 21 18 18 19 21 22 25 26 28 32 35 34 35 38 39 38 37 34 32 29 27 25 26 25 24 23 22 20 19 18 17 16 16 16 16
26 26 26 25 22 21 22 20 17 16 17 19 23 27 29 30 33 38 37 36 38 39 37 35 34 33 31 28 27 27 27 25 24 23 22 20 19 18 17 17 17 18
23 24 25 26 24 22 22 21 17 13 13 17 23 30 35 34 34 37 38 37 39 40 38 36 35 34 32 30 30 29 29 27 25 24 23 22 20 20 19 20 20 20

ECMWFNIL_700_spd_069.txt.gz
Wind_Speed
32 33 31 27 25 22 20 18 16 15 18 19 18 19 20 19 21 21 20 20 20 22 23 23 23 22 21 19 18 20 21 21 22 22 21 19 19 19 18 17 17 18
32 32 29 26 24 22 20 19 17 15 15 16 15 16 17 18 21 22 22 21 20 21 23 24 24 22 21 20 20 21 21 22 23 22 21 20 20 20 19 19 19 18
28 28 26 23 22 21 20 18 17 14 13 13 14 15 15 18 19 20 21 22 21 21 22 24 25 24 23 22 22 22 22 22 22 23 22 21 21 21 20 20 20 19
24 25 23 21 21 21 19 16 16 15 13 12 14 15 15 17 18 18 19 20 21 21 21 23 24 24 24 24 24 23 22 22 22 22 23 22 22 22 21 21 21 19
19 21 21 20 21 21 19 16 16 17 14 12 13 14 15 15 16 17 17 17 19 21 22 22 23 23 23 24 24 23 23 24 23 23 23 23 23 22 21 21 21 19
16 16 18 21 21 21 18 17 19 19 16 14 13 13 14 15 14 14 15 16 17 20 23 23 23 23 23 24 25 24 24 25 24 24 24 24 23 22 21 22 21 20
15 15 15 19 21 21 19 19 20 19 18 16 15 13 14 15 14 14 15 16 17 19 22 24 23 22 23 25 25 24 24 24 24 24 25 24 23 22 21 21 21 20
16 15 14 16 20 21 20 20 19 18 19 18 17 16 16 16 16 16 16 18 20 20 23 25 24 23 25 26 25 25 25 24 24 25 24 24 23 22 21 21 21 20
16 15 15 15 17 19 21 21 20 19 20 19 18 19 18 17 17 17 16 20 22 23 24 26 26 26 27 27 25 25 25 25 24 24 24 24 23 23 23 22 21 21
17 16 16 16 17 19 20 21 21 21 21 21 21 21 20 19 18 17 16 19 22 24 25 27 28 28 28 27 25 24 24 24 24 23 24 24 24 24 24 23 23 22
20 18 17 16 17 18 20 21 21 21 22 23 23 22 21 20 19 17 17 18 20 23 24 26 28 29 29 28 26 25 25 24 24 24 24 24 25 25 25 25 24 23
19 19 18 17 17 17 18 20 21 22 22 22 21 20 20 20 18 18 18 18 19 21 23 26 28 29 29 29 27 26 25 25 25 25 25 25 26 26 26 26 25 24
19 19 18 18 18 18 17 17 19 21 21 20 19 19 19 19 19 18 18 19 20 20 23 25 27 29 30 30 29 27 26 26 26 25 25 25 25 24 25 25 25 25
22 22 21 19 19 18 18 17 18 20 21 21 20 20 19 19 20 20 19 19 20 21 23 26 28 29 31 32 29 26 25 26 27 25 24 24 23 23 23 23 24 24
23 24 24 22 20 19 19 18 19 20 22 23 23 22 22 21 21 21 21 20 20 22 24 27 29 30 31 32 29 26 25 26 26 25 23 23 22 22 23 24 24 24
25 26 26 25 24 23 22 20 20 20 21 23 24 25 24 24 23 23 23 22 21 22 24 26 28 30 32 32 30 26 25 26 26 24 23 22 22 23 23 23 23 23
27 27 27 28 27 26 25 24 23 22 21 22 24 25 26 26 25 25 25 24 23 23 24 25 27 30 32 33 31 27 26 26 26 25 24 23 22 22 22 22 22 22
27 27 27 28 29 29 29 28 27 25 23 22 23 24 25 26 26 26 27 27 26 25 24 25 27 30 33 35 32 28 27 27 27 26 24 23 22 22 21 21 22 22
26 26 27 27 28 30 31 31 30 29 27 25 23 23 24 26 26 26 27 30 30 27 25 26 28 30 34 35 31 29 29 29 28 27 25 23 22 22 21 21 21 21
26 27 27 28 28 29 30 31 32 32 30 28 26 23 23 25 26 26 26 29 31 29 27 28 29 32 35 35 31 30 31 31 29 28 26 24 22 22 21 21 21 21
28 28 28 29 28 28 29 30 31 31 30 30 28 26 24 24 26 26 27 29 31 31 29 29 31 34 36 35 33 33 34 32 30 29 26 24 23 22 22 22 21 21
30 30 30 29 29 28 27 28 29 29 29 29 29 28 26 25 26 27 27 29 31 32 31 31 33 35 37 35 34 35 36 34 31 29 27 25 24 23 22 21 21 20
31 31 31 30 29 28 26 25 26 26 27 27 27 28 27 26 27 28 28 29 31 32 33 33 33 36 38 37 35 35 37 35 32 29 28 26 24 23 21 20 20 20
30 29 29 29 29 27 25 22 21 23 24 25 25 26 27 26 27 28 27 27 30 33 35 35 35 37 40 40 38 36 35 34 32 30 28 25 23 22 21 20 19 20
26 25 25 26 26 26 23 20 19 20 21 22 21 23 25 25 26 28 28 27 29 34 37 37 38 40 41 41 40 37 36 34 33 31 29 26 24 23 23 22 21 20
21 21 21 21 23 23 21 19 18 18 19 20 18 18 19 20 24 27 27 26 29 35 38 40 42 42 40 40 38 35 34 33 31 29 28 27 26 26 25 24 23 21

ECMWFNIL_700_spd_072.txt.gz
Wind_Speed
27 28 29 29 30 31 30 29 26 23 22 22 21 20 18 15 15 16 18 20 19 19 20 22 24 23 24 26 26 27 26 26 29 29 28 26 24 23 23 22 21 20
20 20 22 24 26 27 26 24 21 20 20 20 19 17 14 13 14 14 15 17 19 20 20 22 22 22 24 26 27 28 27 26 28 27 25 24 23 24 24 23 22 21
16 17 19 21 22 23 22 20 18 18 19 19 17 15 12 12 13 14 14 15 18 20 20 21 22 23 25 26 27 28 27 26 26 26 25 24 24 25 25 23 23 22
17 18 19 20 21 20 19 18 17 17 18 18 17 15 13 13 13 13 14 16 18 20 21 22 22 24 25 26 28 28 28 27 26 27 27 25 26 27 25 23 23 23
17 17 17 19 19 18 17 17 17 17 17 17 17 16 15 14 14 14 14 15 18 20 22 23 24 25 26 27 29 29 28 27 26 27 28 28 29 28 25 24 24 24
16 16 16 17 17 18 17 17 18 18 18 18 18 17 16 16 15 14 15 15 16 19 21 22 24 25 26 28 30 30 29 28 27 28 29 30 30 28 27 26 25 25
16 16 16 16 16 17 17 16 17 19 20 19 18 17 17 18 16 15 16 15 15 17 19 20 21 23 26 28 30 30 29 28 29 30 31 31 29 28 28 27 26 27
15 16 16 16 16 17 17 17 16 18 20 21 20 17 17 18 18 18 18 17 16 16 19 20 20 23 26 28 29 29 29 28 29 31 32 31 29 29 28 27 27 28
15 15 15 15 16 17 18 18 18 18 19 20 21 20 18 17 19 20 19 18 17 17 19 22 22 23 26 29 29 29 29 29 30 31 31 31 31 30 29 27 28 28
14 14 14 14 14 15 17 19 20 20 20 21 21 22 21 19 21 22 21 20 18 17 19 23 24 24 26 29 30 29 29 30 31 32 32 31 31 30 28 28 29 28
15 15 14 14 15 15 15 17 19 20 22 22 21 21 20 19 21 23 22 21 19 18 19 22 25 26 27 29 31 30 29 30 31 31 31 31 31 30 30 28 27 26
18 17 17 16 16 16 16 15 16 17 19 20 20 19 17 18 22 24 23 21 20 20 21 21 23 26 28 29 31 32 31 31 31 31 30 30 30 31 30 26 24 24
20 20 20 19 18 18 17 17 16 16 16 17 19 19 18 20 23 24 23 22 23 23 23 21 21 25 28 29 32 33 33 32 32 31 29 29 29 30 29 26 26 26
21 22 22 22 21 20 19 19 18 17 17 16 17 19 20 22 24 25 25 25 25 26 25 23 24 27 28 28 31 33 33 34 33 30 27 28 30 30 27 27 29 29
22 22 23 23 22 21 20 20 20 20 19 19 18 18 20 22 24 26 26 27 27 28 27 25 26 28 27 27 29 30 32 34 32 29 28 29 30 28 27 28 30 30
21 22 22 23 22 22 21 21 21 21 22 22 22 21 20 20 23 26 28 29 30 30 28 27 27 27 26 26 28 29 31 34 34 32 30 30 28 27 28 29 29 28
21 21 21 22 23 23 23 23 23 23 23 24 24 24 23 21 21 23 27 30 32 31 31 29 28 28 26 25 28 30 31 35 38 35 31 29 29 29 29 29 28 28
22 22 22 23 24 25 26 26 26 25 25 25 25 24 24 23 21 22 24 28 32 33 33 31 30 29 27 27 30 32 34 37 40 37 33 32 32 30 29 28 28 29
25 25 25 26 26 27 28 28 29 28 27 27 26 25 25 24 23 22 22 25 30 32 33 33 32 30 29 29 32 33 35 39 40 36 34 35 33 30 29 28 28 29
27 27 28 29 29 30 31 31 31 30 30 29 28 27 26 24 23 22 22 23 27 31 32 34 34 32 31 31 33 34 35 39 40 37 35 35 33 31 29 29 28 29
27 28 30 31 31 31 31 31 31 31 31 30 28 28 27 25 23 23 23 23 26 29 32 34 34 33 33 34 35 35 36 40 41 37 34 33 33 32 31 30 30 31
26 27 29 30 30 30 30 30 29 29 29 29 28 26 25 25 24 23 23 23 26 30 33 35 34 34 35 36 36 36 37 40 41 37 34 33 32 32 32 32 32 33
23 24 26 27 28 28 28 27 26 25 26 26 26 25 25 25 25 24 23 23 26 30 34 35 34 34 36 36 36 37 38 40 40 37 35 34 33 33 35 35 33 32
20 21 22 23 24 25 24 24 24 22 21 21 23 24 23 24 24 23 23 23 25 29 33 35 35 35 36 37 37 38 39 39 38 36 35 35 33 35 38 37 34 32
19 20 20 20 21 22 22 21 20 20 19 18 19 20 20 21 21 21 21 21 23 26 31 35 35 35 37 37 38 39 39 38 37 35 35 36 35 37 40 39 36 34
20 20 19 18 19 21 21 20 18 18 18 17 17 16 15 15 15 15 16 18 21 23 27 32 34 35 37 37 38 39 39 37 36 34 35 36 36 38 41 40 35 34

ECMWFNIL_700_spd_075.txt.gz
Wind_Speed
18 18 17 16 17 19 20 22 24 25 27 29 29 27 22 18 17 16 15 16 17 16 17 17 17 17 18 19 21 22 25 27 27 28 29 28 25 25 26 27 27 26
16 16 15 15 17 19 19 21 22 23 25 26 25 25 22 18 16 13 11 13 15 15 16 17 17 18 20 21 22 24 26 27 27 28 28 27 25 26 27 27 27 26
14 14 15 16 17 19 19 20 21 20 22 23 21 20 20 19 18 13 9 12 14 15 16 17 18 19 22 23 24 25 26 26 27 27 27 26 26 27 28 27 26 26
14 14 16 17 17 19 19 20 20 19 20 22 20 20 20 21 20 15 12 13 14 15 16 17 19 21 22 24 26 27 27 26 26 27 28 26 25 27 28 28 27 27
14 15 16 17 18 18 19 20 20 19 20 21 21 20 20 21 19 17 16 16 15 16 17 17 19 21 22 23 26 28 28 27 26 27 28 27 26 29 30 30 28 28
13 14 15 16 17 17 18 19 20 20 20 21 21 21 20 21 20 19 21 20 18 18 18 18 18 20 21 23 25 27 29 28 26 27 29 29 28 30 32 32 30 29
12 13 14 15 15 16 17 17 18 19 20 20 20 20 21 23 23 23 24 24 22 21 20 19 19 19 21 23 25 27 29 29 27 27 29 30 30 30 32 33 31 30
12 13 13 14 14 15 16 17 17 18 19 20 19 19 20 23 25 26 27 28 27 24 22 21 21 21 21 22 24 26 28 30 29 28 30 31 31 31 32 32 31 30
13 13 14 14 14 15 16 17 17 18 18 19 19 19 19 21 24 27 30 31 30 27 25 24 24 23 22 22 24 26 27 28 28 29 31 32 32 32 32 32 31 30
14 15 15 15 15 16 17 17 18 18 18 18 18 19 19 20 23 26 30 32 32 28 27 27 27 26 24 24 25 26 27 27 27 29 31 31 31 33 33 33 32 30
17 17 18 18 18 18 18 19 19 19 19 18 18 18 18 19 22 24 27 27 27 26 27 27 28 29 27 25 25 27 27 26 26 29 30 30 32 34 33 32 31 30
19 20 20 20 20 21 20 21 21 20 20 19 19 19 18 19 20 22 23 21 20 24 28 27 26 27 27 26 27 28 27 25 26 29 30 31 33 34 33 32 31 30
20 20 21 21 21 21 21 21 20 20 20 20 20 20 20 19 20 21 22 22 22 26 29 27 25 25 25 27 28 29 29 27 27 29 31 33 35 35 33 31 30 30
19 20 21 21 21 21 21 21 20 19 20 20 21 22 22 22 21 21 22 24 26 29 31 30 27 25 24 25 26 28 30 30 29 29 32 35 35 35 33 30 29 30
19 20 20 21 21 21 21 21 20 20 21 22 22 23 24 24 24 23 23 24 26 29 32 32 29 27 25 26 26 26 28 30 30 30 32 33 33 33 31 29 29 30
20 20 20 21 22 22 23 23 23 23 24 24 25 25 26 26 26 26 25 25 25 27 29 30 30 29 28 28 28 27 27 28 30 31 31 32 33 34 32 30 30 30
21 22 22 23 24 25 26 26 26 27 28 29 29 29 29 29 29 28 27 27 26 26 26 27 29 30 29 29 29 29 28 28 29 30 30 33 35 35 33 32 32 30
23 24 25 26 27 27 29 30 31 31 32 32 33 32 32 32 31 30 29 28 27 26 26 26 28 29 28 28 30 31 31 31 30 28 30 33 35 34 33 34 34 32
24 25 26 27 29 30 31 32 33 35 35 36 35 35 34 33 32 31 30 29 28 27 26 26 28 29 29 30 31 32 33 33 32 30 32 35 33 32 34 35 34 33
24 25 26 27 29 30 31 32 33 34 35 36 36 35 35 33 32 31 30 29 28 27 27 27 28 30 32 33 33 33 34 34 33 34 36 35 32 32 33 34 33 32
22 23 24 25 26 28 29 30 31 31 32 33 33 34 34 33 32 30 29 29 29 28 28 28 29 30 32 35 35 34 35 35 35 35 37 35 33 33 33 33 33 33
19 20 21 22 23 24 25 27 28 28 28 28 29 30 31 31 31 30 29 28 28 29 29 29 30 31 32 34 36 36 36 36 36 36 37 36 34 34 34 35 37 36
17 18 19 20 21 21 23 24 25 25 25 25 26 26 27 28 30 30 30 30 29 30 30 30 31 32 33 34 35 37 37 37 37 37 38 37 36 36 36 36 37 36
17 18 19 20 20 20 21 22 23 24 24 23 23 24 24 24 25 26 28 29 30 30 31 31 31 32 33 34 35 36 37 37 37 37 38 38 37 37 37 35 33 33
17 18 18 19 19 19 20 21 22 24 24 23 22 23 22 22 21 21 22 24 26 28 29 30 29 30 32 33 34 34 36 36 37 38 38 38 37 36 37 35 34 34
17 18 18 18 19 19 20 20 21 23 24 24 23 22 22 21 20 19 19 19 20 22 24 25 25 26 28 30 30 32 33 34 35 36 38 39 37 37 38 37 37 36

ECMWFNIL_700_spd_078.txt.gz
Wind_Speed
19 18 17 16 16 16 17 19 21 23 25 24 24 24 24 23 24 22 19 16 16 16 17 18 20 21 20 18 17 17 18 19 20 21 24 26 26 25 26 27 28 30
17 16 16 16 15 16 18 20 22 24 25 24 23 23 23 23 23 22 19 17 17 17 17 18 20 21 22 20 18 17 18 19 19 21 23 25 25 26 26 26 27 29
16 16 15 15 15 16 18 20 22 23 24 23 22 21 22 22 23 22 20 18 18 19 19 20 21 22 23 22 20 19 19 19 19 21 24 25 26 26 25 25 25 27
16 15 15 15 15 16 17 18 19 20 21 22 21 21 20 21 22 22 21 20 20 21 22 22 23 24 26 24 22 21 21 21 21 23 25 26 26 25 25 25 25 27
16 15 14 14 14 15 16 16 17 18 19 19 20 20 20 21 22 22 21 21 21 22 23 23 24 26 27 26 25 24 22 21 22 23 25 25 25 26 26 26 27 29
15 14 14 14 14 14 15 15 16 17 18 19 19 19 20 20 21 22 22 22 22 22 23 24 25 26 25 25 25 24 23 22 21 23 25 25 24 26 26 27 29 30
14 13 13 13 14 14 15 16 17 18 19 20 20 20 20 20 20 22 22 23 23 23 24 25 26 27 25 24 24 23 23 23 23 24 26 25 25 26 27 29 31 29
13 14 14 14 15 15 17 18 19 19 20 21 22 21 21 21 21 22 23 24 25 25 25 26 27 28 27 24 24 23 21 22 24 26 27 26 26 27 27 29 31 30
14 15 15 15 16 16 18 19 20 21 22 23 24 23 23 22 21 22 23 25 26 26 26 28 29 28 25 24 25 25 22 21 23 26 28 28 28 28 28 30 32 31
16 16 17 17 17 18 19 20 21 22 23 24 25 25 24 23 22 22 23 24 27 27 27 28 27 24 20 20 24 25 22 21 22 24 25 27 28 29 29 30 33 33
17 18 18 19 19 19 20 21 22 23 24 24 25 25 24 23 23 23 23 24 26 27 27 27 26 22 18 20 24 23 21 20 21 23 24 25 27 29 29 30 31 32
19 19 20 20 21 21 21 22 22 23 24 24 24 24 24 24 24 24 24 25 25 26 27 27 26 25 23 22 24 24 22 21 20 22 24 24 25 27 29 29 29 29
20 21 22 22 22 22 22 22 22 23 24 24 24 24 24 25 26 26 26 27 26 27 27 27 27 28 27 25 25 25 25 24 21 21 23 23 24 25 27 28 28 28
21 22 23 23 23 23 22 22 22 23 24 25 26 26 27 28 29 30 29 29 29 28 29 28 28 28 28 27 26 26 27 27 25 23 23 23 22 22 23 27 29 29
23 24 23 23 23 23 23 24 24 25 25 26 27 29 30 30 31 33 33 32 31 30 30 30 30 29 28 28 29 28 27 27 27 26 25 24 22 21 22 26 29 31
24 24 24 24 24 24 25 26 27 28 29 30 30 32 33 34 34 35 36 35 33 32 31 31 31 31 29 28 30 30 29 28 28 28 27 26 24 23 23 25 28 31
24 24 25 25 26 27 28 29 30 31 32 33 34 35 36 37 37 36 37 38 36 34 32 32 32 32 30 29 30 31 31 30 30 29 28 26 26 26 24 25 26 28
24 25 25 26 27 28 30 31 32 33 34 35 35 36 36 37 37 35 34 36 36 34 32 31 31 32 31 30 30 31 32 32 31 30 28 26 28 28 25 25 26 28
24 25 26 27 27 28 29 30 31 31 32 33 33 33 33 33 35 34 33 33 34 33 31 30 31 31 31 30 30 30 31 31 32 31 30 28 29 29 28 27 28 28
22 23 23 24 25 26 26 27 27 28 29 30 30 31 31 31 32 33 32 31 32 32 31 30 30 30 30 31 30 30 31 31 32 33 32 31 30 30 31 30 29 29
19 20 20 21 22 23 24 25 26 26 27 28 29 29 30 30 30 31 31 30 30 31 32 31 30 30 30 31 31 31 31 31 32 33 34 34 31 31 32 31 30 29
17 18 19 20 21 22 23 24 24 25 26 27 28 28 29 28 29 29 30 29 28 29 30 31 30 30 31 31 32 32 32 32 33 33 34 33 31 30 31 32 31 29
17 18 19 20 21 21 22 23 24 25 26 26 27 28 29 28 28 28 28 28 26 25 27 28 29 30 30 31 32 32 32 32 33 33 33 32 31 30 31 32 32 30
17 18 19 20 21 22 22 23 24 24 25 27 27 28 29 29 29 28 27 27 26 25 24 26 27 28 29 30 31 31 30 29 31 32 32 31 30 29 30 31 31 31
17 18 19 20 20 21 22 22 23 23 24 26 27 28 28 29 29 28 27 27 27 26 24 24 24 25 25 27 28 29 29 27 27 28 29 28 28 29 30 30 30 29
18 18 19 19 20 20 21 22 22 23 23 24 26 27 28 28 28 28 28 27 27 27 26 24 24 23 23 24 25 26 26 25 23 23 23 22 24 27 28 28 28 28

ECMWFNIL_700_spd_081.txt.gz
Wind_Speed
14 13 13 13 13 13 12 13 14 15 16 17 17 17 17 17 17 17 17 17 18 17 17 18 18 19 19 20 22 22 21 21 21 20 21 21 21 23 24 25 25 25
13 12 13 14 14 14 14 14 15 16 16 17 17 16 16 16 16 16 17 17 17 17 17 18 19 21 22 23 24 24 23 23 22 21 22 22 22 23 24 25 26 26
13 13 14 15 14 14 14 15 15 15 15 15 15 16 15 15 16 16 17 17 17 17 17 18 19 20 23 24 24 25 24 24 24 22 22 22 23 23 22 24 26 27
15 15 15 15 14 14 14 14 14 14 14 14 15 16 16 16 17 17 17 18 17 17 17 18 18 20 22 24 24 24 23 23 23 23 22 21 21 21 22 24 26 27
16 15 15 15 15 15 15 14 14 14 15 16 16 17 18 18 18 18 18 18 18 18 17 18 18 19 21 23 25 25 24 22 21 21 22 20 20 21 22 24 27 28
16 15 15 16 16 16 16 16 16 16 16 17 18 19 19 20 20 19 19 20 19 19 18 18 19 20 21 22 25 26 25 22 19 18 20 19 20 21 22 24 27 29
16 16 16 16 17 17 18 18 18 19 19 19 20 20 20 21 21 20 20 21 21 21 20 20 20 21 22 22 23 24 23 21 19 18 18 18 19 20 21 23 26 28
16 16 16 17 18 18 19 20 20 21 21 21 21 22 21 22 21 20 20 20 21 21 21 21 22 23 23 23 23 22 21 18 18 19 19 19 20 20 20 21 23 25
17 17 18 18 19 20 21 21 21 22 22 22 22 23 23 23 22 22 21 20 21 21 21 22 24 25 24 24 23 22 20 19 19 20 20 20 21 22 21 20 21 22
18 18 19 19 20 21 22 22 23 23 24 24 24 24 24 23 24 23 23 22 22 23 23 24 26 26 25 25 24 23 22 21 21 21 20 21 21 22 21 21 22 22
19 19 20 21 21 23 24 24 25 25 26 25 25 25 24 24 24 25 25 25 26 26 27 28 30 29 27 26 25 24 24 24 23 22 21 21 21 22 21 21 21 22
20 20 21 23 24 25 26 27 27 28 27 26 26 26 26 26 26 26 27 28 29 29 30 31 32 32 30 29 28 26 25 25 25 24 23 22 22 22 21 20 19 20
22 23 24 25 26 26 27 28 28 28 28 27 27 27 27 28 28 29 29 30 31 32 33 34 35 35 33 32 31 28 27 26 26 26 26 25 24 23 23 21 20 20
24 25 25 26 26 27 28 28 28 28 28 29 29 29 30 31 31 32 33 33 34 35 36 36 36 37 36 35 33 31 29 28 27 26 26 27 27 27 25 24 22 21
24 25 26 27 27 28 28 28 29 29 30 30 31 32 33 33 34 34 35 35 35 36 36 36 36 36 37 36 35 34 31 29 28 28 27 27 29 29 28 26 24 23
24 25 26 27 28 28 28 28 29 30 31 31 32 33 33 34 34 34 34 34 33 33 33 33 33 34 34 34 34 34 34 31 29 29 29 28 29 30 29 28 26 25
25 25 26 26 27 28 28 28 28 29 30 30 31 31 32 32 33 33 33 33 33 32 32 32 31 32 32 31 31 32 34 33 30 29 29 29 29 30 29 28 27 25
24 24 24 24 25 26 27 27 27 27 28 28 29 30 31 31 31 32 32 33 33 33 33 32 31 31 31 30 29 28 30 32 31 30 30 30 30 30 29 28 27 26
20 20 21 21 22 23 25 26 26 27 27 28 28 30 30 31 31 31 31 32 32 32 32 32 32 31 31 31 30 28 27 28 29 30 30 31 31 30 29 28 28 26
17 17 19 20 20 21 23 25 26 27 28 28 28 29 31 31 31 31 31 31 31 31 31 31 31 31 31 32 32 30 27 25 26 28 29 30 31 31 30 30 28 27
15 16 17 18 19 20 21 23 25 26 27 27 28 29 30 31 32 32 31 31 31 31 30 30 30 30 30 31 32 31 29 26 25 25 26 28 30 31 32 31 30 28
14 15 16 17 18 19 21 22 24 25 26 27 28 29 30 31 32 32 32 32 32 31 31 30 29 29 28 30 31 31 30 27 25 24 24 25 28 30 31 31 31 30
14 15 16 17 18 19 21 22 23 24 26 27 28 29 30 31 32 33 34 34 33 33 32 31 30 29 28 28 29 30 30 27 25 25 24 24 25 27 29 29 30 30
14 15 16 17 18 19 21 22 23 24 25 27 28 29 30 30 31 33 33 34 35 34 34 32 31 30 28 27 28 28 29 28 26 25 24 23 22 23 25 27 27 27
16 17 18 18 19 20 21 22 24 24 25 26 27 28 29 30 30 31 32 33 34 34 34 33 32 30 29 27 26 26 27 27 26 23 22 22 22 21 22 23 23 24
17 19 20 20 21 21 22 23 24 25 26 26 27 28 29 29 30 30 31 31 32 32 33 33 32 31 29 27 26 25 25 25 24 23 21 21 21 20 19 19 20 20

ECMWFNIL_700_spd_084.txt.gz
Wind_Speed
12 12 11 10 11 12 12 12 11 11 11 12 12 12 12 12 14 15 15 16 17 18 19 19 19 19 19 20 20 21 21 22 24 25 25 25 25 24 22 21 22 22
12 12 12 13 13 13 13 13 13 12 11 11 11 12 12 12 14 15 16 16 17 18 19 19 19 19 19 20 21 21 22 23 24 25 26 26 25 24 22 21 20 21
13 13 14 14 14 14 13 13 13 13 12 12 12 13 13 14 15 16 18 18 19 19 20 21 20 20 20 20 21 22 23 24 25 26 27 26 25 24 22 21 20 20
14 14 15 15 14 14 13 13 14 14 14 14 14 15 15 16 17 18 19 20 20 21 21 22 22 21 22 22 22 23 23 24 25 26 27 25 24 23 22 21 21 20
15 15 15 15 14 14 14 15 15 15 16 16 16 17 18 19 19 20 20 21 21 22 22 22 22 22 23 23 23 23 24 25 25 26 27 23 21 21 22 21 21 20
15 16 16 15 15 15 16 16 17 17 18 19 19 20 20 21 21 21 22 23 23 23 22 22 21 22 23 22 23 24 23 24 25 25 25 22 19 20 21 22 22 21
16 16 16 17 16 17 17 18 18 19 20 21 21 21 22 22 23 23 23 24 25 25 24 23 22 22 23 23 23 24 24 24 25 25 25 23 20 20 21 22 22 22
17 17 18 18 18 18 19 20 20 20 21 22 22 22 23 23 24 24 25 25 26 26 26 24 24 25 26 26 26 25 25 25 25 26 26 25 23 22 21 22 23 23
18 18 19 19 19 20 20 20 21 21 22 23 23 24 25 26 26 26 26 26 27 27 27 27 27 28 29 30 30 29 28 27 27 27 27 26 26 24 23 23 23 23
19 19 20 20 21 21 21 22 22 23 24 25 26 27 27 28 27 27 27 27 28 28 29 29 29 31 31 32 34 34 33 31 29 28 28 28 27 26 26 24 23 23
19 20 21 22 22 23 24 24 25 26 26 27 28 28 28 28 28 28 28 29 29 30 31 32 32 33 34 35 36 37 37 36 33 31 30 30 29 28 28 27 25 23
20 21 22 23 24 25 26 26 26 27 27 28 28 28 28 28 29 29 30 30 31 32 33 34 35 36 37 37 37 37 37 37 36 34 32 31 31 30 30 29 28 26
21 22 23 24 24 25 26 26 27 28 28 28 29 29 29 30 30 31 32 32 33 34 34 35 36 37 37 37 36 36 35 35 35 34 33 32 32 32 32 31 30 29
21 22 23 24 25 25 26 27 27 28 29 29 29 30 30 31 31 32 32 33 33 34 34 35 35 36 36 36 35 34 34 33 32 33 33 33 33 33 33 33 32 31
21 23 24 25 25 25 25 26 27 27 28 28 28 28 29 30 30 31 31 32 32 33 33 34 34 35 36 36 35 34 33 32 31 30 31 32 33 33 34 34 34 33
21 22 24 25 24 24 24 24 25 26 26 26 27 27 28 29 29 30 31 31 32 32 33 34 34 35 36 36 37 36 34 33 31 30 29 30 32 32 33 34 35 35
20 21 22 23 22 22 22 23 23 24 25 25 26 27 28 28 29 30 30 31 31 32 33 33 34 34 35 36 37 37 37 36 34 32 30 29 30 32 32 33 35 35
18 18 19 19 19 20 21 21 22 23 24 25 26 27 28 28 29 30 31 31 32 32 32 33 33 33 34 35 36 37 37 37 37 36 33 30 29 30 32 32 33 35
15 15 15 16 17 19 20 20 21 22 23 24 25 26 27 27 28 29 30 32 32 33 33 33 33 33 33 34 35 35 36 37 37 37 36 34 30 29 30 32 33 34
12 13 14 15 16 17 19 19 20 21 22 23 24 25 26 27 28 29 30 31 32 33 34 34 35 35 34 34 34 34 35 36 36 36 36 36 34 30 30 30 32 33
11 12 12 13 14 15 17 18 19 20 21 22 24 25 27 28 29 29 30 31 32 33 34 35 35 36 36 35 35 34 34 34 35 36 35 35 35 33 31 30 31 32
9 10 11 12 14 15 16 17 19 21 22 24 25 26 28 29 30 31 31 32 33 34 35 35 36 36 37 36 36 35 34 33 33 34 34 34 34 33 31 31 31 31
8 9 11 13 15 16 17 18 20 21 23 24 26 27 28 29 30 32 33 34 34 35 35 36 36 37 37 37 37 36 35 33 32 32 33 33 33 32 31 30 31 32
9 11 13 15 16 17 18 19 21 22 23 25 26 28 29 30 32 33 34 34 35 36 36 37 37 37 37 37 37 37 37 35 32 30 31 32 31 31 30 30 30 31
12 13 15 16 17 18 20 21 22 23 25 26 27 29 30 31 32 33 34 35 35 36 37 37 37 37 37 37 37 37 37 36 34 30 28 29 30 29 28 28 29 30
14 15 16 18 19 20 22 23 24 25 26 26 27 29 30 31 32 33 34 34 35 35 36 37 37 37 36 36 36 36 36 36 35 33 29 27 28 28 27 27 27 28

ECMWFNIL_700_spd_087.txt.gz
Wind_Speed
11 11 11 12 12 12 13 14 15 15 15 15 15 16 17 17 17 17 17 18 19 19 20 21 22 23 24 24 24 24 24 25 25 25 25 26 27 28 29 30 29 28
10 11 11 12 12 13 14 15 15 15 15 15 15 15 16 16 16 17 18 19 20 21 22 22 23 24 25 25 25 25 25 25 26 26 26 27 28 29 29 31 29 25
10 11 12 12 13 14 15 15 15 15 14 15 15 16 17 17 18 19 20 21 22 23 24 24 24 25 25 25 26 26 26 26 26 26 27 27 28 29 29 30 28 24
9 11 12 13 13 14 15 15 15 15 15 16 16 17 18 19 20 21 22 23 24 25 25 26 26 26 26 26 27 27 26 27 27 26 27 28 29 30 29 29 28 25
10 11 12 13 14 15 16 16 17 17 18 18 19 20 20 21 22 23 24 25 25 26 27 28 28 28 28 28 28 28 27 28 28 28 29 29 30 31 31 30 28 26
11 12 13 14 15 16 17 18 19 19 20 21 22 22 23 23 23 24 25 26 26 27 29 30 31 30 30 30 29 29 29 29 30 30 31 31 31 32 32 32 31 29
12 13 14 15 16 18 19 19 20 21 22 22 23 23 24 24 24 25 26 27 28 29 30 32 32 32 32 32 32 31 31 32 32 33 33 33 33 33 34 34 33 32
13 14 15 16 17 18 19 20 21 21 22 23 23 24 25 26 27 27 28 29 30 30 31 32 33 34 34 35 35 35 35 35 36 36 36 36 35 35 36 36 35 35
14 15 15 16 17 18 19 20 21 22 23 24 25 26 27 28 28 29 30 30 31 31 31 32 33 34 35 36 37 37 38 38 39 40 39 39 37 37 37 37 37 36
14 15 16 17 18 19 20 21 23 24 24 25 26 27 28 29 30 30 31 31 32 32 32 32 33 34 35 36 37 38 39 39 40 40 41 40 39 36 35 36 37 36
15 16 17 18 19 20 22 22 23 24 25 26 27 28 29 29 30 31 31 31 32 32 32 33 33 34 34 35 36 37 38 38 39 39 39 40 39 37 34 34 35 36
16 18 19 20 21 22 23 23 24 25 26 27 28 28 29 29 30 30 30 31 31 32 32 33 33 33 33 34 35 36 36 37 37 37 37 38 39 38 36 33 34 35
17 18 20 21 22 23 24 25 25 26 27 27 27 28 28 28 28 29 29 30 31 31 32 33 33 34 34 34 35 36 36 37 37 37 36 36 36 37 37 35 34 34
18 19 20 21 22 23 24 25 25 25 25 25 25 25 26 26 27 27 28 29 30 31 32 33 34 35 36 36 36 36 37 37 38 38 37 36 35 36 36 35 34 34
18 19 20 21 22 22 23 23 22 22 22 23 23 24 24 25 26 26 27 28 29 30 31 32 33 34 36 37 37 37 38 38 39 40 40 39 38 37 36 36 35 34
18 19 19 20 20 20 20 20 20 20 21 21 22 23 23 23 24 24 25 25 26 27 28 29 30 31 33 34 35 36 37 37 38 39 41 41 41 39 38 37 36 34
17 18 17 17 17 17 17 18 18 19 19 20 20 20 21 21 21 22 23 24 24 25 26 27 28 29 30 32 33 34 35 36 37 38 39 41 42 42 41 40 38 36
15 15 14 14 15 15 16 16 17 17 17 18 18 18 19 20 21 22 22 23 24 25 26 27 28 29 30 31 32 33 34 36 37 37 38 39 41 42 42 42 41 39
12 12 12 13 14 14 14 14 14 15 15 16 17 18 19 20 22 23 24 25 27 28 29 30 30 31 31 32 33 33 34 35 36 37 38 39 40 41 42 43 43 42
10 10 11 11 11 11 12 12 13 13 15 16 18 19 21 23 24 26 27 29 30 31 32 33 33 34 34 34 35 35 35 35 35 36 37 38 40 41 42 43 44 43
7 8 8 9 9 10 11 12 13 15 17 18 20 22 24 25 27 29 30 31 33 34 35 35 36 36 37 37 37 38 38 37 37 37 36 37 38 39 41 42 43 44
4 4 5 7 9 10 12 13 15 17 19 21 23 24 26 27 28 30 32 33 34 35 36 37 37 38 39 39 39 39 39 39 39 39 38 37 37 37 38 40 41 43
3 5 6 8 10 11 13 14 17 19 20 22 23 25 26 28 30 31 33 34 35 36 37 38 39 39 40 40 41 41 41 41 41 40 40 40 39 38 38 37 38 40
6 8 9 10 11 12 13 15 17 19 20 22 23 25 27 29 31 32 33 34 35 37 38 38 39 40 40 41 41 42 42 42 42 41 41 41 40 39 38 37 35 36
8 9 9 10 11 12 14 15 17 18 20 22 24 25 27 29 30 31 33 34 36 37 38 38 39 40 41 42 42 42 42 42 42 42 41 41 41 40 39 38 37 35
8 8 9 9 10 12 14 15 17 18 20 21 23 25 26 28 29 31 33 34 35 36 37 38 39 40 40 41 42 42 42 41 41 42 41 40 40 40 40 39 38 36

ECMWFNIL_700_spd_090.txt.gz
Wind_Speed
14 13 12 12 12 12 12 12 13 13 15 16 16 16 16 17 18 19 20 21 22 23 23 24 25 25 26 26 26 27 27 27 27 27 27 27 28 27 27 27 28 28
14 13 12 11 11 12 12 12 13 14 15 15 16 17 17 18 19 20 21 22 23 24 25 26 26 27 27 27 28 29 29 29 29 29 29 29 29 29 29 29 29 30
13 12 11 11 11 11 12 12 13 14 15 16 17 18 19 20 21 22 23 24 25 26 26 27 27 28 29 29 30 31 31 31 30 30 30 30 31 31 31 32 32 32
13 12 12 11 11 11 12 12 14 15 16 17 18 19 20 21 23 24 25 25 26 27 27 28 29 30 31 32 32 33 33 33 32 32 32 32 32 33 33 33 34 34
13 12 12 12 11 11 12 13 15 16 17 18 19 20 22 23 24 25 26 27 28 29 30 31 32 32 33 34 34 34 34 34 34 34 34 33 34 35 35 35 35 35
13 13 12 12 12 12 13 14 16 17 18 19 20 22 23 24 25 26 28 29 30 31 32 33 34 34 35 35 35 35 35 35 36 36 36 36 36 37 37 37 37 36
13 13 13 12 12 13 14 15 17 18 19 20 21 23 24 25 27 28 29 30 31 32 33 34 34 35 35 36 36 36 36 37 37 37 38 39 39 39 39 39 38 37
13 13 13 13 13 14 15 16 18 19 20 21 23 24 25 26 28 29 30 31 32 33 33 34 34 35 35 36 36 36 36 37 37 38 38 39 40 40 40 40 39 38
13 14 14 14 14 15 16 17 19 20 21 23 24 25 26 28 29 30 31 32 32 32 33 33 33 34 34 35 35 35 35 35 36 37 37 38 38 39 39 40 40 39
14 15 15 15 15 16 17 19 20 21 22 23 25 26 28 29 30 30 30 30 30 30 31 31 31 32 32 33 34 34 35 35 35 36 37 37 38 38 38 39 39 39
16 16 16 16 16 17 18 19 20 21 23 24 26 27 28 28 28 28 28 28 29 29 30 30 30 31 31 32 33 34 34 35 35 36 36 37 38 38 38 39 38 39
16 16 16 16 16 17 18 19 21 22 23 24 25 25 25 26 26 26 27 28 28 29 29 29 29 29 30 31 31 32 32 33 33 34 35 35 36 37 37 38 38 38
17 17 16 16 16 17 18 20 21 21 22 22 23 24 24 25 25 25 26 26 26 26 26 26 26 26 27 27 28 29 29 30 31 31 32 32 34 35 35 36 36 37
17 16 15 15 16 17 18 18 19 19 20 21 22 22 22 23 22 22 22 22 22 23 23 24 24 24 24 24 25 27 27 29 30 30 31 31 32 33 34 35 35 35
16 15 14 15 16 16 16 16 17 18 19 19 20 20 19 19 18 18 18 19 20 21 21 23 24 25 26 26 26 27 28 30 31 32 32 33 33 34 34 35 36 36
14 14 14 13 13 14 14 15 16 17 17 16 16 16 15 15 15 16 17 18 19 20 22 23 25 26 28 29 30 30 31 31 32 33 34 35 35 35 35 36 36 37
12 12 11 11 12 12 13 14 14 13 13 13 13 13 13 14 15 16 18 19 21 22 24 25 27 28 30 31 32 33 34 34 34 35 35 36 37 37 37 37 37 38
10 9 9 10 10 11 11 10 10 10 10 10 11 12 13 15 17 18 20 22 23 25 26 27 29 30 31 33 34 35 36 37 37 37 38 38 38 39 39 40 40 39
7 7 8 8 8 8 7 7 8 8 9 10 12 14 16 18 19 21 22 24 26 27 28 30 31 32 33 34 35 36 37 38 38 39 39 40 40 40 41 41 41 41
5 6 6 6 5 5 5 6 7 8 10 12 14 16 18 19 21 23 24 26 27 29 30 31 32 33 34 35 36 37 38 39 40 40 41 41 42 42 42 43 43 43
3 3 3 3 3 4 6 7 8 10 12 14 15 17 19 21 22 24 26 27 29 30 32 33 34 35 35 36 37 38 39 40 41 42 42 42 42 43 43 43 44 44
1 2 3 4 5 6 7 8 10 12 13 15 17 18 20 22 23 25 26 28 29 31 32 33 35 36 37 38 39 40 41 41 42 43 43 43 42 42 42 43 43 44
2 4 5 5 6 6 7 9 10 12 14 15 17 19 21 22 24 25 27 28 29 31 32 34 35 37 38 40 41 42 42 43 43 43 43 43 42 42 42 42 42 43
5 5 5 5 6 6 7 9 11 13 14 16 18 20 21 23 25 26 27 28 30 31 33 34 36 38 39 40 42 43 44 44 44 44 43 43 41 41 41 41 41 42
5 4 4 4 5 6 8 10 12 14 15 17 19 20 22 23 25 26 27 28 30 31 33 34 36 38 39 41 42 43 44 45 45 44 43 42 42 41 41 41 42 42
3 3 4 5 6 7 9 11 13 14 16 17 18 20 21 23 24 25 27 28 30 31 33 34 36 38 40 41 43 44 44 44 44 44 43 42 42 42 42 43 43 43

ECMWFNIL_700_spd_093.txt.gz
Wind_Speed
15 15 14 14 14 14 13 12 11 11 11 12 13 14 14 15 16 17 18 20 21 22 23 24 25 25 25 26 26 27 28 29 30 30 31 31 30 30 30 30 30 30
16 15 15 15 15 14 13 12 12 12 12 13 13 14 15 16 17 18 19 21 22 23 24 25 25 26 27 28 29 30 31 31 32 32 32 32 31 31 30 30 31 31
16 16 15 15 15 14 13 13 13 13 13 14 14 15 16 17 18 19 20 21 22 23 24 26 27 28 29 30 31 32 32 33 34 34 35 35 34 33 33 32 32 32
16 16 15 15 14 14 14 14 14 14 14 14 15 16 17 18 18 19 20 22 23 25 26 28 29 30 32 32 33 34 34 34 35 35 36 36 36 36 35 35 35 34
16 15 15 15 14 15 14 14 15 15 15 15 16 16 17 18 19 21 22 24 26 27 29 30 32 33 33 34 34 34 34 34 34 34 35 35 36 36 36 36 36 36
16 15 15 15 15 15 15 15 15 16 16 16 16 17 18 20 21 23 25 26 28 29 30 31 32 32 32 32 32 32 32 33 33 34 34 35 36 36 36 36 36 37
15 15 15 15 16 16 16 16 16 16 17 17 17 18 20 22 23 25 27 28 29 30 30 30 30 30 30 31 32 32 32 33 33 34 34 35 36 36 36 36 37 37
15 15 15 16 16 16 16 17 17 18 18 18 19 20 22 23 25 26 27 28 28 29 29 29 30 30 31 31 31 32 32 32 32 31 32 32 33 33 34 34 35 35
15 15 15 15 16 16 17 17 18 18 19 19 20 21 22 24 25 25 26 26 27 27 28 29 29 29 29 29 29 29 29 29 29 29 30 30 31 31 32 32 33 33
14 14 15 15 16 16 17 18 19 19 19 20 20 21 22 23 23 24 25 25 26 26 26 25 25 26 26 26 26 27 27 28 29 29 30 30 31 31 32 32 33 33
13 14 14 15 15 16 17 18 19 19 19 19 19 20 20 21 22 23 23 23 23 22 22 22 22 23 24 25 26 26 27 28 28 29 30 31 31 32 33 33 34 34
13 13 14 14 15 16 17 18 18 18 18 18 18 19 20 20 20 20 20 19 19 19 20 21 22 23 24 25 26 27 27 28 28 29 30 30 31 32 33 34 34 35
12 12 13 14 15 16 16 17 16 16 16 16 17 18 18 18 17 17 17 17 18 19 20 21 22 23 24 25 26 27 28 29 29 30 30 31 32 32 33 33 34 35
11 12 12 13 14 14 14 14 13 14 15 15 15 15 14 14 14 14 15 16 18 19 20 22 23 24 25 26 27 28 29 30 31 31 32 32 33 34 34 34 35 35
10 11 11 12 12 12 11 11 12 13 13 12 12 11 11 12 13 14 16 17 18 19 21 23 24 25 26 27 28 29 30 31 32 33 34 34 34 35 35 35 36 36
9 10 10 10 9 9 9 10 10 10 9 9 9 9 10 12 13 14 16 17 19 21 22 24 25 26 28 29 29 30 31 32 33 34 35 36 36 36 36 36 37 37
8 8 7 7 6 7 8 8 7 6 6 7 8 9 10 12 14 15 17 19 20 22 23 25 26 27 28 30 31 32 33 34 35 36 36 38 38 39 39 39 39 39
5 5 4 4 5 5 5 5 4 5 6 7 8 9 11 13 14 16 18 20 21 23 24 25 27 28 29 30 32 33 34 35 37 38 38 39 40 40 41 41 41 41
3 2 2 3 3 3 3 3 4 5 6 7 8 10 12 13 15 17 18 20 22 23 25 26 27 28 29 31 32 34 35 37 38 39 40 41 41 41 42 42 42 42
1 1 0 1 2 3 3 3 4 5 6 8 9 11 13 14 16 18 19 21 22 24 25 26 27 29 30 31 33 34 36 37 39 40 41 41 41 42 42 42 42 43
2 2 2 3 4 4 3 3 4 5 7 8 10 12 13 15 17 18 20 21 23 25 26 27 28 29 30 32 33 34 36 38 39 40 41 41 41 40 41 42 42 43
4 4 5 5 5 3 2 3 4 6 8 9 11 13 14 16 17 19 21 22 24 25 27 28 29 30 32 32 33 35 36 38 39 40 40 40 40 39 40 41 42 43
6 6 6 5 3 2 2 4 6 7 9 11 12 14 15 17 18 20 22 23 25 26 27 29 30 31 32 33 35 36 38 39 40 41 40 40 39 39 39 39 40 42
8 7 6 3 2 2 3 5 7 9 10 12 13 15 16 18 20 21 23 24 25 27 28 29 30 31 33 34 36 37 39 40 41 41 41 40 39 38 39 39 39 40
8 6 4 2 1 3 4 6 8 10 11 13 14 16 17 19 21 22 24 25 25 26 27 29 30 31 33 35 37 38 40 41 42 42 41 41 40 39 39 39 40 40
7 5 2 0 2 4 5 7 9 10 12 13 15 17 18 20 21 23 24 25 26 26 27 29 30 32 33 35 37 39 41 42 42 42 42 41 41 40 40 40 41 41

ECMWFNIL_700_spd_096.txt.gz
Wind_Speed
18 17 16 16 16 16 16 16 15 15 15 15 15 15 15 16 16 17 17 18 18 19 20 20 22 23 24 25 27 28 29 30 31 31 32 32 32 32 32 32 32 31
19 17 17 17 17 17 16 16 16 16 16 16 16 16 16 17 17 18 18 18 18 19 20 21 23 25 26 28 29 31 31 32 32 31 31 31 31 31 31 31 32 32
19 19 18 18 18 18 17 17 17 17 17 16 16 17 17 18 18 18 18 18 19 20 22 24 26 28 29 30 30 31 31 31 30 31 31 31 31 31 32 32 32 33
20 20 19 19 19 18 17 17 17 17 17 17 17 18 18 18 18 18 18 19 21 23 25 26 28 29 29 29 29 29 29 30 30 30 30 30 30 30 30 30 30 31
20 20 19 19 19 18 18 18 17 17 17 17 18 18 19 19 19 19 20 21 23 25 26 27 27 27 27 27 27 27 27 27 27 27 27 27 27 27 27 28 29 29
19 19 19 19 18 18 17 17 17 17 17 18 18 19 19 19 20 20 22 23 24 25 25 26 25 25 25 24 24 23 23 23 24 24 25 26 27 28 28 29 30 30
18 18 18 17 17 17 17 17 17 17 17 18 18 19 19 20 21 22 23 23 23 24 24 23 23 22 21 21 21 21 22 23 24 25 26 27 28 29 29 30 30 31
17 17 16 16 16 16 16 16 16 16 17 17 18 19 20 20 21 22 22 22 22 22 21 20 19 19 20 21 22 23 24 25 26 27 28 28 29 29 30 30 31 31
15 15 15 15 16 16 16 15 16 16 16 17 17 19 20 20 20 20 19 19 19 18 17 17 18 19 21 22 23 24 25 26 26 27 28 28 29 29 30 30 31 31
15 15 15 15 15 15 15 14 15 15 15 16 17 18 18 18 18 17 16 16 15 15 16 18 19 21 22 22 23 24 25 25 26 26 27 28 29 30 30 31 32 32
14 14 14 14 13 13 13 13 14 14 15 15 16 16 16 15 14 14 13 13 14 15 17 18 20 21 21 22 23 24 24 25 26 26 27 28 29 30 31 32 33 34
14 13 12 12 12 12 12 12 13 13 13 13 14 13 12 11 11 11 11 13 14 16 17 18 19 20 21 22 23 24 24 25 26 27 27 28 29 30 31 32 33 34
12 12 11 11 11 11 11 11 11 11 11 11 11 10 8 8 9 10 12 13 15 16 17 18 19 20 21 22 23 24 25 26 27 28 29 30 31 31 32 33 34 34
11 10 10 10 10 9 9 9 9 9 9 8 7 6 6 7 9 10 12 13 15 16 17 19 20 21 22 23 24 25 26 27 28 29 30 31 32 33 34 34 35 35
10 10 9 9 8 7 7 6 6 6 6 4 4 5 6 8 9 11 12 14 15 17 18 20 21 22 23 24 25 26 27 29 30 31 32 32 33 34 35 35 36 36
9 8 8 7 6 5 5 4 4 3 2 2 3 5 7 8 10 11 12 14 16 17 19 20 21 23 24 25 26 27 28 29 30 32 33 33 34 34 35 35 36 36
8 7 6 5 4 4 3 2 1 0 1 2 4 6 7 9 10 11 13 15 16 18 19 21 22 23 24 25 26 27 28 30 31 32 33 34 35 35 36 36 36 36
8 6 5 5 4 3 2 2 3 2 2 3 5 6 7 9 10 12 14 15 17 18 19 21 22 23 24 26 27 28 29 30 31 32 33 34 35 36 37 37 37 36
10 9 7 6 4 3 4 4 3 2 2 4 5 6 8 10 11 13 14 16 17 18 20 21 22 23 24 26 27 28 29 30 31 33 34 35 36 37 37 37 37 37
10 8 7 6 6 6 5 4 2 1 3 4 6 7 9 10 12 13 15 16 18 19 20 21 22 23 24 25 27 28 29 31 32 33 34 35 37 37 38 38 38 39
9 8 7 7 8 7 5 3 1 2 3 5 7 8 10 11 12 14 15 17 18 19 20 21 22 23 24 25 26 27 29 30 31 32 34 35 36 37 37 38 38 39
10 9 9 9 8 6 4 1 1 2 4 6 7 9 10 11 13 14 16 17 18 19 21 21 22 23 24 25 26 27 28 29 30 32 33 35 36 37 37 37 37 39
11 11 10 9 7 5 3 1 1 3 5 6 8 9 11 12 13 15 16 18 19 20 21 22 23 24 24 25 26 27 28 29 31 32 34 35 36 36 36 37 37 38
12 12 10 8 6 4 2 1 2 4 5 7 8 10 11 12 14 15 16 18 19 20 22 22 23 24 25 26 26 27 28 30 32 33 34 36 36 36 36 36 36 37
13 12 9 7 5 3 2 2 3 5 6 8 9 11 12 13 14 16 17 18 19 21 22 23 24 24 25 26 27 28 29 31 32 34 35 36 37 36 36 36 36 37
13 11 8 6 4 2 1 3 4 5 7 8 10 11 12 13 15 16 17 18 20 21 21 22 24 24 25 26 27 28 30 31 32 34 35 36 36 37 36 36 36 37

ECMWFNIL_700_spd_099.txt.gz
Wind_Speed
21 21 21 20 20 19 18 18 18 18 18 17 17 17 17 16 16 17 17 18 20 20 21 21 22 23 25 27 28 29 30 30 29 29 28 27 26 26 25 25 24 24
22 22 22 21 21 20 19 19 19 19 19 18 17 17 17 17 17 18 18 19 20 21 21 22 23 25 27 28 29 29 28 27 26 25 24 24 23 23 23 23 24 24
23 23 23 22 22 21 20 20 20 20 19 18 18 17 17 17 18 18 19 20 21 21 22 24 26 27 28 28 28 27 25 24 22 22 22 22 23 24 25 25 26 26
24 24 23 22 22 21 21 21 20 20 19 18 18 18 18 18 18 19 19 20 21 22 24 25 27 27 27 25 24 22 21 21 21 22 23 24 25 25 26 27 27 28
24 24 23 22 22 22 21 21 20 19 18 18 18 18 18 18 18 19 19 20 21 23 24 25 25 24 22 20 19 19 20 21 22 23 24 25 25 26 27 27 28 28
23 23 23 22 22 21 21 20 20 18 18 17 17 17 17 18 18 19 19 20 22 23 23 23 21 19 18 18 18 19 21 22 23 24 25 25 26 26 27 27 28 28
20 21 22 21 21 20 19 19 18 17 17 17 17 17 17 17 17 18 19 20 21 21 20 18 17 16 17 18 19 20 21 22 23 24 25 25 26 26 27 27 27 28
18 18 19 19 18 18 17 17 16 16 16 15 15 15 15 16 16 17 18 19 19 18 16 15 15 16 17 18 20 21 22 23 23 24 25 25 25 26 27 27 28 28
16 16 16 16 16 16 15 15 15 15 14 14 14 14 14 14 15 16 16 16 15 14 13 14 15 16 17 19 20 21 22 23 23 23 24 24 25 26 26 27 28 29
16 15 15 15 14 14 14 14 14 13 13 12 12 12 12 13 13 14 13 13 12 12 13 14 15 16 18 19 20 21 22 22 22 22 23 24 25 26 27 28 29 30
14 14 14 14 14 14 14 13 13 12 11 11 10 10 11 11 11 10 10 10 10 11 13 14 15 17 18 19 20 20 21 21 21 22 23 24 25 26 27 29 30 31
14 13 13 13 13 13 12 12 11 10 10 9 9 9 8 8 7 7 8 9 10 12 13 14 16 17 18 19 20 20 20 21 21 22 23 24 26 27 29 30 31 32
13 12 12 12 12 12 11 10 10 9 8 7 7 7 6 5 5 6 7 9 10 12 13 15 16 18 19 19 20 20 20 21 22 23 24 25 27 28 30 31 32 32
12 12 12 11 11 10 10 9 8 7 6 6 5 4 3 4 5 6 8 9 10 12 13 15 17 18 19 20 20 21 21 22 23 24 25 26 28 29 30 31 32 33
12 12 11 11 10 10 9 8 6 5 4 4 3 3 3 4 5 7 8 10 11 13 15 16 17 18 19 20 21 21 22 23 23 25 26 27 28 30 31 32 33 33
12 11 11 11 11 10 8 7 5 4 3 3 3 3 3 4 6 7 9 11 13 15 16 17 18 19 20 20 20 21 22 23 24 26 27 28 28 29 30 31 32 33
12 11 11 11 10 9 8 6 5 5 5 4 3 3 3 5 6 8 10 12 14 16 17 18 19 20 20 20 21 21 22 24 25 27 27 28 29 29 29 30 31 32
12 12 11 10 9 9 8 7 7 7 6 4 3 3 4 5 7 9 11 13 14 16 17 19 19 20 20 20 21 22 23 24 26 27 27 28 29 29 30 31 32 33
13 12 12 11 10 9 9 9 8 7 5 3 2 3 5 6 8 10 12 13 15 16 17 18 19 19 20 20 21 22 23 24 25 26 26 27 29 30 31 32 33 34
14 13 13 12 11 10 10 9 8 6 4 2 2 4 6 7 9 11 12 14 15 16 17 17 18 19 19 20 21 22 23 23 24 25 26 28 29 30 31 32 34 35
15 14 13 11 10 10 11 10 7 4 3 2 3 5 7 8 10 11 13 14 15 15 16 16 17 18 19 20 21 21 22 23 24 25 26 27 29 30 31 32 33 35
15 13 11 11 12 12 11 8 5 3 2 2 4 6 7 9 11 12 13 14 14 15 16 16 16 17 18 19 20 21 22 23 24 25 26 27 29 30 31 32 33 34
14 13 12 13 13 12 9 6 4 2 2 3 5 6 8 9 11 12 13 13 14 15 15 15 16 17 18 19 20 21 22 23 24 25 26 27 28 29 31 33 33 33
15 14 14 14 13 10 7 5 3 2 2 3 5 7 8 9 10 11 12 13 14 15 15 15 16 17 18 19 20 20 21 22 24 25 26 26 28 29 31 32 33 33
16 15 15 14 12 8 6 4 3 2 3 4 5 7 8 8 9 11 12 13 14 14 15 15 16 17 18 19 20 21 22 23 24 25 26 26 27 29 30 31 32 33
17 16 15 13 10 7 6 4 3 2 3 4 5 6 7 8 9 11 12 13 13 14 15 16 17 18 18 19 20 21 22 23 24 25 25 26 27 29 30 31 32 33

ECMWFNIL_700_spd_102.txt.gz
Wind_Speed
20 20 21 21 21 21 21 20 19 18 18 18 19 18 18 17 16 15 15 15 15 16 17 17 18 19 20 22 24 26 26 26 25 25 24 23 23 22 23 23 24 24
21 21 22 22 23 22 21 21 20 19 19 19 19 19 18 17 16 16 15 15 16 16 17 18 18 20 22 23 25 24 24 24 23 23 23 23 23 24 24 25 25 26
21 22 22 22 23 23 22 21 20 20 20 19 19 18 17 16 16 16 15 16 16 16 17 18 19 21 22 23 23 23 22 22 22 22 23 23 24 24 25 26 26 26
20 22 23 23 23 22 22 21 21 20 20 19 18 17 16 16 15 15 15 16 16 16 17 18 19 20 21 21 21 20 20 21 21 22 23 23 24 25 25 26 26 26
17 18 20 21 22 22 21 21 20 19 19 17 16 16 15 15 15 15 15 15 15 16 16 17 18 19 19 19 19 19 19 20 21 22 23 24 25 25 26 26 26 26
13 14 15 17 19 20 20 19 18 17 16 15 15 15 14 14 14 14 14 14 14 15 16 16 17 17 17 17 18 18 19 21 22 23 24 24 25 25 26 26 26 26
13 13 14 15 16 17 17 17 16 15 14 14 14 14 14 14 14 13 13 13 13 14 14 15 15 15 16 17 17 19 20 21 22 23 24 25 25 25 25 26 26 26
14 13 13 13 14 15 14 14 14 13 13 13 13 13 13 13 13 12 12 12 12 12 13 13 14 14 15 16 18 19 20 21 22 23 24 24 25 25 25 25 26 26
13 13 12 12 12 12 12 12 12 12 13 13 13 13 12 12 12 11 11 10 10 11 11 12 13 14 15 17 18 20 21 22 22 23 24 24 24 25 25 26 27 27
13 13 11 11 11 11 11 11 12 12 12 13 12 12 11 11 10 9 9 9 9 10 11 12 13 14 16 18 19 20 21 22 23 23 23 24 24 25 25 26 27 28
13 12 11 11 11 11 11 11 12 12 12 12 12 11 10 9 8 8 8 8 9 10 11 12 13 15 17 18 19 21 22 22 23 23 23 23 24 25 26 27 28 28
13 12 11 11 11 11 11 11 11 12 11 11 10 9 9 8 7 7 7 8 9 10 11 13 14 16 17 19 20 21 22 22 22 22 22 23 24 25 26 27 28 29
13 12 11 11 10 11 11 11 12 11 11 10 9 8 7 6 6 6 7 8 9 10 12 13 15 17 18 19 20 21 21 21 21 21 22 23 24 25 26 28 29 29
13 12 11 10 10 10 11 11 11 11 10 9 8 6 5 5 5 5 6 8 9 11 13 14 16 18 19 20 20 20 20 20 20 21 22 23 24 25 26 27 28 29
12 11 10 10 10 10 10 10 10 9 9 7 6 5 4 4 5 5 6 8 9 11 13 15 17 18 19 20 20 20 20 20 20 21 22 23 24 25 25 26 28 29
12 11 10 10 9 9 9 9 8 7 7 6 6 5 5 4 5 6 7 9 10 12 14 15 17 17 18 19 19 19 20 20 21 22 23 24 24 25 26 27 28 29
12 11 10 10 9 9 8 8 7 7 6 6 6 5 5 5 5 6 8 9 11 13 14 16 17 18 18 18 19 19 20 20 21 22 23 24 24 25 26 27 28 29
12 11 10 10 10 9 8 7 7 6 6 7 7 6 6 5 5 6 8 10 12 14 15 16 17 18 18 19 19 19 20 20 21 22 23 23 24 25 25 27 28 29
12 11 11 11 10 9 8 7 7 7 8 8 7 6 5 4 5 7 9 11 13 15 16 16 17 18 18 18 18 18 19 19 20 22 23 23 24 25 26 27 28 28
12 12 11 11 9 8 8 8 8 8 8 7 5 5 5 5 7 8 10 12 13 15 16 16 17 17 17 17 18 18 18 20 20 21 22 23 24 26 26 27 28 29
13 12 12 10 9 9 9 9 8 7 7 6 5 5 5 6 7 9 10 12 13 14 15 16 16 17 17 17 17 18 19 19 20 21 22 23 24 25 26 27 28 30
13 13 12 11 10 10 10 9 9 8 7 6 5 5 5 6 8 9 10 11 12 13 14 15 15 16 16 16 17 17 18 19 20 21 22 23 24 25 26 27 28 30
14 13 12 11 11 10 10 10 10 8 7 6 5 5 6 7 8 9 10 11 12 13 13 14 14 14 15 15 16 17 17 18 19 21 22 23 24 25 26 27 28 29
14 13 12 11 11 12 12 11 10 8 7 5 5 5 6 7 8 8 9 10 11 12 12 12 13 13 14 14 15 16 17 18 19 21 22 23 24 24 25 27 28 29
14 13 12 12 13 13 13 11 10 8 6 5 5 5 6 7 7 8 8 10 10 10 11 11 11 12 13 14 15 16 17 18 19 20 21 22 23 24 25 26 27 29
14 14 14 14 14 14 14 11 9 7 6 5 5 6 6 6 6 7 8 9 9 9 9 10 10 11 12 13 15 16 17 18 19 20 21 22 23 24 24 26 27 28

ECMWFNIL_700_spd_108.txt.gz
Wind_Speed
16 16 17 17 17 17 17 18 19 19 19 19 19 19 19 18 18 18 17 17 16 16 15 15 15 15 15 15 15 16 16 16 17 17 18 18 19 21 22 22 23 23
17 17 18 18 18 17 17 18 19 19 19 20 20 19 19 18 18 17 17 16 16 16 15 14 15 15 15 15 15 15 16 16 17 18 18 18 19 20 22 23 23 23
17 17 18 18 17 17 17 18 18 18 19 20 20 19 19 18 17 17 16 16 15 14 14 14 14 14 15 15 15 15 16 16 17 18 18 18 19 21 22 22 23 23
15 16 17 17 17 16 16 16 17 17 18 19 19 19 18 17 16 16 15 15 14 13 13 13 14 14 15 15 15 15 16 16 17 17 17 18 19 21 21 22 22 23
14 15 16 16 16 15 15 15 15 16 17 18 18 17 16 15 15 14 14 13 12 13 13 14 14 14 15 15 15 15 15 16 16 17 17 18 20 21 21 21 22 22
12 14 14 14 14 14 14 14 15 16 16 16 15 15 14 13 13 12 12 11 12 13 13 14 14 14 15 15 14 15 15 15 16 17 18 18 19 20 20 20 21 22
12 14 14 14 14 15 14 15 15 15 14 13 12 12 12 11 10 10 10 11 12 13 13 14 14 14 14 14 14 14 14 15 16 18 18 18 18 19 19 20 21 22
13 14 14 15 15 15 15 14 13 12 11 11 10 10 9 9 9 9 10 11 12 13 14 14 14 13 13 13 13 14 15 15 17 17 18 17 17 18 18 20 21 23
15 15 15 15 15 15 14 13 12 10 9 8 7 8 8 8 8 9 10 11 12 13 13 13 12 12 12 13 13 14 15 16 17 17 17 17 17 18 19 20 22 23
16 16 16 15 15 14 12 11 10 8 7 6 6 7 8 7 8 9 10 11 12 12 12 11 11 11 12 13 14 15 16 16 16 16 16 17 17 18 19 20 22 23
17 17 16 14 13 12 11 9 8 6 5 5 6 7 7 7 9 10 10 11 11 11 10 10 11 12 13 14 14 15 15 15 15 16 16 17 18 19 19 20 21 23
15 16 15 13 12 11 9 8 6 5 5 6 7 7 7 8 9 10 10 10 10 10 10 11 12 12 13 14 15 15 15 15 15 15 16 17 18 19 20 21 22 22
14 14 14 12 11 9 8 7 6 5 6 7 7 7 7 8 9 9 9 9 9 10 10 11 12 12 13 14 14 14 14 14 15 15 16 17 18 20 21 21 22 22
13 13 13 12 10 8 7 7 6 6 7 7 7 8 8 9 9 9 9 9 9 10 11 11 12 12 13 13 13 13 13 14 14 15 16 17 19 20 21 22 23 23
13 13 13 11 9 8 8 7 6 6 7 8 8 8 9 9 9 9 9 9 10 10 11 11 12 12 12 12 12 13 13 14 14 15 16 18 19 20 21 22 23 24
13 12 12 11 9 8 8 7 7 7 8 9 9 9 9 9 9 9 9 9 10 10 10 11 11 11 11 11 12 12 13 14 15 16 16 17 19 20 21 22 23 24
13 13 12 11 10 9 8 8 7 9 10 10 9 9 9 10 9 9 9 9 10 10 10 11 11 10 10 11 11 12 13 14 15 16 16 17 18 19 21 22 22 23
13 14 12 11 10 9 9 8 9 10 10 10 10 10 10 10 9 9 9 9 9 9 10 10 10 10 10 10 11 12 13 14 15 15 16 16 18 19 20 21 22 23
14 14 13 11 11 10 9 9 10 11 11 10 10 10 10 10 9 9 9 9 9 9 9 9 9 9 9 10 11 12 12 13 14 15 16 16 17 18 19 20 21 22
15 15 13 12 12 11 10 11 11 12 11 11 11 11 10 10 9 9 9 8 8 8 8 7 8 8 9 10 10 11 12 12 14 15 16 16 17 18 19 20 21 22
16 16 14 13 13 12 12 12 12 12 12 11 11 11 11 10 10 9 8 8 7 7 7 7 7 8 9 9 10 10 11 12 14 15 15 16 17 18 19 20 21 22
16 16 15 14 13 13 13 13 13 13 13 13 12 11 11 10 10 9 8 7 6 6 6 6 7 7 8 8 9 10 11 12 13 14 14 15 16 18 19 20 21 22
16 17 15 14 13 14 14 14 14 14 14 13 12 11 11 11 9 8 7 6 5 5 5 6 6 6 7 7 8 9 11 12 12 13 14 15 16 17 18 20 21 22
17 18 16 14 14 15 15 15 15 15 14 14 13 12 11 10 9 7 6 5 4 5 5 5 5 5 6 6 7 9 10 11 11 12 14 15 17 17 18 20 21 23
17 18 16 15 16 16 16 17 16 16 15 15 14 13 11 10 8 7 6 5 4 4 4 4 4 4 5 6 7 8 9 9 11 13 14 16 17 18 19 21 22 23
17 18 17 16 17 17 18 18 18 17 16 16 15 14 12 10 8 6 5 5 4 4 3 2 2 3 3 5 6 7 8 9 11 13 15 16 17 18 20 21 23 23

ECMWFNIL_700_spd_111.txt.gz
Wind_Speed
16 17 17 17 17 17 17 18 18 18 18 18 18 18 19 19 19 19 18 18 18 17 17 17 16 16 15 16 16 16 16 17 17 18 20 20 21 21 22 23 24 25
15 15 16 15 15 15 17 18 19 18 18 18 18 19 19 19 19 19 18 17 17 17 17 17 16 15 15 15 15 16 16 16 17 18 19 20 21 22 23 24 24 24
14 14 14 14 15 16 17 18 18 18 17 17 19 19 20 19 19 18 17 17 17 17 16 16 15 14 14 14 15 15 16 16 17 18 19 20 22 23 24 24 23 23
14 14 14 14 14 15 16 17 17 16 16 18 19 19 19 18 17 17 17 16 16 16 15 14 14 14 14 14 14 15 15 16 17 18 20 21 22 23 23 23 23 23
14 13 13 13 14 15 16 16 16 15 16 17 18 17 16 16 16 16 16 16 15 14 14 13 13 13 14 13 13 14 15 17 18 19 20 21 22 22 22 22 22 22
13 12 11 12 13 13 14 14 15 15 15 15 15 15 15 16 16 16 15 15 14 13 13 13 13 13 13 13 13 14 16 18 19 20 20 21 21 21 21 21 21 22
12 11 11 11 11 12 13 13 14 14 14 13 13 14 15 16 16 15 14 13 12 12 12 12 12 12 12 13 13 15 17 18 19 19 20 20 20 20 20 21 21 22
12 11 10 10 11 12 13 14 14 14 13 13 14 15 15 15 14 13 12 11 11 12 12 12 12 12 12 13 14 16 17 18 19 19 19 19 19 19 20 21 21 22
12 12 12 12 13 14 14 14 14 14 14 14 14 15 15 14 12 11 11 11 11 11 11 12 12 12 12 13 15 16 17 18 18 19 18 18 18 19 20 21 21 22
14 14 15 15 15 15 15 15 15 15 14 14 15 14 13 12 11 11 11 10 11 11 11 11 11 11 12 13 15 16 17 17 18 18 18 17 18 19 20 20 21 22
15 15 16 15 15 16 17 16 15 14 14 14 15 13 12 11 11 11 11 11 11 11 11 11 11 11 13 14 15 16 16 17 17 16 17 17 17 18 19 20 20 21
15 14 14 15 16 17 18 17 15 14 14 14 14 12 11 11 11 11 10 11 10 10 10 10 11 12 13 14 15 16 16 16 15 16 16 17 17 18 18 19 20 21
13 13 14 15 16 17 18 16 14 14 14 14 12 11 10 10 10 11 11 10 10 10 10 10 11 12 13 14 15 16 16 15 15 15 16 16 16 17 17 18 20 21
12 13 15 15 16 17 17 15 14 14 14 13 12 11 10 10 10 11 10 10 9 9 10 11 12 12 13 14 15 15 14 14 14 15 16 16 16 16 17 18 19 21
13 14 14 14 16 17 17 15 15 14 14 12 11 11 10 10 11 11 10 10 10 10 10 11 12 13 14 15 14 14 13 13 14 14 15 15 16 17 17 18 20 21
13 14 14 14 16 17 17 16 15 15 13 12 11 11 10 11 11 11 10 10 10 10 11 11 12 13 14 14 13 12 12 13 13 14 14 15 16 17 18 19 20 21
14 14 14 15 16 17 17 16 15 15 13 12 11 11 10 11 11 11 11 11 11 11 11 11 12 13 13 12 12 11 12 12 13 13 14 15 16 17 18 19 20 21
14 15 15 15 17 18 18 17 16 15 14 12 11 11 11 12 12 12 12 11 11 11 11 11 12 12 12 11 11 11 11 11 12 13 14 15 16 17 18 19 20 21
16 16 15 16 18 19 18 17 16 15 14 13 12 12 12 13 13 12 12 11 11 11 11 12 12 11 10 10 10 10 10 10 11 12 13 14 16 17 17 18 19 21
17 17 16 17 18 20 19 18 17 16 15 13 13 13 14 14 14 13 12 12 11 11 11 11 11 10 9 9 9 9 9 10 10 11 13 14 15 16 17 18 19 20
17 17 18 18 19 21 20 19 18 16 15 14 14 14 14 15 14 14 13 12 11 11 11 10 9 9 9 9 8 8 8 9 10 11 12 13 14 15 17 18 19 20
18 18 18 19 20 21 21 19 18 17 15 14 14 15 15 15 15 14 13 12 11 11 10 9 9 8 8 8 7 7 8 8 9 10 11 12 13 15 16 17 19 20
18 18 19 19 20 22 21 19 18 17 15 14 15 15 15 16 15 14 13 12 11 10 9 8 8 8 7 7 6 6 7 8 8 9 10 11 13 15 16 17 18 20
19 19 19 19 21 22 20 19 18 17 16 15 15 17 17 17 15 14 13 12 11 10 9 8 8 8 6 6 5 5 6 6 7 8 9 11 13 14 15 16 18 20
19 19 17 18 21 22 20 19 19 18 17 16 17 18 18 17 16 15 13 12 11 9 8 8 8 7 6 5 4 4 4 5 6 7 9 11 12 13 15 16 19 21
20 18 16 18 22 22 21 20 19 19 18 17 18 18 18 18 17 16 14 12 11 9 8 8 8 6 5 4 3 3 3 4 5 7 9 10 12 13 15 17 19 21

ECMWFNIL_700_spd_114.txt.gz
Wind_Speed
13 12 13 13 14 14 14 16 16 17 18 18 18 18 17 17 17 17 17 17 17 17 17 18 18 18 17 17 16 16 15 15 15 15 16 17 18 20 21 23 23 24
13 13 14 14 14 14 14 15 16 17 18 19 19 18 17 17 17 17 17 17 17 17 17 17 17 17 16 16 15 15 15 15 15 16 17 18 19 21 22 23 24 24
15 14 13 13 13 13 13 14 15 17 18 18 17 17 17 17 16 17 17 17 17 16 16 15 15 15 15 15 15 14 15 15 15 16 17 19 21 22 23 24 24 24
16 14 13 12 12 12 13 14 15 17 17 16 16 16 16 16 16 16 16 16 16 15 14 14 14 14 14 14 14 14 14 15 16 17 18 20 22 23 24 24 24 23
15 14 13 12 12 12 12 14 15 16 15 15 15 15 15 15 15 16 15 15 14 13 13 13 13 14 14 14 13 13 14 15 16 18 20 21 22 23 23 23 22 22
15 13 13 12 11 11 11 13 14 14 14 13 13 14 14 15 15 14 14 13 12 12 12 13 13 13 13 13 13 13 14 15 17 19 20 21 22 22 22 21 21 21
15 14 13 12 11 10 10 11 12 12 12 12 13 14 14 14 13 13 12 12 12 12 12 12 12 12 12 12 12 13 15 16 18 19 20 21 21 20 20 20 20 21
16 15 13 12 10 10 10 10 10 11 11 13 13 14 13 12 12 12 11 11 11 12 12 12 12 11 12 12 12 14 15 17 19 19 20 20 19 19 19 19 20 21
17 15 14 12 11 10 11 11 11 11 12 13 14 13 12 12 12 11 11 11 11 12 12 11 11 11 11 12 13 14 16 17 18 19 19 19 18 18 19 20 20 21
18 17 15 13 12 12 12 12 12 12 13 14 14 13 12 12 12 11 11 11 12 12 12 11 11 11 11 12 13 15 16 17 18 18 18 17 17 18 19 19 20 20
19 18 15 14 13 13 13 13 13 13 14 14 14 13 12 12 12 11 12 12 12 12 11 11 10 11 11 12 13 15 16 17 17 17 17 16 17 17 18 19 19 19
19 17 15 13 13 13 13 14 14 14 14 15 14 14 13 12 12 12 12 12 12 11 11 10 10 10 11 12 14 15 16 17 17 16 15 16 16 17 17 18 18 19
18 16 14 13 13 13 14 14 14 14 15 15 15 14 14 13 13 13 13 12 12 11 10 10 10 11 12 13 13 14 15 16 15 15 15 15 16 16 17 17 17 18
17 15 14 13 13 13 14 14 14 14 16 16 15 15 14 14 14 13 13 12 11 10 10 10 10 11 12 13 13 14 15 14 14 14 14 14 15 15 16 16 17 17
18 16 15 14 14 14 14 14 15 16 17 17 16 15 15 15 14 13 13 12 11 10 10 10 10 11 12 12 13 13 13 13 13 13 13 13 14 14 15 15 16 17
19 17 16 15 14 13 14 15 16 17 18 18 17 16 16 15 14 13 13 12 11 10 10 10 11 11 11 12 12 13 12 12 12 12 12 13 13 13 14 14 15 16
20 18 17 16 15 14 15 16 16 18 19 18 17 17 16 15 14 13 13 12 11 10 10 11 11 11 11 12 12 12 12 12 11 11 11 12 12 12 13 13 14 15
21 20 18 17 16 15 15 16 18 19 20 19 18 18 16 15 14 14 13 12 11 11 10 11 11 10 11 11 11 11 11 11 10 10 11 11 11 12 12 12 13 14
23 21 19 18 16 15 16 17 18 20 21 20 19 18 17 15 15 14 14 13 12 11 11 11 10 10 11 11 10 10 10 9 9 10 10 10 10 10 11 12 13 13
24 22 20 19 17 16 16 17 19 21 22 20 19 18 17 16 16 15 14 13 12 11 11 11 10 10 10 10 10 9 9 9 9 8 9 9 9 9 10 11 12 13
26 23 21 20 18 17 17 17 19 21 22 21 20 19 18 17 17 16 15 14 13 12 11 10 10 10 10 9 9 8 8 8 8 7 8 8 8 8 9 10 11 12
27 24 22 21 19 18 17 18 19 22 23 22 20 19 18 17 17 16 15 14 13 12 12 11 11 11 10 9 8 7 7 7 7 6 6 6 6 7 9 10 11 12
29 25 24 23 20 18 17 18 20 22 23 23 21 19 18 18 17 16 15 14 14 13 12 12 12 11 10 9 7 6 6 6 5 5 5 5 5 7 8 10 11 12
30 27 26 25 21 18 17 19 20 22 24 23 22 20 19 19 18 17 16 15 14 14 13 12 12 11 9 8 7 6 6 5 5 5 5 5 5 6 8 9 11 12
30 29 29 27 22 18 18 19 21 23 25 24 22 21 20 19 19 18 17 16 15 14 13 13 12 11 10 8 7 6 6 5 5 5 5 5 5 6 8 9 11 12
29 29 28 24 21 20 18 19 21 24 26 25 23 21 20 20 20 19 18 17 16 14 13 13 13 11 10 9 8 7 6 5 5 6 6 5 5 6 7 9 11 12

ECMWFNIL_700_spd_117.txt.gz
Wind_Speed
16 16 15 14 13 13 12 12 12 13 13 14 14 15 15 16 16 16 16 16 16 16 15 14 13 14 14 14 13 12 12 11 11 11 11 12 13 15 17 18 19 20
16 16 15 14 13 13 12 12 13 14 14 14 14 15 15 16 17 17 16 16 16 15 14 13 14 14 14 13 12 11 11 11 11 11 11 13 14 16 18 19 19 19
16 17 16 14 13 12 12 12 13 14 14 14 14 14 16 17 17 16 16 16 15 14 13 13 13 13 12 11 11 11 11 10 10 11 12 14 16 17 18 18 18 18
16 17 16 14 13 12 12 13 13 13 13 13 13 14 15 15 15 15 15 14 13 13 13 13 12 11 11 11 11 10 10 10 11 12 13 15 17 17 18 17 17 17
16 17 16 14 13 12 12 12 13 13 13 13 13 13 13 13 13 13 13 13 13 13 12 11 10 10 10 10 10 10 10 10 11 12 14 16 17 17 17 17 17 17
17 17 16 15 13 12 12 12 12 12 12 12 12 12 11 11 12 12 12 13 13 12 10 10 10 10 10 10 10 10 10 10 12 14 15 17 17 17 17 17 17 17
17 17 17 15 14 13 13 12 11 11 11 11 11 11 11 11 11 12 13 13 11 10 9 10 10 10 10 10 10 10 10 11 12 15 16 16 17 17 16 16 17 17
18 18 17 16 15 14 13 12 10 10 10 10 10 10 10 11 12 13 13 11 9 9 9 10 10 10 10 10 10 9 10 12 14 15 16 16 16 16 15 16 16 17
18 18 17 16 15 15 14 12 10 10 10 10 10 10 10 12 13 13 11 9 9 9 9 9 10 10 10 10 9 9 10 12 14 14 15 15 15 15 15 15 16 16
19 18 17 16 16 15 14 12 11 11 11 11 11 11 11 13 14 12 10 9 9 9 9 9 10 10 10 10 9 9 11 13 13 14 14 14 14 14 14 14 15 16
19 18 17 17 17 16 15 13 12 12 12 12 12 12 13 14 14 11 10 9 9 9 9 10 10 10 10 10 9 10 11 12 13 13 13 13 13 13 13 14 15 15
19 19 18 18 18 17 16 15 14 12 12 13 13 13 14 14 13 11 10 10 10 10 10 10 11 10 10 9 10 10 11 11 12 12 12 12 12 12 13 13 14 14
19 20 20 20 19 18 17 16 14 13 13 14 13 14 15 15 13 11 11 11 10 11 11 11 11 10 9 9 10 10 10 11 11 11 11 11 11 11 12 12 13 14
21 21 21 21 21 20 19 17 15 14 14 14 14 15 15 14 13 12 11 11 11 11 12 12 12 10 9 9 10 10 10 10 10 10 10 10 10 10 11 11 12 13
22 22 22 22 22 21 20 18 16 15 15 15 15 15 15 14 13 12 12 12 12 12 13 13 11 10 9 9 10 9 9 10 9 9 9 9 9 9 10 10 11 12
24 24 25 24 23 22 20 18 17 16 16 16 16 15 14 14 13 13 13 13 13 13 14 13 11 10 10 10 10 9 9 9 9 9 8 8 8 8 8 9 10 11
26 27 27 26 24 22 20 19 18 18 18 18 17 15 15 14 14 14 14 14 14 14 14 13 11 10 10 10 9 9 8 8 8 8 7 7 7 7 7 8 9 10
28 29 29 27 25 22 21 20 20 19 19 18 17 16 16 15 15 16 16 16 16 15 14 13 12 11 11 10 9 8 8 8 8 7 7 6 6 6 6 7 8 9
28 29 29 28 26 24 22 22 21 20 20 18 17 17 17 17 17 17 17 17 16 16 15 14 12 12 11 10 9 8 8 8 7 7 6 5 5 5 6 6 7 8
29 30 30 29 27 25 24 23 22 21 19 18 17 18 18 18 18 18 18 18 17 16 16 14 13 12 12 11 9 8 8 8 7 7 6 5 4 4 5 5 6 7
31 31 31 30 28 26 25 23 22 20 18 16 17 18 19 20 19 19 19 19 18 17 16 15 14 13 12 11 10 9 8 8 8 7 6 4 3 3 4 5 5 6
34 32 32 32 29 27 25 24 22 19 17 16 17 18 20 21 20 20 20 19 18 18 16 15 14 14 13 11 10 9 9 9 8 7 6 4 3 4 4 5 5 6
36 34 33 31 28 26 26 25 23 21 18 18 18 18 20 21 22 22 21 20 19 18 17 16 15 14 13 11 10 10 10 9 9 8 6 5 4 4 5 5 5 6
36 33 31 28 26 27 28 27 25 24 21 19 19 20 21 22 23 23 22 21 20 18 17 16 15 15 13 12 11 10 10 10 9 8 7 5 5 5 5 5 6 7
37 34 29 27 28 28 29 29 28 26 23 21 20 21 22 23 23 23 22 21 20 19 18 17 16 15 14 12 11 11 11 11 10 9 7 6 6 6 6 6 6 7
37 34 27 26 30 29 28 29 31 29 25 21 21 21 22 23 23 23 23 22 21 21 19 18 17 16 15 13 12 11 12 11 10 10 8 7 7 7 7 7 7 7

ECMWFNIL_700_spd_120.txt.gz
Wind_Speed
13 17 22 23 22 21 20 20 18 17 15 14 13 12 11 12 13 13 14 14 14 13 12 12 12 11 11 10 10 9 8 8 8 8 8 9 9 10 12 14 15 15
14 19 23 22 21 20 19 18 17 15 14 13 13 12 13 14 14 15 15 15 14 13 12 12 11 11 10 10 9 8 7 7 7 7 8 8 10 12 13 15 15 15
15 19 22 21 19 19 17 16 15 15 14 14 14 14 15 15 15 15 15 15 14 13 12 12 11 10 9 9 7 7 6 7 7 7 8 9 11 13 14 15 15 15
16 18 21 21 19 18 16 15 15 15 15 15 15 15 15 15 15 15 15 14 13 12 12 11 10 9 8 7 7 6 6 7 7 8 8 10 12 13 14 14 14 14
17 18 21 21 19 17 16 16 16 16 16 16 16 15 15 14 14 14 13 12 12 12 11 10 10 9 7 7 7 6 6 7 7 8 9 11 12 13 13 14 14 13
18 18 20 21 19 17 17 17 17 16 16 16 15 15 14 14 13 12 12 12 12 12 11 10 9 8 7 7 7 6 7 7 7 8 10 11 12 12 13 13 12 12
19 18 20 20 19 18 17 17 17 16 16 16 15 14 14 13 12 11 11 12 12 11 11 10 9 7 7 7 6 7 7 7 8 9 11 11 12 12 12 12 12 12
20 19 20 20 19 18 18 18 17 16 16 15 14 14 13 12 12 12 12 11 11 11 11 10 9 7 7 7 7 7 8 8 9 10 11 11 11 11 11 11 11 11
21 20 20 20 19 19 19 18 17 17 16 15 14 13 12 12 12 12 12 11 11 12 11 10 9 7 7 7 7 8 8 9 10 10 11 11 11 11 11 11 11 11
21 21 20 20 20 20 20 19 18 18 17 15 13 13 13 13 12 12 12 12 12 12 12 10 9 8 7 7 8 9 9 10 10 10 10 10 11 11 10 11 11 11
21 21 21 21 21 21 21 20 20 19 17 15 14 14 13 13 13 13 12 12 13 13 12 11 10 8 7 8 9 10 10 11 11 10 10 10 10 10 10 10 10 10
21 21 21 22 22 22 22 21 21 20 18 16 15 15 14 14 14 13 13 13 13 13 12 12 11 9 8 9 10 10 11 11 11 10 10 10 10 9 9 9 9 9
22 22 23 23 24 23 23 22 22 21 19 17 16 15 15 15 14 14 14 14 14 14 13 13 11 10 9 10 10 11 11 11 10 10 10 10 9 9 9 9 9 9
23 24 24 25 25 24 24 23 23 21 20 18 17 16 15 15 15 14 14 15 15 14 14 14 12 10 10 11 11 11 11 11 10 10 9 9 8 8 8 8 8 8
25 25 26 26 26 25 25 25 24 23 21 20 19 17 16 16 15 15 15 16 16 16 15 14 12 11 11 11 12 12 11 11 10 10 9 8 8 8 8 8 8 8
25 26 26 27 27 26 26 26 26 24 23 22 20 18 17 16 16 16 16 17 17 17 16 14 13 13 13 13 12 12 11 11 10 9 8 8 8 7 7 7 7 8
26 27 27 28 28 27 27 28 27 26 25 23 21 19 18 17 16 16 17 18 18 17 16 15 14 14 14 14 13 12 11 11 10 9 8 8 7 7 7 7 7 8
27 27 28 28 29 28 29 29 29 28 26 24 21 20 18 17 17 17 18 18 18 18 16 15 15 15 15 15 14 13 12 11 10 9 8 8 8 8 8 7 7 8
27 28 29 29 30 30 30 31 30 28 25 23 22 20 19 18 17 18 19 19 19 18 17 16 15 16 16 16 14 13 12 11 11 10 9 9 8 8 8 7 7 8
28 29 30 31 31 32 33 32 29 26 25 23 22 20 19 18 18 19 19 19 19 19 18 17 17 17 17 16 15 13 13 12 11 10 10 10 9 8 8 8 8 8
30 30 31 31 32 34 33 30 26 25 25 24 22 20 19 19 19 20 20 20 20 20 19 18 18 18 18 17 15 14 13 12 12 11 11 10 9 9 9 8 8 8
30 30 30 31 33 33 31 29 28 28 27 25 23 21 20 20 20 19 20 21 21 20 20 19 19 19 19 18 16 14 14 13 12 12 12 11 10 10 9 9 9 9
30 30 31 33 34 33 31 30 30 31 31 27 24 22 21 20 20 19 21 22 21 21 20 20 20 20 19 18 16 15 15 14 13 13 12 12 11 10 10 10 9 9
31 31 32 33 34 33 32 31 29 30 31 29 26 25 23 21 21 21 22 22 22 21 21 21 21 21 20 19 17 16 16 15 14 13 13 13 12 11 11 10 10 10
31 32 32 33 32 31 31 32 31 31 34 34 31 28 26 24 23 23 23 23 22 22 22 22 22 22 21 20 18 17 17 16 15 14 14 14 13 12 11 11 10 10
31 33 33 32 32 31 30 32 33 32 35 39 36 31 29 27 26 25 24 24 23 22 23 23 23 22 22 21 19 19 18 17 16 15 15 14 14 13 12 11 11 11

ECMWFNIL_700_spd_123.txt.gz
Wind_Speed
17 18 19 20 21 23 25 27 27 25 24 23 22 22 20 18 18 17 15 15 14 12 12 13 13 13 13 12 12 12 11 10 9 9 8 9 9 10 10 11 13 13
18 19 19 20 22 24 26 27 26 24 24 24 23 22 21 19 19 18 17 16 16 14 14 14 14 14 13 12 12 11 11 10 9 8 8 9 9 10 11 12 13 13
18 18 18 19 21 23 25 25 24 24 24 24 22 21 20 19 18 18 17 17 16 15 15 15 14 14 13 12 12 11 10 9 8 8 9 9 10 11 12 13 13 13
18 17 17 19 20 23 24 24 23 23 23 22 21 20 18 17 18 18 17 17 17 16 16 15 14 14 13 12 12 11 10 9 8 9 9 10 10 11 12 12 12 12
18 18 18 20 22 23 23 23 22 23 23 21 20 19 18 18 18 18 17 17 17 16 16 15 15 14 13 13 12 11 9 9 9 10 10 10 11 11 12 12 12 11
19 19 19 21 23 23 23 23 23 23 22 21 20 19 19 19 18 18 18 17 17 16 16 15 15 14 13 13 12 10 9 9 10 10 10 11 11 12 12 11 11 11
20 20 20 21 25 25 24 23 23 23 22 21 20 20 19 19 19 18 18 17 17 16 15 15 15 14 14 13 12 10 10 10 10 10 11 11 11 12 11 11 11 10
20 20 20 21 25 26 25 24 24 23 22 21 21 20 19 19 18 18 18 17 17 16 15 15 15 14 14 13 12 11 11 11 11 11 11 11 11 11 11 10 10 10
21 21 21 21 24 26 25 24 24 23 22 22 21 20 19 18 18 17 17 17 16 15 15 15 15 14 14 13 13 12 12 11 11 11 11 11 12 11 10 10 9 9
22 22 23 22 24 25 25 25 24 23 22 21 21 20 19 18 17 17 17 17 16 15 15 15 15 15 14 14 14 13 12 12 12 11 11 12 12 11 10 9 9 9
23 23 24 24 24 25 26 25 24 23 22 22 21 20 19 17 17 17 17 16 16 16 16 16 15 15 15 15 15 14 13 13 12 12 12 12 11 10 9 9 9 9
23 24 25 25 25 26 26 26 24 23 23 22 21 21 19 18 17 17 17 17 17 17 16 16 16 16 16 15 15 14 14 13 13 13 12 12 11 10 9 9 10 9
23 24 25 26 26 26 27 26 25 24 24 23 22 22 20 18 18 17 17 18 18 17 17 17 16 16 16 16 15 15 14 14 13 14 13 12 11 10 9 10 10 9
24 25 26 26 27 27 27 27 26 26 25 24 23 23 21 19 18 18 18 18 18 18 18 17 17 17 17 16 16 15 15 14 14 14 13 12 11 10 10 10 10 9
25 26 27 27 27 28 28 28 27 27 26 25 24 24 22 20 19 19 19 19 18 18 18 18 18 18 18 17 16 16 16 15 15 15 14 13 12 11 10 10 10 9
27 27 27 27 28 29 29 29 28 27 26 25 24 24 23 21 20 19 19 19 19 19 19 19 19 19 18 17 17 17 17 16 16 15 14 13 12 11 11 11 11 10
28 27 27 27 28 29 30 29 27 26 26 26 25 25 24 23 21 20 20 20 20 20 20 20 20 19 18 18 18 18 18 17 16 16 15 13 13 12 11 12 11 10
29 29 28 28 29 30 30 29 27 26 25 26 26 27 26 25 23 22 22 21 21 21 21 21 21 19 19 19 19 19 19 18 17 16 15 14 13 12 12 12 12 11
30 30 30 30 31 31 29 27 26 25 25 27 27 28 28 28 26 25 23 23 22 22 22 22 21 20 20 20 20 20 20 19 18 17 15 14 14 13 13 13 13 13
31 32 33 33 32 29 27 26 26 26 27 28 29 29 30 30 29 27 25 24 23 22 23 23 22 21 21 20 20 21 21 20 19 17 16 15 14 14 13 13 14 14
32 33 33 32 29 26 26 27 28 28 28 29 30 32 32 32 31 29 26 24 24 24 24 24 23 22 22 21 21 22 22 21 19 18 17 16 15 15 14 14 15 14
32 32 31 29 27 27 28 28 29 29 29 30 31 33 34 35 33 31 28 26 25 25 25 24 24 24 23 22 22 23 23 21 20 19 18 17 16 16 16 15 16 15
30 30 30 29 28 28 29 29 29 30 31 32 32 34 36 36 35 32 29 27 27 26 26 26 25 24 24 23 23 24 23 22 21 20 19 18 17 17 17 17 16 16
28 29 29 29 29 30 30 29 29 30 31 32 34 35 35 35 36 34 32 29 29 28 27 26 25 25 26 25 24 24 24 22 22 21 20 19 19 18 18 18 17 16
28 28 29 29 30 30 30 30 30 31 31 30 31 32 32 33 37 38 37 34 32 30 27 27 26 27 27 26 24 24 24 23 23 22 21 20 20 20 20 19 18 17
27 28 28 29 30 31 31 32 31 31 31 30 29 28 29 30 33 37 39 38 34 29 27 27 29 29 28 26 25 25 25 24 23 22 22 21 21 21 21 20 19 18